<?xml version="1.0" encoding="UTF-8" standalone="no" ?>
<gpx xmlns="http://www.topografix.com/GPX/1/1" xmlns:xsi="http://www.w3.org/2001/XMLSchema-instance" xsi:schemaLocation="http://www.topografix.com/GPX/1/1 http://www.topografix.com/GPX/1/1/gpx.xsd" version="1.1" creator="VisuGPX - https://www.visugpx.com">
  <metadata>
    <name>OCC_2015</name>
    <desc><![CDATA[Trace OCC 2015]]></desc>
  </metadata>
  <trk>
    <name><![CDATA[OCC2015-v1]]></name>
    <trkseg>
      <trkpt lat="46.0304" lon="7.1463">
        <ele>911</ele>
        <time>2013-10-02T11:47:57Z</time>
      </trkpt>
      <trkpt lat="46.03013" lon="7.14628">
        <ele>911</ele>
        <time>2013-10-02T11:48:06Z</time>
      </trkpt>
      <trkpt lat="46.02995" lon="7.14609">
        <ele>910</ele>
        <time>2013-10-02T11:48:16Z</time>
      </trkpt>
      <trkpt lat="46.02981" lon="7.14595">
        <ele>908</ele>
        <time>2013-10-02T11:48:25Z</time>
      </trkpt>
      <trkpt lat="46.02959" lon="7.14586">
        <ele>909</ele>
        <time>2013-10-02T11:48:35Z</time>
      </trkpt>
      <trkpt lat="46.0294" lon="7.14587">
        <ele>908</ele>
        <time>2013-10-02T11:48:43Z</time>
      </trkpt>
      <trkpt lat="46.02924" lon="7.14579">
        <ele>908</ele>
        <time>2013-10-02T11:49:01Z</time>
      </trkpt>
      <trkpt lat="46.02907" lon="7.14585">
        <ele>909</ele>
        <time>2013-10-02T11:49:09Z</time>
      </trkpt>
      <trkpt lat="46.02894" lon="7.14593">
        <ele>911</ele>
        <time>2013-10-02T11:49:18Z</time>
      </trkpt>
      <trkpt lat="46.02881" lon="7.14596">
        <ele>912</ele>
        <time>2013-10-02T11:49:27Z</time>
      </trkpt>
      <trkpt lat="46.02868" lon="7.14604">
        <ele>913</ele>
        <time>2013-10-02T11:49:36Z</time>
      </trkpt>
      <trkpt lat="46.02858" lon="7.14612">
        <ele>913</ele>
        <time>2013-10-02T11:49:44Z</time>
      </trkpt>
      <trkpt lat="46.02847" lon="7.14612">
        <ele>913</ele>
        <time>2013-10-02T11:49:52Z</time>
      </trkpt>
      <trkpt lat="46.02835" lon="7.14619">
        <ele>913</ele>
        <time>2013-10-02T11:50:08Z</time>
      </trkpt>
      <trkpt lat="46.02826" lon="7.14613">
        <ele>913</ele>
        <time>2013-10-02T11:50:17Z</time>
      </trkpt>
      <trkpt lat="46.02815" lon="7.14603">
        <ele>913</ele>
        <time>2013-10-02T11:50:24Z</time>
      </trkpt>
      <trkpt lat="46.02807" lon="7.14593">
        <ele>913</ele>
        <time>2013-10-02T11:50:31Z</time>
      </trkpt>
      <trkpt lat="46.02802" lon="7.14581">
        <ele>914</ele>
        <time>2013-10-02T11:50:38Z</time>
      </trkpt>
      <trkpt lat="46.02794" lon="7.14567">
        <ele>914</ele>
        <time>2013-10-02T11:50:47Z</time>
      </trkpt>
      <trkpt lat="46.02786" lon="7.14556">
        <ele>914</ele>
        <time>2013-10-02T11:50:55Z</time>
      </trkpt>
      <trkpt lat="46.02782" lon="7.14549">
        <ele>914</ele>
        <time>2013-10-02T11:51:03Z</time>
      </trkpt>
      <trkpt lat="46.0277" lon="7.14538">
        <ele>915</ele>
        <time>2013-10-02T11:51:11Z</time>
      </trkpt>
      <trkpt lat="46.02763" lon="7.1453">
        <ele>915</ele>
        <time>2013-10-02T11:51:19Z</time>
      </trkpt>
      <trkpt lat="46.0275" lon="7.14518">
        <ele>916</ele>
        <time>2013-10-02T11:51:33Z</time>
      </trkpt>
      <trkpt lat="46.02741" lon="7.1451">
        <ele>916</ele>
        <time>2013-10-02T11:51:41Z</time>
      </trkpt>
      <trkpt lat="46.02732" lon="7.14505">
        <ele>917</ele>
        <time>2013-10-02T11:51:48Z</time>
      </trkpt>
      <trkpt lat="46.02719" lon="7.14502">
        <ele>918</ele>
        <time>2013-10-02T11:51:54Z</time>
      </trkpt>
      <trkpt lat="46.02706" lon="7.14497">
        <ele>918</ele>
        <time>2013-10-02T11:52:02Z</time>
      </trkpt>
      <trkpt lat="46.02693" lon="7.14497">
        <ele>919</ele>
        <time>2013-10-02T11:52:08Z</time>
      </trkpt>
      <trkpt lat="46.02679" lon="7.14496">
        <ele>920</ele>
        <time>2013-10-02T11:52:15Z</time>
      </trkpt>
      <trkpt lat="46.0267" lon="7.14499">
        <ele>921</ele>
        <time>2013-10-02T11:52:23Z</time>
      </trkpt>
      <trkpt lat="46.02658" lon="7.145">
        <ele>922</ele>
        <time>2013-10-02T11:52:31Z</time>
      </trkpt>
      <trkpt lat="46.02648" lon="7.14505">
        <ele>923</ele>
        <time>2013-10-02T11:52:39Z</time>
      </trkpt>
      <trkpt lat="46.02639" lon="7.14514">
        <ele>924</ele>
        <time>2013-10-02T11:52:46Z</time>
      </trkpt>
      <trkpt lat="46.02627" lon="7.14517">
        <ele>925</ele>
        <time>2013-10-02T11:52:53Z</time>
      </trkpt>
      <trkpt lat="46.02617" lon="7.14524">
        <ele>925</ele>
        <time>2013-10-02T11:53:00Z</time>
      </trkpt>
      <trkpt lat="46.02608" lon="7.14529">
        <ele>926</ele>
        <time>2013-10-02T11:53:07Z</time>
      </trkpt>
      <trkpt lat="46.02601" lon="7.1453">
        <ele>926</ele>
        <time>2013-10-02T11:53:13Z</time>
      </trkpt>
      <trkpt lat="46.02592" lon="7.14534">
        <ele>926</ele>
        <time>2013-10-02T11:53:21Z</time>
      </trkpt>
      <trkpt lat="46.02581" lon="7.14537">
        <ele>926</ele>
        <time>2013-10-02T11:53:28Z</time>
      </trkpt>
      <trkpt lat="46.02565" lon="7.14543">
        <ele>927</ele>
        <time>2013-10-02T11:53:55Z</time>
      </trkpt>
      <trkpt lat="46.02554" lon="7.14541">
        <ele>927</ele>
        <time>2013-10-02T11:54:02Z</time>
      </trkpt>
      <trkpt lat="46.02544" lon="7.14539">
        <ele>927</ele>
        <time>2013-10-02T11:54:08Z</time>
      </trkpt>
      <trkpt lat="46.02537" lon="7.14536">
        <ele>927</ele>
        <time>2013-10-02T11:54:14Z</time>
      </trkpt>
      <trkpt lat="46.02532" lon="7.14534">
        <ele>928</ele>
        <time>2013-10-02T11:54:21Z</time>
      </trkpt>
      <trkpt lat="46.0252" lon="7.14528">
        <ele>928</ele>
        <time>2013-10-02T11:54:29Z</time>
      </trkpt>
      <trkpt lat="46.02513" lon="7.14524">
        <ele>928</ele>
        <time>2013-10-02T11:54:35Z</time>
      </trkpt>
      <trkpt lat="46.02501" lon="7.14519">
        <ele>928</ele>
        <time>2013-10-02T11:54:41Z</time>
      </trkpt>
      <trkpt lat="46.02494" lon="7.14514">
        <ele>928</ele>
        <time>2013-10-02T11:54:47Z</time>
      </trkpt>
      <trkpt lat="46.02484" lon="7.14507">
        <ele>929</ele>
        <time>2013-10-02T11:54:53Z</time>
      </trkpt>
      <trkpt lat="46.02477" lon="7.14502">
        <ele>929</ele>
        <time>2013-10-02T11:54:59Z</time>
      </trkpt>
      <trkpt lat="46.02469" lon="7.145">
        <ele>929</ele>
        <time>2013-10-02T11:55:04Z</time>
      </trkpt>
      <trkpt lat="46.0246" lon="7.14496">
        <ele>930</ele>
        <time>2013-10-02T11:55:10Z</time>
      </trkpt>
      <trkpt lat="46.02451" lon="7.14493">
        <ele>930</ele>
        <time>2013-10-02T11:55:17Z</time>
      </trkpt>
      <trkpt lat="46.02444" lon="7.14495">
        <ele>930</ele>
        <time>2013-10-02T11:55:24Z</time>
      </trkpt>
      <trkpt lat="46.02431" lon="7.14494">
        <ele>930</ele>
        <time>2013-10-02T11:55:31Z</time>
      </trkpt>
      <trkpt lat="46.02421" lon="7.14493">
        <ele>930</ele>
        <time>2013-10-02T11:55:38Z</time>
      </trkpt>
      <trkpt lat="46.02412" lon="7.14496">
        <ele>931</ele>
        <time>2013-10-02T11:55:45Z</time>
      </trkpt>
      <trkpt lat="46.02397" lon="7.14496">
        <ele>931</ele>
        <time>2013-10-02T11:55:52Z</time>
      </trkpt>
      <trkpt lat="46.0239" lon="7.14503">
        <ele>931</ele>
        <time>2013-10-02T11:56:00Z</time>
      </trkpt>
      <trkpt lat="46.02379" lon="7.14506">
        <ele>931</ele>
        <time>2013-10-02T11:56:07Z</time>
      </trkpt>
      <trkpt lat="46.02368" lon="7.14507">
        <ele>932</ele>
        <time>2013-10-02T11:56:13Z</time>
      </trkpt>
      <trkpt lat="46.02362" lon="7.14513">
        <ele>932</ele>
        <time>2013-10-02T11:56:21Z</time>
      </trkpt>
      <trkpt lat="46.0235" lon="7.14519">
        <ele>932</ele>
        <time>2013-10-02T11:56:29Z</time>
      </trkpt>
      <trkpt lat="46.02349" lon="7.14531">
        <ele>933</ele>
        <time>2013-10-02T11:56:34Z</time>
      </trkpt>
      <trkpt lat="46.0234" lon="7.14531">
        <ele>932</ele>
        <time>2013-10-02T11:56:39Z</time>
      </trkpt>
      <trkpt lat="46.02329" lon="7.14538">
        <ele>932</ele>
        <time>2013-10-02T11:56:49Z</time>
      </trkpt>
      <trkpt lat="46.02318" lon="7.14543">
        <ele>933</ele>
        <time>2013-10-02T11:56:56Z</time>
      </trkpt>
      <trkpt lat="46.02305" lon="7.14544">
        <ele>933</ele>
        <time>2013-10-02T11:57:03Z</time>
      </trkpt>
      <trkpt lat="46.02296" lon="7.14542">
        <ele>933</ele>
        <time>2013-10-02T11:57:09Z</time>
      </trkpt>
      <trkpt lat="46.02287" lon="7.14537">
        <ele>933</ele>
        <time>2013-10-02T11:57:16Z</time>
      </trkpt>
      <trkpt lat="46.02277" lon="7.14534">
        <ele>934</ele>
        <time>2013-10-02T11:57:23Z</time>
      </trkpt>
      <trkpt lat="46.02267" lon="7.14528">
        <ele>934</ele>
        <time>2013-10-02T11:57:30Z</time>
      </trkpt>
      <trkpt lat="46.0226" lon="7.14526">
        <ele>934</ele>
        <time>2013-10-02T11:57:37Z</time>
      </trkpt>
      <trkpt lat="46.02251" lon="7.14521">
        <ele>934</ele>
        <time>2013-10-02T11:57:43Z</time>
      </trkpt>
      <trkpt lat="46.02246" lon="7.14513">
        <ele>935</ele>
        <time>2013-10-02T11:57:51Z</time>
      </trkpt>
      <trkpt lat="46.02237" lon="7.14505">
        <ele>935</ele>
        <time>2013-10-02T11:58:00Z</time>
      </trkpt>
      <trkpt lat="46.02227" lon="7.14496">
        <ele>936</ele>
        <time>2013-10-02T11:58:09Z</time>
      </trkpt>
      <trkpt lat="46.02217" lon="7.1449">
        <ele>936</ele>
        <time>2013-10-02T11:58:16Z</time>
      </trkpt>
      <trkpt lat="46.02207" lon="7.14481">
        <ele>936</ele>
        <time>2013-10-02T11:58:23Z</time>
      </trkpt>
      <trkpt lat="46.02191" lon="7.1448">
        <ele>937</ele>
        <time>2013-10-02T11:58:30Z</time>
      </trkpt>
      <trkpt lat="46.02183" lon="7.14472">
        <ele>938</ele>
        <time>2013-10-02T11:58:48Z</time>
      </trkpt>
      <trkpt lat="46.02175" lon="7.14462">
        <ele>939</ele>
        <time>2013-10-02T11:58:57Z</time>
      </trkpt>
      <trkpt lat="46.02168" lon="7.14451">
        <ele>939</ele>
        <time>2013-10-02T11:59:04Z</time>
      </trkpt>
      <trkpt lat="46.0216" lon="7.14446">
        <ele>940</ele>
        <time>2013-10-02T11:59:11Z</time>
      </trkpt>
      <trkpt lat="46.02155" lon="7.14438">
        <ele>940</ele>
        <time>2013-10-02T11:59:20Z</time>
      </trkpt>
      <trkpt lat="46.02144" lon="7.14432">
        <ele>941</ele>
        <time>2013-10-02T11:59:28Z</time>
      </trkpt>
      <trkpt lat="46.02112" lon="7.14424">
        <ele>943</ele>
        <time>2013-10-02T11:59:45Z</time>
      </trkpt>
      <trkpt lat="46.02094" lon="7.14426">
        <ele>944</ele>
        <time>2013-10-02T11:59:52Z</time>
      </trkpt>
      <trkpt lat="46.02084" lon="7.14434">
        <ele>945</ele>
        <time>2013-10-02T12:00:00Z</time>
      </trkpt>
      <trkpt lat="46.02069" lon="7.14444">
        <ele>945</ele>
        <time>2013-10-02T12:00:07Z</time>
      </trkpt>
      <trkpt lat="46.02065" lon="7.1446">
        <ele>946</ele>
        <time>2013-10-02T12:00:14Z</time>
      </trkpt>
      <trkpt lat="46.02064" lon="7.1448">
        <ele>948</ele>
        <time>2013-10-02T12:00:21Z</time>
      </trkpt>
      <trkpt lat="46.02062" lon="7.14497">
        <ele>949</ele>
        <time>2013-10-02T12:00:28Z</time>
      </trkpt>
      <trkpt lat="46.02056" lon="7.14507">
        <ele>949</ele>
        <time>2013-10-02T12:00:35Z</time>
      </trkpt>
      <trkpt lat="46.02047" lon="7.14508">
        <ele>949</ele>
        <time>2013-10-02T12:00:41Z</time>
      </trkpt>
      <trkpt lat="46.02039" lon="7.14512">
        <ele>949</ele>
        <time>2013-10-02T12:00:47Z</time>
      </trkpt>
      <trkpt lat="46.02031" lon="7.14513">
        <ele>948</ele>
        <time>2013-10-02T12:00:55Z</time>
      </trkpt>
      <trkpt lat="46.02024" lon="7.14508">
        <ele>949</ele>
        <time>2013-10-02T12:01:03Z</time>
      </trkpt>
      <trkpt lat="46.02026" lon="7.14498">
        <ele>950</ele>
        <time>2013-10-02T12:01:11Z</time>
      </trkpt>
      <trkpt lat="46.02027" lon="7.14485">
        <ele>951</ele>
        <time>2013-10-02T12:01:20Z</time>
      </trkpt>
      <trkpt lat="46.02026" lon="7.14472">
        <ele>953</ele>
        <time>2013-10-02T12:01:28Z</time>
      </trkpt>
      <trkpt lat="46.0202" lon="7.14457">
        <ele>955</ele>
        <time>2013-10-02T12:01:37Z</time>
      </trkpt>
      <trkpt lat="46.02017" lon="7.14438">
        <ele>955</ele>
        <time>2013-10-02T12:01:45Z</time>
      </trkpt>
      <trkpt lat="46.02007" lon="7.14425">
        <ele>957</ele>
        <time>2013-10-02T12:01:53Z</time>
      </trkpt>
      <trkpt lat="46.02005" lon="7.14414">
        <ele>957</ele>
        <time>2013-10-02T12:02:01Z</time>
      </trkpt>
      <trkpt lat="46.01995" lon="7.14408">
        <ele>959</ele>
        <time>2013-10-02T12:02:08Z</time>
      </trkpt>
      <trkpt lat="46.0199" lon="7.14399">
        <ele>960</ele>
        <time>2013-10-02T12:02:15Z</time>
      </trkpt>
      <trkpt lat="46.01992" lon="7.1438">
        <ele>961</ele>
        <time>2013-10-02T12:02:25Z</time>
      </trkpt>
      <trkpt lat="46.01994" lon="7.14356">
        <ele>963</ele>
        <time>2013-10-02T12:02:35Z</time>
      </trkpt>
      <trkpt lat="46.01992" lon="7.14339">
        <ele>964</ele>
        <time>2013-10-02T12:02:44Z</time>
      </trkpt>
      <trkpt lat="46.01988" lon="7.14323">
        <ele>965</ele>
        <time>2013-10-02T12:02:52Z</time>
      </trkpt>
      <trkpt lat="46.01992" lon="7.14307">
        <ele>966</ele>
        <time>2013-10-02T12:02:59Z</time>
      </trkpt>
      <trkpt lat="46.01993" lon="7.14293">
        <ele>967</ele>
        <time>2013-10-02T12:03:07Z</time>
      </trkpt>
      <trkpt lat="46.01996" lon="7.1428">
        <ele>969</ele>
        <time>2013-10-02T12:03:16Z</time>
      </trkpt>
      <trkpt lat="46.01999" lon="7.14262">
        <ele>971</ele>
        <time>2013-10-02T12:03:28Z</time>
      </trkpt>
      <trkpt lat="46.02001" lon="7.14247">
        <ele>972</ele>
        <time>2013-10-02T12:03:38Z</time>
      </trkpt>
      <trkpt lat="46.02002" lon="7.14231">
        <ele>974</ele>
        <time>2013-10-02T12:03:48Z</time>
      </trkpt>
      <trkpt lat="46.02003" lon="7.14207">
        <ele>975</ele>
        <time>2013-10-02T12:03:58Z</time>
      </trkpt>
      <trkpt lat="46.02001" lon="7.14186">
        <ele>976</ele>
        <time>2013-10-02T12:04:06Z</time>
      </trkpt>
      <trkpt lat="46.02001" lon="7.14167">
        <ele>980</ele>
        <time>2013-10-02T12:04:16Z</time>
      </trkpt>
      <trkpt lat="46.02003" lon="7.14155">
        <ele>979</ele>
        <time>2013-10-02T12:04:26Z</time>
      </trkpt>
      <trkpt lat="46.01988" lon="7.14145">
        <ele>980</ele>
        <time>2013-10-02T12:04:34Z</time>
      </trkpt>
      <trkpt lat="46.01985" lon="7.14132">
        <ele>981</ele>
        <time>2013-10-02T12:04:42Z</time>
      </trkpt>
      <trkpt lat="46.01973" lon="7.14117">
        <ele>981</ele>
        <time>2013-10-02T12:04:49Z</time>
      </trkpt>
      <trkpt lat="46.01966" lon="7.14102">
        <ele>981</ele>
        <time>2013-10-02T12:04:57Z</time>
      </trkpt>
      <trkpt lat="46.0196" lon="7.14094">
        <ele>981</ele>
        <time>2013-10-02T12:05:04Z</time>
      </trkpt>
      <trkpt lat="46.01954" lon="7.14086">
        <ele>982</ele>
        <time>2013-10-02T12:05:13Z</time>
      </trkpt>
      <trkpt lat="46.01947" lon="7.14079">
        <ele>982</ele>
        <time>2013-10-02T12:05:24Z</time>
      </trkpt>
      <trkpt lat="46.01943" lon="7.14067">
        <ele>983</ele>
        <time>2013-10-02T12:05:31Z</time>
      </trkpt>
      <trkpt lat="46.01942" lon="7.14053">
        <ele>984</ele>
        <time>2013-10-02T12:05:39Z</time>
      </trkpt>
      <trkpt lat="46.0194" lon="7.14038">
        <ele>984</ele>
        <time>2013-10-02T12:05:47Z</time>
      </trkpt>
      <trkpt lat="46.01944" lon="7.14018">
        <ele>985</ele>
        <time>2013-10-02T12:05:59Z</time>
      </trkpt>
      <trkpt lat="46.01938" lon="7.13998">
        <ele>987</ele>
        <time>2013-10-02T12:06:07Z</time>
      </trkpt>
      <trkpt lat="46.01937" lon="7.13985">
        <ele>987</ele>
        <time>2013-10-02T12:06:14Z</time>
      </trkpt>
      <trkpt lat="46.0193" lon="7.13973">
        <ele>988</ele>
        <time>2013-10-02T12:06:21Z</time>
      </trkpt>
      <trkpt lat="46.01918" lon="7.13959">
        <ele>988</ele>
        <time>2013-10-02T12:06:28Z</time>
      </trkpt>
      <trkpt lat="46.01915" lon="7.13946">
        <ele>988</ele>
        <time>2013-10-02T12:06:35Z</time>
      </trkpt>
      <trkpt lat="46.01912" lon="7.13932">
        <ele>986</ele>
        <time>2013-10-02T12:06:41Z</time>
      </trkpt>
      <trkpt lat="46.01908" lon="7.13922">
        <ele>987</ele>
        <time>2013-10-02T12:06:48Z</time>
      </trkpt>
      <trkpt lat="46.019" lon="7.13907">
        <ele>986</ele>
        <time>2013-10-02T12:06:55Z</time>
      </trkpt>
      <trkpt lat="46.01899" lon="7.13893">
        <ele>986</ele>
        <time>2013-10-02T12:07:02Z</time>
      </trkpt>
      <trkpt lat="46.01898" lon="7.1388">
        <ele>986</ele>
        <time>2013-10-02T12:07:09Z</time>
      </trkpt>
      <trkpt lat="46.01894" lon="7.13866">
        <ele>986</ele>
        <time>2013-10-02T12:07:15Z</time>
      </trkpt>
      <trkpt lat="46.0189" lon="7.13855">
        <ele>986</ele>
        <time>2013-10-02T12:07:20Z</time>
      </trkpt>
      <trkpt lat="46.01887" lon="7.13846">
        <ele>986</ele>
        <time>2013-10-02T12:07:26Z</time>
      </trkpt>
      <trkpt lat="46.01881" lon="7.13839">
        <ele>986</ele>
        <time>2013-10-02T12:07:31Z</time>
      </trkpt>
      <trkpt lat="46.01876" lon="7.13828">
        <ele>985</ele>
        <time>2013-10-02T12:07:36Z</time>
      </trkpt>
      <trkpt lat="46.01869" lon="7.13818">
        <ele>984</ele>
        <time>2013-10-02T12:07:42Z</time>
      </trkpt>
      <trkpt lat="46.01871" lon="7.138">
        <ele>983</ele>
        <time>2013-10-02T12:07:49Z</time>
      </trkpt>
      <trkpt lat="46.01875" lon="7.13784">
        <ele>981</ele>
        <time>2013-10-02T12:07:56Z</time>
      </trkpt>
      <trkpt lat="46.01868" lon="7.13769">
        <ele>980</ele>
        <time>2013-10-02T12:08:03Z</time>
      </trkpt>
      <trkpt lat="46.01874" lon="7.13758">
        <ele>979</ele>
        <time>2013-10-02T12:08:10Z</time>
      </trkpt>
      <trkpt lat="46.01871" lon="7.13744">
        <ele>978</ele>
        <time>2013-10-02T12:08:17Z</time>
      </trkpt>
      <trkpt lat="46.01867" lon="7.13727">
        <ele>977</ele>
        <time>2013-10-02T12:08:25Z</time>
      </trkpt>
      <trkpt lat="46.0186" lon="7.13715">
        <ele>977</ele>
        <time>2013-10-02T12:08:31Z</time>
      </trkpt>
      <trkpt lat="46.01858" lon="7.13703">
        <ele>977</ele>
        <time>2013-10-02T12:08:37Z</time>
      </trkpt>
      <trkpt lat="46.01857" lon="7.1369">
        <ele>976</ele>
        <time>2013-10-02T12:08:43Z</time>
      </trkpt>
      <trkpt lat="46.01847" lon="7.13681">
        <ele>976</ele>
        <time>2013-10-02T12:08:49Z</time>
      </trkpt>
      <trkpt lat="46.01842" lon="7.1367">
        <ele>977</ele>
        <time>2013-10-02T12:08:55Z</time>
      </trkpt>
      <trkpt lat="46.01835" lon="7.13662">
        <ele>977</ele>
        <time>2013-10-02T12:09:00Z</time>
      </trkpt>
      <trkpt lat="46.01833" lon="7.13656">
        <ele>977</ele>
        <time>2013-10-02T12:09:06Z</time>
      </trkpt>
      <trkpt lat="46.01822" lon="7.13644">
        <ele>978</ele>
        <time>2013-10-02T12:09:12Z</time>
      </trkpt>
      <trkpt lat="46.01813" lon="7.13636">
        <ele>978</ele>
        <time>2013-10-02T12:09:17Z</time>
      </trkpt>
      <trkpt lat="46.01803" lon="7.13633">
        <ele>978</ele>
        <time>2013-10-02T12:09:21Z</time>
      </trkpt>
      <trkpt lat="46.01798" lon="7.1363">
        <ele>979</ele>
        <time>2013-10-02T12:09:27Z</time>
      </trkpt>
      <trkpt lat="46.01797" lon="7.13615">
        <ele>979</ele>
        <time>2013-10-02T12:09:33Z</time>
      </trkpt>
      <trkpt lat="46.0179" lon="7.1361">
        <ele>979</ele>
        <time>2013-10-02T12:09:39Z</time>
      </trkpt>
      <trkpt lat="46.01784" lon="7.13599">
        <ele>979</ele>
        <time>2013-10-02T12:09:45Z</time>
      </trkpt>
      <trkpt lat="46.01778" lon="7.13591">
        <ele>979</ele>
        <time>2013-10-02T12:09:51Z</time>
      </trkpt>
      <trkpt lat="46.01773" lon="7.13579">
        <ele>979</ele>
        <time>2013-10-02T12:09:56Z</time>
      </trkpt>
      <trkpt lat="46.01777" lon="7.13568">
        <ele>979</ele>
        <time>2013-10-02T12:10:03Z</time>
      </trkpt>
      <trkpt lat="46.01772" lon="7.13556">
        <ele>980</ele>
        <time>2013-10-02T12:10:09Z</time>
      </trkpt>
      <trkpt lat="46.01769" lon="7.13541">
        <ele>980</ele>
        <time>2013-10-02T12:10:16Z</time>
      </trkpt>
      <trkpt lat="46.0177" lon="7.13527">
        <ele>980</ele>
        <time>2013-10-02T12:10:22Z</time>
      </trkpt>
      <trkpt lat="46.01773" lon="7.13513">
        <ele>980</ele>
        <time>2013-10-02T12:10:29Z</time>
      </trkpt>
      <trkpt lat="46.0177" lon="7.13501">
        <ele>981</ele>
        <time>2013-10-02T12:10:37Z</time>
      </trkpt>
      <trkpt lat="46.01772" lon="7.13482">
        <ele>981</ele>
        <time>2013-10-02T12:10:45Z</time>
      </trkpt>
      <trkpt lat="46.01774" lon="7.13468">
        <ele>981</ele>
        <time>2013-10-02T12:10:53Z</time>
      </trkpt>
      <trkpt lat="46.01779" lon="7.1345">
        <ele>981</ele>
        <time>2013-10-02T12:11:00Z</time>
      </trkpt>
      <trkpt lat="46.0178" lon="7.13436">
        <ele>981</ele>
        <time>2013-10-02T12:11:07Z</time>
      </trkpt>
      <trkpt lat="46.01786" lon="7.13422">
        <ele>981</ele>
        <time>2013-10-02T12:11:14Z</time>
      </trkpt>
      <trkpt lat="46.01788" lon="7.13405">
        <ele>981</ele>
        <time>2013-10-02T12:11:22Z</time>
      </trkpt>
      <trkpt lat="46.01796" lon="7.13395">
        <ele>980</ele>
        <time>2013-10-02T12:11:28Z</time>
      </trkpt>
      <trkpt lat="46.01797" lon="7.13381">
        <ele>980</ele>
        <time>2013-10-02T12:11:35Z</time>
      </trkpt>
      <trkpt lat="46.01802" lon="7.13369">
        <ele>980</ele>
        <time>2013-10-02T12:11:48Z</time>
      </trkpt>
      <trkpt lat="46.01808" lon="7.13354">
        <ele>979</ele>
        <time>2013-10-02T12:11:52Z</time>
      </trkpt>
      <trkpt lat="46.01812" lon="7.13339">
        <ele>979</ele>
        <time>2013-10-02T12:11:57Z</time>
      </trkpt>
      <trkpt lat="46.01815" lon="7.13325">
        <ele>979</ele>
        <time>2013-10-02T12:12:04Z</time>
      </trkpt>
      <trkpt lat="46.0182" lon="7.13313">
        <ele>978</ele>
        <time>2013-10-02T12:12:10Z</time>
      </trkpt>
      <trkpt lat="46.01822" lon="7.13305">
        <ele>978</ele>
        <time>2013-10-02T12:12:30Z</time>
      </trkpt>
      <trkpt lat="46.01832" lon="7.13301">
        <ele>978</ele>
        <time>2013-10-02T12:12:35Z</time>
      </trkpt>
      <trkpt lat="46.01832" lon="7.13303">
        <ele>978</ele>
        <time>2013-10-02T12:12:39Z</time>
      </trkpt>
      <trkpt lat="46.01839" lon="7.13317">
        <ele>979</ele>
        <time>2013-10-02T12:12:45Z</time>
      </trkpt>
      <trkpt lat="46.0185" lon="7.13332">
        <ele>981</ele>
        <time>2013-10-02T12:12:54Z</time>
      </trkpt>
      <trkpt lat="46.01862" lon="7.13335">
        <ele>982</ele>
        <time>2013-10-02T12:13:01Z</time>
      </trkpt>
      <trkpt lat="46.01875" lon="7.13323">
        <ele>983</ele>
        <time>2013-10-02T12:13:09Z</time>
      </trkpt>
      <trkpt lat="46.01884" lon="7.13309">
        <ele>983</ele>
        <time>2013-10-02T12:13:17Z</time>
      </trkpt>
      <trkpt lat="46.01889" lon="7.13289">
        <ele>984</ele>
        <time>2013-10-02T12:13:26Z</time>
      </trkpt>
      <trkpt lat="46.01888" lon="7.13272">
        <ele>984</ele>
        <time>2013-10-02T12:13:33Z</time>
      </trkpt>
      <trkpt lat="46.01884" lon="7.13261">
        <ele>984</ele>
        <time>2013-10-02T12:13:40Z</time>
      </trkpt>
      <trkpt lat="46.01877" lon="7.13245">
        <ele>985</ele>
        <time>2013-10-02T12:13:47Z</time>
      </trkpt>
      <trkpt lat="46.01873" lon="7.13229">
        <ele>985</ele>
        <time>2013-10-02T12:14:01Z</time>
      </trkpt>
      <trkpt lat="46.0187" lon="7.13212">
        <ele>985</ele>
        <time>2013-10-02T12:14:09Z</time>
      </trkpt>
      <trkpt lat="46.01865" lon="7.13201">
        <ele>985</ele>
        <time>2013-10-02T12:14:15Z</time>
      </trkpt>
      <trkpt lat="46.01862" lon="7.13181">
        <ele>986</ele>
        <time>2013-10-02T12:14:22Z</time>
      </trkpt>
      <trkpt lat="46.01868" lon="7.13177">
        <ele>986</ele>
        <time>2013-10-02T12:14:38Z</time>
      </trkpt>
      <trkpt lat="46.01869" lon="7.13161">
        <ele>987</ele>
        <time>2013-10-02T12:14:46Z</time>
      </trkpt>
      <trkpt lat="46.01874" lon="7.13151">
        <ele>987</ele>
        <time>2013-10-02T12:14:54Z</time>
      </trkpt>
      <trkpt lat="46.01878" lon="7.13142">
        <ele>988</ele>
        <time>2013-10-02T12:15:11Z</time>
      </trkpt>
      <trkpt lat="46.01883" lon="7.13127">
        <ele>989</ele>
        <time>2013-10-02T12:15:18Z</time>
      </trkpt>
      <trkpt lat="46.0189" lon="7.13117">
        <ele>989</ele>
        <time>2013-10-02T12:15:28Z</time>
      </trkpt>
      <trkpt lat="46.0189" lon="7.13103">
        <ele>990</ele>
        <time>2013-10-02T12:15:35Z</time>
      </trkpt>
      <trkpt lat="46.01891" lon="7.1309">
        <ele>991</ele>
        <time>2013-10-02T12:15:42Z</time>
      </trkpt>
      <trkpt lat="46.0189" lon="7.13076">
        <ele>992</ele>
        <time>2013-10-02T12:15:50Z</time>
      </trkpt>
      <trkpt lat="46.0189" lon="7.13059">
        <ele>994</ele>
        <time>2013-10-02T12:15:58Z</time>
      </trkpt>
      <trkpt lat="46.01894" lon="7.13049">
        <ele>995</ele>
        <time>2013-10-02T12:16:05Z</time>
      </trkpt>
      <trkpt lat="46.01902" lon="7.13044">
        <ele>996</ele>
        <time>2013-10-02T12:16:13Z</time>
      </trkpt>
      <trkpt lat="46.01903" lon="7.13025">
        <ele>998</ele>
        <time>2013-10-02T12:16:21Z</time>
      </trkpt>
      <trkpt lat="46.01905" lon="7.13009">
        <ele>998</ele>
        <time>2013-10-02T12:16:29Z</time>
      </trkpt>
      <trkpt lat="46.01903" lon="7.12995">
        <ele>1000</ele>
        <time>2013-10-02T12:16:36Z</time>
      </trkpt>
      <trkpt lat="46.01897" lon="7.12981">
        <ele>1001</ele>
        <time>2013-10-02T12:16:44Z</time>
      </trkpt>
      <trkpt lat="46.01891" lon="7.12967">
        <ele>1003</ele>
        <time>2013-10-02T12:16:52Z</time>
      </trkpt>
      <trkpt lat="46.01886" lon="7.1295">
        <ele>1005</ele>
        <time>2013-10-02T12:17:00Z</time>
      </trkpt>
      <trkpt lat="46.01881" lon="7.12936">
        <ele>1006</ele>
        <time>2013-10-02T12:17:07Z</time>
      </trkpt>
      <trkpt lat="46.01879" lon="7.12926">
        <ele>1008</ele>
        <time>2013-10-02T12:17:14Z</time>
      </trkpt>
      <trkpt lat="46.01884" lon="7.12918">
        <ele>1009</ele>
        <time>2013-10-02T12:17:21Z</time>
      </trkpt>
      <trkpt lat="46.01888" lon="7.12909">
        <ele>1010</ele>
        <time>2013-10-02T12:17:29Z</time>
      </trkpt>
      <trkpt lat="46.01885" lon="7.12893">
        <ele>1012</ele>
        <time>2013-10-02T12:17:36Z</time>
      </trkpt>
      <trkpt lat="46.01883" lon="7.1288">
        <ele>1014</ele>
        <time>2013-10-02T12:17:42Z</time>
      </trkpt>
      <trkpt lat="46.01881" lon="7.12869">
        <ele>1015</ele>
        <time>2013-10-02T12:17:49Z</time>
      </trkpt>
      <trkpt lat="46.01878" lon="7.12858">
        <ele>1018</ele>
        <time>2013-10-02T12:17:56Z</time>
      </trkpt>
      <trkpt lat="46.01878" lon="7.12847">
        <ele>1019</ele>
        <time>2013-10-02T12:18:04Z</time>
      </trkpt>
      <trkpt lat="46.01872" lon="7.12833">
        <ele>1020</ele>
        <time>2013-10-02T12:18:12Z</time>
      </trkpt>
      <trkpt lat="46.01864" lon="7.1282">
        <ele>1022</ele>
        <time>2013-10-02T12:18:19Z</time>
      </trkpt>
      <trkpt lat="46.01856" lon="7.1281">
        <ele>1023</ele>
        <time>2013-10-02T12:18:27Z</time>
      </trkpt>
      <trkpt lat="46.01857" lon="7.12794">
        <ele>1025</ele>
        <time>2013-10-02T12:18:35Z</time>
      </trkpt>
      <trkpt lat="46.01853" lon="7.12785">
        <ele>1027</ele>
        <time>2013-10-02T12:18:42Z</time>
      </trkpt>
      <trkpt lat="46.01849" lon="7.12769">
        <ele>1029</ele>
        <time>2013-10-02T12:18:51Z</time>
      </trkpt>
      <trkpt lat="46.01841" lon="7.12757">
        <ele>1032</ele>
        <time>2013-10-02T12:19:02Z</time>
      </trkpt>
      <trkpt lat="46.0183" lon="7.12751">
        <ele>1034</ele>
        <time>2013-10-02T12:19:11Z</time>
      </trkpt>
      <trkpt lat="46.01826" lon="7.12749">
        <ele>1035</ele>
        <time>2013-10-02T12:19:20Z</time>
      </trkpt>
      <trkpt lat="46.01829" lon="7.12751">
        <ele>1035</ele>
        <time>2013-10-02T12:20:00Z</time>
      </trkpt>
      <trkpt lat="46.0184" lon="7.12753">
        <ele>1035</ele>
        <time>2013-10-02T12:20:06Z</time>
      </trkpt>
      <trkpt lat="46.01852" lon="7.12752">
        <ele>1034</ele>
        <time>2013-10-02T12:20:14Z</time>
      </trkpt>
      <trkpt lat="46.01859" lon="7.12753">
        <ele>1034</ele>
        <time>2013-10-02T12:20:20Z</time>
      </trkpt>
      <trkpt lat="46.01867" lon="7.1276">
        <ele>1034</ele>
        <time>2013-10-02T12:20:27Z</time>
      </trkpt>
      <trkpt lat="46.01875" lon="7.12764">
        <ele>1034</ele>
        <time>2013-10-02T12:20:34Z</time>
      </trkpt>
      <trkpt lat="46.01883" lon="7.1277">
        <ele>1035</ele>
        <time>2013-10-02T12:20:40Z</time>
      </trkpt>
      <trkpt lat="46.01889" lon="7.12779">
        <ele>1035</ele>
        <time>2013-10-02T12:20:47Z</time>
      </trkpt>
      <trkpt lat="46.01901" lon="7.12787">
        <ele>1036</ele>
        <time>2013-10-02T12:20:55Z</time>
      </trkpt>
      <trkpt lat="46.01911" lon="7.12793">
        <ele>1035</ele>
        <time>2013-10-02T12:21:02Z</time>
      </trkpt>
      <trkpt lat="46.0192" lon="7.12797">
        <ele>1035</ele>
        <time>2013-10-02T12:21:09Z</time>
      </trkpt>
      <trkpt lat="46.0193" lon="7.12804">
        <ele>1034</ele>
        <time>2013-10-02T12:21:16Z</time>
      </trkpt>
      <trkpt lat="46.01938" lon="7.12812">
        <ele>1032</ele>
        <time>2013-10-02T12:21:23Z</time>
      </trkpt>
      <trkpt lat="46.01947" lon="7.12825">
        <ele>1032</ele>
        <time>2013-10-02T12:21:29Z</time>
      </trkpt>
      <trkpt lat="46.01952" lon="7.12832">
        <ele>1031</ele>
        <time>2013-10-02T12:21:35Z</time>
      </trkpt>
      <trkpt lat="46.01959" lon="7.12844">
        <ele>1030</ele>
        <time>2013-10-02T12:21:42Z</time>
      </trkpt>
      <trkpt lat="46.01963" lon="7.12855">
        <ele>1030</ele>
        <time>2013-10-02T12:21:47Z</time>
      </trkpt>
      <trkpt lat="46.01963" lon="7.12865">
        <ele>1028</ele>
        <time>2013-10-02T12:21:53Z</time>
      </trkpt>
      <trkpt lat="46.01966" lon="7.1288">
        <ele>1028</ele>
        <time>2013-10-02T12:22:00Z</time>
      </trkpt>
      <trkpt lat="46.01969" lon="7.12895">
        <ele>1026</ele>
        <time>2013-10-02T12:22:06Z</time>
      </trkpt>
      <trkpt lat="46.01971" lon="7.12906">
        <ele>1026</ele>
        <time>2013-10-02T12:22:12Z</time>
      </trkpt>
      <trkpt lat="46.01972" lon="7.12922">
        <ele>1025</ele>
        <time>2013-10-02T12:22:19Z</time>
      </trkpt>
      <trkpt lat="46.01975" lon="7.12935">
        <ele>1025</ele>
        <time>2013-10-02T12:22:25Z</time>
      </trkpt>
      <trkpt lat="46.01979" lon="7.12949">
        <ele>1024</ele>
        <time>2013-10-02T12:22:31Z</time>
      </trkpt>
      <trkpt lat="46.01984" lon="7.12961">
        <ele>1025</ele>
        <time>2013-10-02T12:22:36Z</time>
      </trkpt>
      <trkpt lat="46.01991" lon="7.12974">
        <ele>1025</ele>
        <time>2013-10-02T12:22:43Z</time>
      </trkpt>
      <trkpt lat="46.01995" lon="7.12987">
        <ele>1025</ele>
        <time>2013-10-02T12:22:49Z</time>
      </trkpt>
      <trkpt lat="46.02" lon="7.12998">
        <ele>1025</ele>
        <time>2013-10-02T12:22:55Z</time>
      </trkpt>
      <trkpt lat="46.02005" lon="7.13007">
        <ele>1025</ele>
        <time>2013-10-02T12:23:02Z</time>
      </trkpt>
      <trkpt lat="46.0201" lon="7.1302">
        <ele>1024</ele>
        <time>2013-10-02T12:23:09Z</time>
      </trkpt>
      <trkpt lat="46.02015" lon="7.13033">
        <ele>1025</ele>
        <time>2013-10-02T12:23:15Z</time>
      </trkpt>
      <trkpt lat="46.02023" lon="7.13046">
        <ele>1024</ele>
        <time>2013-10-02T12:23:21Z</time>
      </trkpt>
      <trkpt lat="46.02032" lon="7.13055">
        <ele>1024</ele>
        <time>2013-10-02T12:23:28Z</time>
      </trkpt>
      <trkpt lat="46.02042" lon="7.13064">
        <ele>1024</ele>
        <time>2013-10-02T12:23:34Z</time>
      </trkpt>
      <trkpt lat="46.02047" lon="7.13073">
        <ele>1023</ele>
        <time>2013-10-02T12:23:40Z</time>
      </trkpt>
      <trkpt lat="46.02053" lon="7.13086">
        <ele>1023</ele>
        <time>2013-10-02T12:23:47Z</time>
      </trkpt>
      <trkpt lat="46.02059" lon="7.13098">
        <ele>1023</ele>
        <time>2013-10-02T12:23:53Z</time>
      </trkpt>
      <trkpt lat="46.02063" lon="7.13107">
        <ele>1023</ele>
        <time>2013-10-02T12:23:59Z</time>
      </trkpt>
      <trkpt lat="46.0207" lon="7.13118">
        <ele>1023</ele>
        <time>2013-10-02T12:24:05Z</time>
      </trkpt>
      <trkpt lat="46.02071" lon="7.13128">
        <ele>1023</ele>
        <time>2013-10-02T12:24:11Z</time>
      </trkpt>
      <trkpt lat="46.02073" lon="7.13144">
        <ele>1022</ele>
        <time>2013-10-02T12:24:17Z</time>
      </trkpt>
      <trkpt lat="46.02074" lon="7.13158">
        <ele>1022</ele>
        <time>2013-10-02T12:24:24Z</time>
      </trkpt>
      <trkpt lat="46.02073" lon="7.13172">
        <ele>1021</ele>
        <time>2013-10-02T12:24:30Z</time>
      </trkpt>
      <trkpt lat="46.02074" lon="7.13189">
        <ele>1020</ele>
        <time>2013-10-02T12:24:37Z</time>
      </trkpt>
      <trkpt lat="46.02076" lon="7.13203">
        <ele>1020</ele>
        <time>2013-10-02T12:24:44Z</time>
      </trkpt>
      <trkpt lat="46.02076" lon="7.13216">
        <ele>1018</ele>
        <time>2013-10-02T12:24:52Z</time>
      </trkpt>
      <trkpt lat="46.02081" lon="7.13233">
        <ele>1018</ele>
        <time>2013-10-02T12:24:59Z</time>
      </trkpt>
      <trkpt lat="46.02088" lon="7.13247">
        <ele>1016</ele>
        <time>2013-10-02T12:25:05Z</time>
      </trkpt>
      <trkpt lat="46.02093" lon="7.13259">
        <ele>1016</ele>
        <time>2013-10-02T12:25:11Z</time>
      </trkpt>
      <trkpt lat="46.02099" lon="7.1327">
        <ele>1014</ele>
        <time>2013-10-02T12:25:18Z</time>
      </trkpt>
      <trkpt lat="46.02109" lon="7.13276">
        <ele>1015</ele>
        <time>2013-10-02T12:25:36Z</time>
      </trkpt>
      <trkpt lat="46.02121" lon="7.13276">
        <ele>1016</ele>
        <time>2013-10-02T12:25:43Z</time>
      </trkpt>
      <trkpt lat="46.02134" lon="7.13273">
        <ele>1018</ele>
        <time>2013-10-02T12:25:50Z</time>
      </trkpt>
      <trkpt lat="46.02142" lon="7.13274">
        <ele>1019</ele>
        <time>2013-10-02T12:25:57Z</time>
      </trkpt>
      <trkpt lat="46.02152" lon="7.13277">
        <ele>1021</ele>
        <time>2013-10-02T12:26:04Z</time>
      </trkpt>
      <trkpt lat="46.02161" lon="7.13278">
        <ele>1022</ele>
        <time>2013-10-02T12:26:11Z</time>
      </trkpt>
      <trkpt lat="46.0217" lon="7.13283">
        <ele>1024</ele>
        <time>2013-10-02T12:26:18Z</time>
      </trkpt>
      <trkpt lat="46.02176" lon="7.13286">
        <ele>1026</ele>
        <time>2013-10-02T12:26:25Z</time>
      </trkpt>
      <trkpt lat="46.02181" lon="7.13295">
        <ele>1028</ele>
        <time>2013-10-02T12:26:32Z</time>
      </trkpt>
      <trkpt lat="46.02186" lon="7.13296">
        <ele>1030</ele>
        <time>2013-10-02T12:26:39Z</time>
      </trkpt>
      <trkpt lat="46.0219" lon="7.13305">
        <ele>1032</ele>
        <time>2013-10-02T12:26:47Z</time>
      </trkpt>
      <trkpt lat="46.02198" lon="7.1331">
        <ele>1034</ele>
        <time>2013-10-02T12:26:55Z</time>
      </trkpt>
      <trkpt lat="46.02204" lon="7.13314">
        <ele>1035</ele>
        <time>2013-10-02T12:27:02Z</time>
      </trkpt>
      <trkpt lat="46.02213" lon="7.13318">
        <ele>1037</ele>
        <time>2013-10-02T12:27:10Z</time>
      </trkpt>
      <trkpt lat="46.02224" lon="7.13325">
        <ele>1041</ele>
        <time>2013-10-02T12:27:20Z</time>
      </trkpt>
      <trkpt lat="46.02237" lon="7.13319">
        <ele>1041</ele>
        <time>2013-10-02T12:27:28Z</time>
      </trkpt>
      <trkpt lat="46.02248" lon="7.13308">
        <ele>1042</ele>
        <time>2013-10-02T12:27:36Z</time>
      </trkpt>
      <trkpt lat="46.02259" lon="7.13302">
        <ele>1043</ele>
        <time>2013-10-02T12:27:43Z</time>
      </trkpt>
      <trkpt lat="46.02268" lon="7.13303">
        <ele>1044</ele>
        <time>2013-10-02T12:27:51Z</time>
      </trkpt>
      <trkpt lat="46.0227" lon="7.13312">
        <ele>1046</ele>
        <time>2013-10-02T12:27:59Z</time>
      </trkpt>
      <trkpt lat="46.02277" lon="7.13326">
        <ele>1047</ele>
        <time>2013-10-02T12:28:09Z</time>
      </trkpt>
      <trkpt lat="46.02288" lon="7.13334">
        <ele>1050</ele>
        <time>2013-10-02T12:28:51Z</time>
      </trkpt>
      <trkpt lat="46.02297" lon="7.13342">
        <ele>1052</ele>
        <time>2013-10-02T12:29:00Z</time>
      </trkpt>
      <trkpt lat="46.02298" lon="7.13326">
        <ele>1055</ele>
        <time>2013-10-02T12:29:14Z</time>
      </trkpt>
      <trkpt lat="46.02308" lon="7.13308">
        <ele>1060</ele>
        <time>2013-10-02T12:29:35Z</time>
      </trkpt>
      <trkpt lat="46.02316" lon="7.13298">
        <ele>1062</ele>
        <time>2013-10-02T12:29:43Z</time>
      </trkpt>
      <trkpt lat="46.02322" lon="7.13286">
        <ele>1064</ele>
        <time>2013-10-02T12:29:50Z</time>
      </trkpt>
      <trkpt lat="46.02325" lon="7.13277">
        <ele>1067</ele>
        <time>2013-10-02T12:29:57Z</time>
      </trkpt>
      <trkpt lat="46.02329" lon="7.13262">
        <ele>1070</ele>
        <time>2013-10-02T12:30:05Z</time>
      </trkpt>
      <trkpt lat="46.02331" lon="7.1325">
        <ele>1072</ele>
        <time>2013-10-02T12:30:12Z</time>
      </trkpt>
      <trkpt lat="46.02334" lon="7.13239">
        <ele>1074</ele>
        <time>2013-10-02T12:30:21Z</time>
      </trkpt>
      <trkpt lat="46.02339" lon="7.1323">
        <ele>1077</ele>
        <time>2013-10-02T12:30:29Z</time>
      </trkpt>
      <trkpt lat="46.02344" lon="7.13219">
        <ele>1079</ele>
        <time>2013-10-02T12:30:45Z</time>
      </trkpt>
      <trkpt lat="46.0235" lon="7.13209">
        <ele>1082</ele>
        <time>2013-10-02T12:30:53Z</time>
      </trkpt>
      <trkpt lat="46.02354" lon="7.13198">
        <ele>1084</ele>
        <time>2013-10-02T12:31:00Z</time>
      </trkpt>
      <trkpt lat="46.0236" lon="7.13189">
        <ele>1085</ele>
        <time>2013-10-02T12:31:08Z</time>
      </trkpt>
      <trkpt lat="46.02363" lon="7.13174">
        <ele>1086</ele>
        <time>2013-10-02T12:31:15Z</time>
      </trkpt>
      <trkpt lat="46.02358" lon="7.13161">
        <ele>1087</ele>
        <time>2013-10-02T12:31:22Z</time>
      </trkpt>
      <trkpt lat="46.02352" lon="7.13149">
        <ele>1088</ele>
        <time>2013-10-02T12:31:29Z</time>
      </trkpt>
      <trkpt lat="46.02343" lon="7.13139">
        <ele>1089</ele>
        <time>2013-10-02T12:31:37Z</time>
      </trkpt>
      <trkpt lat="46.02331" lon="7.13131">
        <ele>1091</ele>
        <time>2013-10-02T12:31:46Z</time>
      </trkpt>
      <trkpt lat="46.02321" lon="7.13125">
        <ele>1093</ele>
        <time>2013-10-02T12:31:52Z</time>
      </trkpt>
      <trkpt lat="46.02315" lon="7.13119">
        <ele>1095</ele>
        <time>2013-10-02T12:31:59Z</time>
      </trkpt>
      <trkpt lat="46.02308" lon="7.13112">
        <ele>1096</ele>
        <time>2013-10-02T12:32:07Z</time>
      </trkpt>
      <trkpt lat="46.02306" lon="7.13106">
        <ele>1097</ele>
        <time>2013-10-02T12:32:23Z</time>
      </trkpt>
      <trkpt lat="46.02303" lon="7.13095">
        <ele>1098</ele>
        <time>2013-10-02T12:32:29Z</time>
      </trkpt>
      <trkpt lat="46.02302" lon="7.1308">
        <ele>1100</ele>
        <time>2013-10-02T12:32:36Z</time>
      </trkpt>
      <trkpt lat="46.02302" lon="7.13068">
        <ele>1101</ele>
        <time>2013-10-02T12:32:42Z</time>
      </trkpt>
      <trkpt lat="46.023" lon="7.13056">
        <ele>1102</ele>
        <time>2013-10-02T12:32:49Z</time>
      </trkpt>
      <trkpt lat="46.023" lon="7.13044">
        <ele>1104</ele>
        <time>2013-10-02T12:32:56Z</time>
      </trkpt>
      <trkpt lat="46.02299" lon="7.13033">
        <ele>1105</ele>
        <time>2013-10-02T12:33:03Z</time>
      </trkpt>
      <trkpt lat="46.02291" lon="7.13021">
        <ele>1107</ele>
        <time>2013-10-02T12:33:10Z</time>
      </trkpt>
      <trkpt lat="46.02288" lon="7.13008">
        <ele>1109</ele>
        <time>2013-10-02T12:33:18Z</time>
      </trkpt>
      <trkpt lat="46.02286" lon="7.12997">
        <ele>1110</ele>
        <time>2013-10-02T12:33:25Z</time>
      </trkpt>
      <trkpt lat="46.02288" lon="7.12988">
        <ele>1111</ele>
        <time>2013-10-02T12:33:33Z</time>
      </trkpt>
      <trkpt lat="46.02288" lon="7.12975">
        <ele>1114</ele>
        <time>2013-10-02T12:33:53Z</time>
      </trkpt>
      <trkpt lat="46.02289" lon="7.12961">
        <ele>1115</ele>
        <time>2013-10-02T12:34:00Z</time>
      </trkpt>
      <trkpt lat="46.0229" lon="7.12947">
        <ele>1117</ele>
        <time>2013-10-02T12:34:09Z</time>
      </trkpt>
      <trkpt lat="46.02281" lon="7.12942">
        <ele>1118</ele>
        <time>2013-10-02T12:34:16Z</time>
      </trkpt>
      <trkpt lat="46.02269" lon="7.1294">
        <ele>1117</ele>
        <time>2013-10-02T12:34:23Z</time>
      </trkpt>
      <trkpt lat="46.02257" lon="7.12945">
        <ele>1117</ele>
        <time>2013-10-02T12:34:30Z</time>
      </trkpt>
      <trkpt lat="46.02249" lon="7.12948">
        <ele>1118</ele>
        <time>2013-10-02T12:34:36Z</time>
      </trkpt>
      <trkpt lat="46.02241" lon="7.12947">
        <ele>1118</ele>
        <time>2013-10-02T12:34:43Z</time>
      </trkpt>
      <trkpt lat="46.02234" lon="7.1295">
        <ele>1118</ele>
        <time>2013-10-02T12:35:13Z</time>
      </trkpt>
      <trkpt lat="46.02224" lon="7.12944">
        <ele>1119</ele>
        <time>2013-10-02T12:35:25Z</time>
      </trkpt>
      <trkpt lat="46.02215" lon="7.12935">
        <ele>1120</ele>
        <time>2013-10-02T12:35:31Z</time>
      </trkpt>
      <trkpt lat="46.02206" lon="7.12927">
        <ele>1121</ele>
        <time>2013-10-02T12:35:38Z</time>
      </trkpt>
      <trkpt lat="46.022" lon="7.12915">
        <ele>1122</ele>
        <time>2013-10-02T12:35:44Z</time>
      </trkpt>
      <trkpt lat="46.02208" lon="7.12907">
        <ele>1125</ele>
        <time>2013-10-02T12:35:52Z</time>
      </trkpt>
      <trkpt lat="46.02213" lon="7.12894">
        <ele>1127</ele>
        <time>2013-10-02T12:36:00Z</time>
      </trkpt>
      <trkpt lat="46.02218" lon="7.12883">
        <ele>1128</ele>
        <time>2013-10-02T12:36:07Z</time>
      </trkpt>
      <trkpt lat="46.02224" lon="7.12874">
        <ele>1130</ele>
        <time>2013-10-02T12:36:16Z</time>
      </trkpt>
      <trkpt lat="46.02226" lon="7.12861">
        <ele>1132</ele>
        <time>2013-10-02T12:36:27Z</time>
      </trkpt>
      <trkpt lat="46.0223" lon="7.12847">
        <ele>1134</ele>
        <time>2013-10-02T12:36:40Z</time>
      </trkpt>
      <trkpt lat="46.02224" lon="7.12839">
        <ele>1134</ele>
        <time>2013-10-02T12:36:53Z</time>
      </trkpt>
      <trkpt lat="46.02217" lon="7.12831">
        <ele>1134</ele>
        <time>2013-10-02T12:37:01Z</time>
      </trkpt>
      <trkpt lat="46.02205" lon="7.12824">
        <ele>1133</ele>
        <time>2013-10-02T12:37:08Z</time>
      </trkpt>
      <trkpt lat="46.02196" lon="7.12821">
        <ele>1134</ele>
        <time>2013-10-02T12:37:18Z</time>
      </trkpt>
      <trkpt lat="46.02182" lon="7.12823">
        <ele>1134</ele>
        <time>2013-10-02T12:37:26Z</time>
      </trkpt>
      <trkpt lat="46.02176" lon="7.12819">
        <ele>1134</ele>
        <time>2013-10-02T12:37:33Z</time>
      </trkpt>
      <trkpt lat="46.02163" lon="7.12808">
        <ele>1134</ele>
        <time>2013-10-02T12:37:39Z</time>
      </trkpt>
      <trkpt lat="46.02152" lon="7.12805">
        <ele>1134</ele>
        <time>2013-10-02T12:37:47Z</time>
      </trkpt>
      <trkpt lat="46.02143" lon="7.12803">
        <ele>1134</ele>
        <time>2013-10-02T12:37:54Z</time>
      </trkpt>
      <trkpt lat="46.02134" lon="7.12809">
        <ele>1135</ele>
        <time>2013-10-02T12:38:01Z</time>
      </trkpt>
      <trkpt lat="46.02128" lon="7.12808">
        <ele>1136</ele>
        <time>2013-10-02T12:38:10Z</time>
      </trkpt>
      <trkpt lat="46.0212" lon="7.12799">
        <ele>1137</ele>
        <time>2013-10-02T12:38:17Z</time>
      </trkpt>
      <trkpt lat="46.02121" lon="7.12793">
        <ele>1138</ele>
        <time>2013-10-02T12:38:25Z</time>
      </trkpt>
      <trkpt lat="46.02111" lon="7.12781">
        <ele>1140</ele>
        <time>2013-10-02T12:38:35Z</time>
      </trkpt>
      <trkpt lat="46.021" lon="7.12777">
        <ele>1142</ele>
        <time>2013-10-02T12:38:43Z</time>
      </trkpt>
      <trkpt lat="46.02098" lon="7.12766">
        <ele>1143</ele>
        <time>2013-10-02T12:38:50Z</time>
      </trkpt>
      <trkpt lat="46.02104" lon="7.12753">
        <ele>1146</ele>
        <time>2013-10-02T12:38:59Z</time>
      </trkpt>
      <trkpt lat="46.0211" lon="7.12743">
        <ele>1147</ele>
        <time>2013-10-02T12:39:10Z</time>
      </trkpt>
      <trkpt lat="46.02108" lon="7.12728">
        <ele>1149</ele>
        <time>2013-10-02T12:39:25Z</time>
      </trkpt>
      <trkpt lat="46.02109" lon="7.1271">
        <ele>1151</ele>
        <time>2013-10-02T12:39:33Z</time>
      </trkpt>
      <trkpt lat="46.02106" lon="7.12699">
        <ele>1153</ele>
        <time>2013-10-02T12:39:41Z</time>
      </trkpt>
      <trkpt lat="46.02102" lon="7.12685">
        <ele>1156</ele>
        <time>2013-10-02T12:39:50Z</time>
      </trkpt>
      <trkpt lat="46.02105" lon="7.12674">
        <ele>1158</ele>
        <time>2013-10-02T12:39:59Z</time>
      </trkpt>
      <trkpt lat="46.02108" lon="7.12661">
        <ele>1160</ele>
        <time>2013-10-02T12:40:08Z</time>
      </trkpt>
      <trkpt lat="46.0211" lon="7.12651">
        <ele>1163</ele>
        <time>2013-10-02T12:40:17Z</time>
      </trkpt>
      <trkpt lat="46.02112" lon="7.12639">
        <ele>1165</ele>
        <time>2013-10-02T12:40:25Z</time>
      </trkpt>
      <trkpt lat="46.02117" lon="7.12628">
        <ele>1167</ele>
        <time>2013-10-02T12:40:35Z</time>
      </trkpt>
      <trkpt lat="46.02119" lon="7.12614">
        <ele>1169</ele>
        <time>2013-10-02T12:40:43Z</time>
      </trkpt>
      <trkpt lat="46.02122" lon="7.12601">
        <ele>1171</ele>
        <time>2013-10-02T12:40:51Z</time>
      </trkpt>
      <trkpt lat="46.02123" lon="7.12587">
        <ele>1173</ele>
        <time>2013-10-02T12:40:59Z</time>
      </trkpt>
      <trkpt lat="46.02123" lon="7.12573">
        <ele>1174</ele>
        <time>2013-10-02T12:41:07Z</time>
      </trkpt>
      <trkpt lat="46.02123" lon="7.12562">
        <ele>1175</ele>
        <time>2013-10-02T12:41:24Z</time>
      </trkpt>
      <trkpt lat="46.02121" lon="7.12549">
        <ele>1175</ele>
        <time>2013-10-02T12:41:30Z</time>
      </trkpt>
      <trkpt lat="46.02115" lon="7.12535">
        <ele>1175</ele>
        <time>2013-10-02T12:41:36Z</time>
      </trkpt>
      <trkpt lat="46.02109" lon="7.12522">
        <ele>1176</ele>
        <time>2013-10-02T12:41:42Z</time>
      </trkpt>
      <trkpt lat="46.02104" lon="7.12509">
        <ele>1176</ele>
        <time>2013-10-02T12:41:49Z</time>
      </trkpt>
      <trkpt lat="46.02099" lon="7.12498">
        <ele>1176</ele>
        <time>2013-10-02T12:41:56Z</time>
      </trkpt>
      <trkpt lat="46.02091" lon="7.12487">
        <ele>1176</ele>
        <time>2013-10-02T12:42:06Z</time>
      </trkpt>
      <trkpt lat="46.02083" lon="7.12477">
        <ele>1177</ele>
        <time>2013-10-02T12:42:12Z</time>
      </trkpt>
      <trkpt lat="46.02073" lon="7.12471">
        <ele>1177</ele>
        <time>2013-10-02T12:42:18Z</time>
      </trkpt>
      <trkpt lat="46.02064" lon="7.12465">
        <ele>1178</ele>
        <time>2013-10-02T12:42:25Z</time>
      </trkpt>
      <trkpt lat="46.02055" lon="7.12461">
        <ele>1178</ele>
        <time>2013-10-02T12:42:31Z</time>
      </trkpt>
      <trkpt lat="46.02048" lon="7.12454">
        <ele>1178</ele>
        <time>2013-10-02T12:42:37Z</time>
      </trkpt>
      <trkpt lat="46.02041" lon="7.12446">
        <ele>1179</ele>
        <time>2013-10-02T12:42:44Z</time>
      </trkpt>
      <trkpt lat="46.02027" lon="7.12442">
        <ele>1182</ele>
        <time>2013-10-02T12:42:53Z</time>
      </trkpt>
      <trkpt lat="46.02017" lon="7.12439">
        <ele>1183</ele>
        <time>2013-10-02T12:43:00Z</time>
      </trkpt>
      <trkpt lat="46.0201" lon="7.12432">
        <ele>1184</ele>
        <time>2013-10-02T12:43:06Z</time>
      </trkpt>
      <trkpt lat="46.0201" lon="7.12422">
        <ele>1186</ele>
        <time>2013-10-02T12:43:14Z</time>
      </trkpt>
      <trkpt lat="46.02013" lon="7.12412">
        <ele>1187</ele>
        <time>2013-10-02T12:43:22Z</time>
      </trkpt>
      <trkpt lat="46.02012" lon="7.124">
        <ele>1186</ele>
        <time>2013-10-02T12:43:30Z</time>
      </trkpt>
      <trkpt lat="46.02002" lon="7.12388">
        <ele>1187</ele>
        <time>2013-10-02T12:43:37Z</time>
      </trkpt>
      <trkpt lat="46.01993" lon="7.12386">
        <ele>1189</ele>
        <time>2013-10-02T12:43:44Z</time>
      </trkpt>
      <trkpt lat="46.01981" lon="7.12388">
        <ele>1190</ele>
        <time>2013-10-02T12:43:52Z</time>
      </trkpt>
      <trkpt lat="46.01973" lon="7.12391">
        <ele>1191</ele>
        <time>2013-10-02T12:44:00Z</time>
      </trkpt>
      <trkpt lat="46.01964" lon="7.12389">
        <ele>1191</ele>
        <time>2013-10-02T12:44:06Z</time>
      </trkpt>
      <trkpt lat="46.01954" lon="7.12391">
        <ele>1191</ele>
        <time>2013-10-02T12:44:15Z</time>
      </trkpt>
      <trkpt lat="46.01944" lon="7.12389">
        <ele>1192</ele>
        <time>2013-10-02T12:44:24Z</time>
      </trkpt>
      <trkpt lat="46.01929" lon="7.12387">
        <ele>1193</ele>
        <time>2013-10-02T12:44:38Z</time>
      </trkpt>
      <trkpt lat="46.01917" lon="7.12384">
        <ele>1193</ele>
        <time>2013-10-02T12:44:43Z</time>
      </trkpt>
      <trkpt lat="46.01907" lon="7.12381">
        <ele>1193</ele>
        <time>2013-10-02T12:44:50Z</time>
      </trkpt>
      <trkpt lat="46.01898" lon="7.12375">
        <ele>1194</ele>
        <time>2013-10-02T12:44:57Z</time>
      </trkpt>
      <trkpt lat="46.0189" lon="7.12369">
        <ele>1194</ele>
        <time>2013-10-02T12:45:04Z</time>
      </trkpt>
      <trkpt lat="46.01882" lon="7.12369">
        <ele>1195</ele>
        <time>2013-10-02T12:45:10Z</time>
      </trkpt>
      <trkpt lat="46.01871" lon="7.12366">
        <ele>1195</ele>
        <time>2013-10-02T12:45:18Z</time>
      </trkpt>
      <trkpt lat="46.01862" lon="7.12357">
        <ele>1196</ele>
        <time>2013-10-02T12:45:26Z</time>
      </trkpt>
      <trkpt lat="46.01855" lon="7.12348">
        <ele>1197</ele>
        <time>2013-10-02T12:45:34Z</time>
      </trkpt>
      <trkpt lat="46.01848" lon="7.12345">
        <ele>1198</ele>
        <time>2013-10-02T12:45:41Z</time>
      </trkpt>
      <trkpt lat="46.01839" lon="7.12342">
        <ele>1199</ele>
        <time>2013-10-02T12:45:50Z</time>
      </trkpt>
      <trkpt lat="46.01827" lon="7.12337">
        <ele>1200</ele>
        <time>2013-10-02T12:45:58Z</time>
      </trkpt>
      <trkpt lat="46.01815" lon="7.12336">
        <ele>1201</ele>
        <time>2013-10-02T12:46:05Z</time>
      </trkpt>
      <trkpt lat="46.01808" lon="7.12329">
        <ele>1202</ele>
        <time>2013-10-02T12:46:14Z</time>
      </trkpt>
      <trkpt lat="46.01797" lon="7.12324">
        <ele>1203</ele>
        <time>2013-10-02T12:46:22Z</time>
      </trkpt>
      <trkpt lat="46.01789" lon="7.12319">
        <ele>1204</ele>
        <time>2013-10-02T12:46:30Z</time>
      </trkpt>
      <trkpt lat="46.01782" lon="7.12313">
        <ele>1205</ele>
        <time>2013-10-02T12:46:38Z</time>
      </trkpt>
      <trkpt lat="46.01773" lon="7.12308">
        <ele>1206</ele>
        <time>2013-10-02T12:46:46Z</time>
      </trkpt>
      <trkpt lat="46.01761" lon="7.12303">
        <ele>1206</ele>
        <time>2013-10-02T12:46:53Z</time>
      </trkpt>
      <trkpt lat="46.01752" lon="7.12297">
        <ele>1207</ele>
        <time>2013-10-02T12:47:01Z</time>
      </trkpt>
      <trkpt lat="46.01747" lon="7.12289">
        <ele>1208</ele>
        <time>2013-10-02T12:47:09Z</time>
      </trkpt>
      <trkpt lat="46.01744" lon="7.12276">
        <ele>1209</ele>
        <time>2013-10-02T12:47:16Z</time>
      </trkpt>
      <trkpt lat="46.01741" lon="7.12266">
        <ele>1209</ele>
        <time>2013-10-02T12:47:23Z</time>
      </trkpt>
      <trkpt lat="46.01736" lon="7.12249">
        <ele>1210</ele>
        <time>2013-10-02T12:47:31Z</time>
      </trkpt>
      <trkpt lat="46.01735" lon="7.12237">
        <ele>1211</ele>
        <time>2013-10-02T12:47:38Z</time>
      </trkpt>
      <trkpt lat="46.0173" lon="7.12224">
        <ele>1211</ele>
        <time>2013-10-02T12:47:44Z</time>
      </trkpt>
      <trkpt lat="46.01727" lon="7.12212">
        <ele>1213</ele>
        <time>2013-10-02T12:47:52Z</time>
      </trkpt>
      <trkpt lat="46.01719" lon="7.12203">
        <ele>1214</ele>
        <time>2013-10-02T12:47:59Z</time>
      </trkpt>
      <trkpt lat="46.01707" lon="7.12196">
        <ele>1213</ele>
        <time>2013-10-02T12:48:07Z</time>
      </trkpt>
      <trkpt lat="46.01697" lon="7.1219">
        <ele>1213</ele>
        <time>2013-10-02T12:48:14Z</time>
      </trkpt>
      <trkpt lat="46.01702" lon="7.12155">
        <ele>1224</ele>
        <time>2013-10-02T12:49:28Z</time>
      </trkpt>
      <trkpt lat="46.01699" lon="7.12144">
        <ele>1227</ele>
        <time>2013-10-02T12:49:43Z</time>
      </trkpt>
      <trkpt lat="46.01694" lon="7.12133">
        <ele>1230</ele>
        <time>2013-10-02T12:50:17Z</time>
      </trkpt>
      <trkpt lat="46.01689" lon="7.12123">
        <ele>1233</ele>
        <time>2013-10-02T12:50:27Z</time>
      </trkpt>
      <trkpt lat="46.01683" lon="7.12111">
        <ele>1235</ele>
        <time>2013-10-02T12:50:38Z</time>
      </trkpt>
      <trkpt lat="46.01679" lon="7.12102">
        <ele>1238</ele>
        <time>2013-10-02T12:50:50Z</time>
      </trkpt>
      <trkpt lat="46.01671" lon="7.12092">
        <ele>1240</ele>
        <time>2013-10-02T12:50:59Z</time>
      </trkpt>
      <trkpt lat="46.01661" lon="7.12087">
        <ele>1244</ele>
        <time>2013-10-02T12:51:21Z</time>
      </trkpt>
      <trkpt lat="46.01651" lon="7.12092">
        <ele>1247</ele>
        <time>2013-10-02T12:51:34Z</time>
      </trkpt>
      <trkpt lat="46.01646" lon="7.12088">
        <ele>1252</ele>
        <time>2013-10-02T12:52:08Z</time>
      </trkpt>
      <trkpt lat="46.0165" lon="7.12068">
        <ele>1254</ele>
        <time>2013-10-02T12:52:18Z</time>
      </trkpt>
      <trkpt lat="46.01656" lon="7.12062">
        <ele>1257</ele>
        <time>2013-10-02T12:52:31Z</time>
      </trkpt>
      <trkpt lat="46.01656" lon="7.1205">
        <ele>1260</ele>
        <time>2013-10-02T12:52:43Z</time>
      </trkpt>
      <trkpt lat="46.01664" lon="7.12033">
        <ele>1265</ele>
        <time>2013-10-02T12:53:02Z</time>
      </trkpt>
      <trkpt lat="46.01665" lon="7.11998">
        <ele>1276</ele>
        <time>2013-10-02T12:53:48Z</time>
      </trkpt>
      <trkpt lat="46.01677" lon="7.11986">
        <ele>1279</ele>
        <time>2013-10-02T12:54:05Z</time>
      </trkpt>
      <trkpt lat="46.01668" lon="7.1198">
        <ele>1285</ele>
        <time>2013-10-02T12:54:26Z</time>
      </trkpt>
      <trkpt lat="46.0166" lon="7.11965">
        <ele>1289</ele>
        <time>2013-10-02T12:54:39Z</time>
      </trkpt>
      <trkpt lat="46.01654" lon="7.1196">
        <ele>1291</ele>
        <time>2013-10-02T12:54:54Z</time>
      </trkpt>
      <trkpt lat="46.01662" lon="7.11951">
        <ele>1294</ele>
        <time>2013-10-02T12:55:08Z</time>
      </trkpt>
      <trkpt lat="46.01653" lon="7.1194">
        <ele>1298</ele>
        <time>2013-10-02T12:55:21Z</time>
      </trkpt>
      <trkpt lat="46.01643" lon="7.11924">
        <ele>1304</ele>
        <time>2013-10-02T12:55:43Z</time>
      </trkpt>
      <trkpt lat="46.01647" lon="7.11925">
        <ele>1308</ele>
        <time>2013-10-02T12:56:07Z</time>
      </trkpt>
      <trkpt lat="46.0166" lon="7.11926">
        <ele>1310</ele>
        <time>2013-10-02T12:56:20Z</time>
      </trkpt>
      <trkpt lat="46.01668" lon="7.11922">
        <ele>1311</ele>
        <time>2013-10-02T12:56:29Z</time>
      </trkpt>
      <trkpt lat="46.01681" lon="7.11916">
        <ele>1310</ele>
        <time>2013-10-02T12:56:41Z</time>
      </trkpt>
      <trkpt lat="46.0169" lon="7.11906">
        <ele>1310</ele>
        <time>2013-10-02T12:56:50Z</time>
      </trkpt>
      <trkpt lat="46.01701" lon="7.11907">
        <ele>1309</ele>
        <time>2013-10-02T12:57:00Z</time>
      </trkpt>
      <trkpt lat="46.0171" lon="7.11902">
        <ele>1308</ele>
        <time>2013-10-02T12:57:12Z</time>
      </trkpt>
      <trkpt lat="46.01724" lon="7.11898">
        <ele>1308</ele>
        <time>2013-10-02T12:57:22Z</time>
      </trkpt>
      <trkpt lat="46.01735" lon="7.11899">
        <ele>1311</ele>
        <time>2013-10-02T12:57:33Z</time>
      </trkpt>
      <trkpt lat="46.01747" lon="7.11901">
        <ele>1312</ele>
        <time>2013-10-02T12:57:43Z</time>
      </trkpt>
      <trkpt lat="46.01757" lon="7.11906">
        <ele>1313</ele>
        <time>2013-10-02T12:57:56Z</time>
      </trkpt>
      <trkpt lat="46.01766" lon="7.11915">
        <ele>1315</ele>
        <time>2013-10-02T12:58:08Z</time>
      </trkpt>
      <trkpt lat="46.01775" lon="7.11918">
        <ele>1318</ele>
        <time>2013-10-02T12:58:19Z</time>
      </trkpt>
      <trkpt lat="46.01779" lon="7.11931">
        <ele>1319</ele>
        <time>2013-10-02T12:58:30Z</time>
      </trkpt>
      <trkpt lat="46.018" lon="7.11945">
        <ele>1322</ele>
        <time>2013-10-02T12:58:47Z</time>
      </trkpt>
      <trkpt lat="46.01804" lon="7.11967">
        <ele>1326</ele>
        <time>2013-10-02T12:59:58Z</time>
      </trkpt>
      <trkpt lat="46.01815" lon="7.11976">
        <ele>1328</ele>
        <time>2013-10-02T13:00:10Z</time>
      </trkpt>
      <trkpt lat="46.01832" lon="7.11994">
        <ele>1334</ele>
        <time>2013-10-02T13:00:49Z</time>
      </trkpt>
      <trkpt lat="46.01859" lon="7.12008">
        <ele>1340</ele>
        <time>2013-10-02T13:01:37Z</time>
      </trkpt>
      <trkpt lat="46.01872" lon="7.12005">
        <ele>1340</ele>
        <time>2013-10-02T13:01:49Z</time>
      </trkpt>
      <trkpt lat="46.01869" lon="7.11988">
        <ele>1346</ele>
        <time>2013-10-02T13:02:44Z</time>
      </trkpt>
      <trkpt lat="46.01859" lon="7.11972">
        <ele>1346</ele>
        <time>2013-10-02T13:02:56Z</time>
      </trkpt>
      <trkpt lat="46.01856" lon="7.11958">
        <ele>1346</ele>
        <time>2013-10-02T13:03:06Z</time>
      </trkpt>
      <trkpt lat="46.01846" lon="7.11946">
        <ele>1346</ele>
        <time>2013-10-02T13:03:15Z</time>
      </trkpt>
      <trkpt lat="46.01836" lon="7.11939">
        <ele>1346</ele>
        <time>2013-10-02T13:03:26Z</time>
      </trkpt>
      <trkpt lat="46.01829" lon="7.11919">
        <ele>1344</ele>
        <time>2013-10-02T13:03:43Z</time>
      </trkpt>
      <trkpt lat="46.01824" lon="7.11909">
        <ele>1344</ele>
        <time>2013-10-02T13:03:52Z</time>
      </trkpt>
      <trkpt lat="46.01823" lon="7.11894">
        <ele>1346</ele>
        <time>2013-10-02T13:04:04Z</time>
      </trkpt>
      <trkpt lat="46.01828" lon="7.1187">
        <ele>1349</ele>
        <time>2013-10-02T13:04:19Z</time>
      </trkpt>
      <trkpt lat="46.01829" lon="7.11853">
        <ele>1351</ele>
        <time>2013-10-02T13:04:35Z</time>
      </trkpt>
      <trkpt lat="46.01826" lon="7.11871">
        <ele>1356</ele>
        <time>2013-10-02T13:04:53Z</time>
      </trkpt>
      <trkpt lat="46.01835" lon="7.1186">
        <ele>1359</ele>
        <time>2013-10-02T13:05:06Z</time>
      </trkpt>
      <trkpt lat="46.01837" lon="7.11843">
        <ele>1361</ele>
        <time>2013-10-02T13:05:16Z</time>
      </trkpt>
      <trkpt lat="46.01837" lon="7.11826">
        <ele>1363</ele>
        <time>2013-10-02T13:05:25Z</time>
      </trkpt>
      <trkpt lat="46.01835" lon="7.11821">
        <ele>1366</ele>
        <time>2013-10-02T13:05:38Z</time>
      </trkpt>
      <trkpt lat="46.01834" lon="7.11831">
        <ele>1368</ele>
        <time>2013-10-02T13:05:57Z</time>
      </trkpt>
      <trkpt lat="46.01838" lon="7.11849">
        <ele>1371</ele>
        <time>2013-10-02T13:06:08Z</time>
      </trkpt>
      <trkpt lat="46.01849" lon="7.11848">
        <ele>1374</ele>
        <time>2013-10-02T13:06:27Z</time>
      </trkpt>
      <trkpt lat="46.01859" lon="7.11834">
        <ele>1378</ele>
        <time>2013-10-02T13:06:39Z</time>
      </trkpt>
      <trkpt lat="46.01855" lon="7.11815">
        <ele>1379</ele>
        <time>2013-10-02T13:06:50Z</time>
      </trkpt>
      <trkpt lat="46.01856" lon="7.11802">
        <ele>1383</ele>
        <time>2013-10-02T13:07:03Z</time>
      </trkpt>
      <trkpt lat="46.01865" lon="7.11805">
        <ele>1384</ele>
        <time>2013-10-02T13:07:18Z</time>
      </trkpt>
      <trkpt lat="46.01866" lon="7.11817">
        <ele>1387</ele>
        <time>2013-10-02T13:07:33Z</time>
      </trkpt>
      <trkpt lat="46.01872" lon="7.11829">
        <ele>1392</ele>
        <time>2013-10-02T13:07:58Z</time>
      </trkpt>
      <trkpt lat="46.01878" lon="7.11822">
        <ele>1394</ele>
        <time>2013-10-02T13:08:12Z</time>
      </trkpt>
      <trkpt lat="46.01889" lon="7.11817">
        <ele>1395</ele>
        <time>2013-10-02T13:08:27Z</time>
      </trkpt>
      <trkpt lat="46.01897" lon="7.11829">
        <ele>1397</ele>
        <time>2013-10-02T13:08:39Z</time>
      </trkpt>
      <trkpt lat="46.01911" lon="7.11839">
        <ele>1398</ele>
        <time>2013-10-02T13:08:58Z</time>
      </trkpt>
      <trkpt lat="46.01921" lon="7.11844">
        <ele>1397</ele>
        <time>2013-10-02T13:09:10Z</time>
      </trkpt>
      <trkpt lat="46.01933" lon="7.11844">
        <ele>1396</ele>
        <time>2013-10-02T13:09:24Z</time>
      </trkpt>
      <trkpt lat="46.01958" lon="7.1189">
        <ele>1397</ele>
        <time>2013-10-02T13:10:09Z</time>
      </trkpt>
      <trkpt lat="46.01972" lon="7.11895">
        <ele>1396</ele>
        <time>2013-10-02T13:10:22Z</time>
      </trkpt>
      <trkpt lat="46.01996" lon="7.11896">
        <ele>1400</ele>
        <time>2013-10-02T13:10:48Z</time>
      </trkpt>
      <trkpt lat="46.02014" lon="7.11909">
        <ele>1400</ele>
        <time>2013-10-02T13:11:03Z</time>
      </trkpt>
      <trkpt lat="46.02027" lon="7.11906">
        <ele>1400</ele>
        <time>2013-10-02T13:11:14Z</time>
      </trkpt>
      <trkpt lat="46.02041" lon="7.11904">
        <ele>1398</ele>
        <time>2013-10-02T13:11:26Z</time>
      </trkpt>
      <trkpt lat="46.02054" lon="7.11899">
        <ele>1399</ele>
        <time>2013-10-02T13:11:33Z</time>
      </trkpt>
      <trkpt lat="46.02058" lon="7.11887">
        <ele>1397</ele>
        <time>2013-10-02T13:11:44Z</time>
      </trkpt>
      <trkpt lat="46.02061" lon="7.11882">
        <ele>1395</ele>
        <time>2013-10-02T13:11:58Z</time>
      </trkpt>
      <trkpt lat="46.02065" lon="7.11893">
        <ele>1391</ele>
        <time>2013-10-02T13:12:20Z</time>
      </trkpt>
      <trkpt lat="46.02077" lon="7.11896">
        <ele>1389</ele>
        <time>2013-10-02T13:12:32Z</time>
      </trkpt>
      <trkpt lat="46.02086" lon="7.119">
        <ele>1389</ele>
        <time>2013-10-02T13:12:43Z</time>
      </trkpt>
      <trkpt lat="46.02096" lon="7.11905">
        <ele>1388</ele>
        <time>2013-10-02T13:12:54Z</time>
      </trkpt>
      <trkpt lat="46.02104" lon="7.1192">
        <ele>1389</ele>
        <time>2013-10-02T13:13:05Z</time>
      </trkpt>
      <trkpt lat="46.02119" lon="7.11937">
        <ele>1390</ele>
        <time>2013-10-02T13:13:16Z</time>
      </trkpt>
      <trkpt lat="46.02135" lon="7.11938">
        <ele>1390</ele>
        <time>2013-10-02T13:13:28Z</time>
      </trkpt>
      <trkpt lat="46.02149" lon="7.11939">
        <ele>1389</ele>
        <time>2013-10-02T13:13:48Z</time>
      </trkpt>
      <trkpt lat="46.02158" lon="7.11943">
        <ele>1390</ele>
        <time>2013-10-02T13:14:04Z</time>
      </trkpt>
      <trkpt lat="46.02167" lon="7.11941">
        <ele>1391</ele>
        <time>2013-10-02T13:14:16Z</time>
      </trkpt>
      <trkpt lat="46.02178" lon="7.11944">
        <ele>1391</ele>
        <time>2013-10-02T13:14:30Z</time>
      </trkpt>
      <trkpt lat="46.02193" lon="7.11969">
        <ele>1391</ele>
        <time>2013-10-02T13:14:42Z</time>
      </trkpt>
      <trkpt lat="46.02201" lon="7.11971">
        <ele>1394</ele>
        <time>2013-10-02T13:14:54Z</time>
      </trkpt>
      <trkpt lat="46.0221" lon="7.11962">
        <ele>1395</ele>
        <time>2013-10-02T13:15:08Z</time>
      </trkpt>
      <trkpt lat="46.02219" lon="7.11988">
        <ele>1397</ele>
        <time>2013-10-02T13:15:32Z</time>
      </trkpt>
      <trkpt lat="46.02232" lon="7.11996">
        <ele>1394</ele>
        <time>2013-10-02T13:15:44Z</time>
      </trkpt>
      <trkpt lat="46.02241" lon="7.12015">
        <ele>1391</ele>
        <time>2013-10-02T13:15:56Z</time>
      </trkpt>
      <trkpt lat="46.02255" lon="7.12019">
        <ele>1389</ele>
        <time>2013-10-02T13:16:08Z</time>
      </trkpt>
      <trkpt lat="46.02266" lon="7.12025">
        <ele>1390</ele>
        <time>2013-10-02T13:16:17Z</time>
      </trkpt>
      <trkpt lat="46.02277" lon="7.12026">
        <ele>1392</ele>
        <time>2013-10-02T13:16:26Z</time>
      </trkpt>
      <trkpt lat="46.02284" lon="7.12032">
        <ele>1395</ele>
        <time>2013-10-02T13:16:38Z</time>
      </trkpt>
      <trkpt lat="46.02298" lon="7.12037">
        <ele>1396</ele>
        <time>2013-10-02T13:16:49Z</time>
      </trkpt>
      <trkpt lat="46.02305" lon="7.12039">
        <ele>1399</ele>
        <time>2013-10-02T13:17:00Z</time>
      </trkpt>
      <trkpt lat="46.02312" lon="7.12051">
        <ele>1401</ele>
        <time>2013-10-02T13:17:11Z</time>
      </trkpt>
      <trkpt lat="46.0232" lon="7.12056">
        <ele>1403</ele>
        <time>2013-10-02T13:17:20Z</time>
      </trkpt>
      <trkpt lat="46.0233" lon="7.12066">
        <ele>1403</ele>
        <time>2013-10-02T13:17:29Z</time>
      </trkpt>
      <trkpt lat="46.0234" lon="7.12067">
        <ele>1405</ele>
        <time>2013-10-02T13:17:49Z</time>
      </trkpt>
      <trkpt lat="46.02352" lon="7.12073">
        <ele>1408</ele>
        <time>2013-10-02T13:17:58Z</time>
      </trkpt>
      <trkpt lat="46.02362" lon="7.12075">
        <ele>1410</ele>
        <time>2013-10-02T13:18:08Z</time>
      </trkpt>
      <trkpt lat="46.02373" lon="7.12073">
        <ele>1412</ele>
        <time>2013-10-02T13:18:18Z</time>
      </trkpt>
      <trkpt lat="46.02382" lon="7.12066">
        <ele>1414</ele>
        <time>2013-10-02T13:18:36Z</time>
      </trkpt>
      <trkpt lat="46.02392" lon="7.12076">
        <ele>1416</ele>
        <time>2013-10-02T13:18:45Z</time>
      </trkpt>
      <trkpt lat="46.02397" lon="7.12084">
        <ele>1416</ele>
        <time>2013-10-02T13:18:54Z</time>
      </trkpt>
      <trkpt lat="46.02404" lon="7.12092">
        <ele>1418</ele>
        <time>2013-10-02T13:19:04Z</time>
      </trkpt>
      <trkpt lat="46.02416" lon="7.12099">
        <ele>1420</ele>
        <time>2013-10-02T13:19:13Z</time>
      </trkpt>
      <trkpt lat="46.02425" lon="7.12102">
        <ele>1419</ele>
        <time>2013-10-02T13:19:20Z</time>
      </trkpt>
      <trkpt lat="46.02435" lon="7.12106">
        <ele>1420</ele>
        <time>2013-10-02T13:19:28Z</time>
      </trkpt>
      <trkpt lat="46.02442" lon="7.12117">
        <ele>1422</ele>
        <time>2013-10-02T13:19:38Z</time>
      </trkpt>
      <trkpt lat="46.02447" lon="7.12123">
        <ele>1423</ele>
        <time>2013-10-02T13:19:49Z</time>
      </trkpt>
      <trkpt lat="46.02451" lon="7.12136">
        <ele>1424</ele>
        <time>2013-10-02T13:19:58Z</time>
      </trkpt>
      <trkpt lat="46.02456" lon="7.12146">
        <ele>1426</ele>
        <time>2013-10-02T13:20:06Z</time>
      </trkpt>
      <trkpt lat="46.02463" lon="7.12156">
        <ele>1428</ele>
        <time>2013-10-02T13:20:16Z</time>
      </trkpt>
      <trkpt lat="46.02476" lon="7.12165">
        <ele>1430</ele>
        <time>2013-10-02T13:20:29Z</time>
      </trkpt>
      <trkpt lat="46.02483" lon="7.12171">
        <ele>1431</ele>
        <time>2013-10-02T13:20:39Z</time>
      </trkpt>
      <trkpt lat="46.02495" lon="7.12175">
        <ele>1433</ele>
        <time>2013-10-02T13:20:49Z</time>
      </trkpt>
      <trkpt lat="46.02512" lon="7.12174">
        <ele>1437</ele>
        <time>2013-10-02T13:21:10Z</time>
      </trkpt>
      <trkpt lat="46.02529" lon="7.12165">
        <ele>1440</ele>
        <time>2013-10-02T13:21:25Z</time>
      </trkpt>
      <trkpt lat="46.02546" lon="7.12145">
        <ele>1443</ele>
        <time>2013-10-02T13:21:40Z</time>
      </trkpt>
      <trkpt lat="46.02561" lon="7.12132">
        <ele>1446</ele>
        <time>2013-10-02T13:21:58Z</time>
      </trkpt>
      <trkpt lat="46.02571" lon="7.12127">
        <ele>1449</ele>
        <time>2013-10-02T13:22:15Z</time>
      </trkpt>
      <trkpt lat="46.02587" lon="7.1212">
        <ele>1452</ele>
        <time>2013-10-02T13:22:31Z</time>
      </trkpt>
      <trkpt lat="46.02601" lon="7.12117">
        <ele>1455</ele>
        <time>2013-10-02T13:22:47Z</time>
      </trkpt>
      <trkpt lat="46.02595" lon="7.12115">
        <ele>1457</ele>
        <time>2013-10-02T13:23:00Z</time>
      </trkpt>
      <trkpt lat="46.02581" lon="7.12118">
        <ele>1458</ele>
        <time>2013-10-02T13:23:11Z</time>
      </trkpt>
      <trkpt lat="46.02572" lon="7.12124">
        <ele>1459</ele>
        <time>2013-10-02T13:23:22Z</time>
      </trkpt>
      <trkpt lat="46.02564" lon="7.1214">
        <ele>1461</ele>
        <time>2013-10-02T13:23:33Z</time>
      </trkpt>
      <trkpt lat="46.02556" lon="7.12156">
        <ele>1462</ele>
        <time>2013-10-02T13:23:43Z</time>
      </trkpt>
      <trkpt lat="46.02551" lon="7.12168">
        <ele>1462</ele>
        <time>2013-10-02T13:23:52Z</time>
      </trkpt>
      <trkpt lat="46.02544" lon="7.12179">
        <ele>1464</ele>
        <time>2013-10-02T13:24:02Z</time>
      </trkpt>
      <trkpt lat="46.02538" lon="7.12192">
        <ele>1465</ele>
        <time>2013-10-02T13:24:11Z</time>
      </trkpt>
      <trkpt lat="46.02537" lon="7.12205">
        <ele>1466</ele>
        <time>2013-10-02T13:24:19Z</time>
      </trkpt>
      <trkpt lat="46.02539" lon="7.12221">
        <ele>1466</ele>
        <time>2013-10-02T13:24:28Z</time>
      </trkpt>
      <trkpt lat="46.0254" lon="7.12239">
        <ele>1466</ele>
        <time>2013-10-02T13:24:37Z</time>
      </trkpt>
      <trkpt lat="46.02547" lon="7.12255">
        <ele>1467</ele>
        <time>2013-10-02T13:24:50Z</time>
      </trkpt>
      <trkpt lat="46.02556" lon="7.12256">
        <ele>1469</ele>
        <time>2013-10-02T13:27:39Z</time>
      </trkpt>
      <trkpt lat="46.02556" lon="7.12255">
        <ele>1470</ele>
        <time>2013-10-02T13:27:41Z</time>
      </trkpt>
      <trkpt lat="46.02573" lon="7.12241">
        <ele>1474</ele>
      </trkpt>
      <trkpt lat="46.02588" lon="7.12247">
        <ele>1477</ele>
      </trkpt>
      <trkpt lat="46.02608" lon="7.12242">
        <ele>1481</ele>
      </trkpt>
      <trkpt lat="46.02623" lon="7.12222">
        <ele>1481</ele>
      </trkpt>
      <trkpt lat="46.02633" lon="7.12205">
        <ele>1480</ele>
      </trkpt>
      <trkpt lat="46.02651" lon="7.12193">
        <ele>1480</ele>
      </trkpt>
      <trkpt lat="46.02662" lon="7.12178">
        <ele>1478</ele>
      </trkpt>
      <trkpt lat="46.02673" lon="7.1217">
        <ele>1478</ele>
      </trkpt>
      <trkpt lat="46.02689" lon="7.12155">
        <ele>1481</ele>
      </trkpt>
      <trkpt lat="46.02704" lon="7.12127">
        <ele>1481</ele>
      </trkpt>
      <trkpt lat="46.02727" lon="7.1211">
        <ele>1482</ele>
      </trkpt>
      <trkpt lat="46.02737" lon="7.12085">
        <ele>1479</ele>
      </trkpt>
      <trkpt lat="46.02747" lon="7.12065">
        <ele>1479</ele>
      </trkpt>
      <trkpt lat="46.02769" lon="7.12048">
        <ele>1481</ele>
      </trkpt>
      <trkpt lat="46.02783" lon="7.12047">
        <ele>1484</ele>
      </trkpt>
      <trkpt lat="46.02798" lon="7.12043">
        <ele>1485</ele>
      </trkpt>
      <trkpt lat="46.02816" lon="7.12031">
        <ele>1485</ele>
      </trkpt>
      <trkpt lat="46.02832" lon="7.11997">
        <ele>1478</ele>
      </trkpt>
      <trkpt lat="46.02834" lon="7.11965">
        <ele>1478</ele>
      </trkpt>
      <trkpt lat="46.02833" lon="7.11932">
        <ele>1478</ele>
      </trkpt>
      <trkpt lat="46.02836" lon="7.11897">
        <ele>1477</ele>
      </trkpt>
      <trkpt lat="46.02841" lon="7.11868">
        <ele>1476</ele>
      </trkpt>
      <trkpt lat="46.02855" lon="7.11847">
        <ele>1477</ele>
      </trkpt>
      <trkpt lat="46.0287" lon="7.11829">
        <ele>1478</ele>
      </trkpt>
      <trkpt lat="46.02887" lon="7.11814">
        <ele>1478</ele>
      </trkpt>
      <trkpt lat="46.02915" lon="7.11794">
        <ele>1479</ele>
      </trkpt>
      <trkpt lat="46.02931" lon="7.11736">
        <ele>1474</ele>
      </trkpt>
      <trkpt lat="46.02938" lon="7.1173">
        <ele>1474</ele>
      </trkpt>
      <trkpt lat="46.02955" lon="7.11713">
        <ele>1473</ele>
      </trkpt>
      <trkpt lat="46.02969" lon="7.11706">
        <ele>1473</ele>
      </trkpt>
      <trkpt lat="46.0298" lon="7.11703">
        <ele>1474</ele>
      </trkpt>
      <trkpt lat="46.02997" lon="7.11687">
        <ele>1473</ele>
      </trkpt>
      <trkpt lat="46.03007" lon="7.11664">
        <ele>1472</ele>
      </trkpt>
      <trkpt lat="46.03018" lon="7.1165">
        <ele>1475</ele>
      </trkpt>
      <trkpt lat="46.03027" lon="7.1162">
        <ele>1476</ele>
      </trkpt>
      <trkpt lat="46.03029" lon="7.1159">
        <ele>1475</ele>
      </trkpt>
      <trkpt lat="46.0304" lon="7.11577">
        <ele>1475</ele>
      </trkpt>
      <trkpt lat="46.03048" lon="7.11552">
        <ele>1475</ele>
      </trkpt>
      <trkpt lat="46.03052" lon="7.11529">
        <ele>1475</ele>
      </trkpt>
      <trkpt lat="46.03063" lon="7.11496">
        <ele>1474</ele>
      </trkpt>
      <trkpt lat="46.03065" lon="7.11465">
        <ele>1474</ele>
      </trkpt>
      <trkpt lat="46.0307" lon="7.11438">
        <ele>1473</ele>
      </trkpt>
      <trkpt lat="46.03081" lon="7.11409">
        <ele>1473</ele>
      </trkpt>
      <trkpt lat="46.03096" lon="7.1139">
        <ele>1477</ele>
      </trkpt>
      <trkpt lat="46.03101" lon="7.11364">
        <ele>1478</ele>
      </trkpt>
      <trkpt lat="46.03145" lon="7.11194">
        <ele>1489</ele>
      </trkpt>
      <trkpt lat="46.03151" lon="7.11171">
        <ele>1490</ele>
      </trkpt>
      <trkpt lat="46.03157" lon="7.11147">
        <ele>1490</ele>
      </trkpt>
      <trkpt lat="46.03164" lon="7.11133">
        <ele>1491</ele>
      </trkpt>
      <trkpt lat="46.03166" lon="7.11115">
        <ele>1490</ele>
      </trkpt>
      <trkpt lat="46.03166" lon="7.11098">
        <ele>1488</ele>
      </trkpt>
      <trkpt lat="46.03173" lon="7.11074">
        <ele>1489</ele>
      </trkpt>
      <trkpt lat="46.03172" lon="7.11045">
        <ele>1488</ele>
      </trkpt>
      <trkpt lat="46.03182" lon="7.11024">
        <ele>1490</ele>
      </trkpt>
      <trkpt lat="46.03194" lon="7.11004">
        <ele>1491</ele>
      </trkpt>
      <trkpt lat="46.03195" lon="7.10983">
        <ele>1491</ele>
      </trkpt>
      <trkpt lat="46.03191" lon="7.10958">
        <ele>1489</ele>
      </trkpt>
      <trkpt lat="46.03185" lon="7.10939">
        <ele>1488</ele>
      </trkpt>
      <trkpt lat="46.03184" lon="7.10911">
        <ele>1488</ele>
      </trkpt>
      <trkpt lat="46.03195" lon="7.1088">
        <ele>1490</ele>
      </trkpt>
      <trkpt lat="46.03194" lon="7.10863">
        <ele>1491</ele>
      </trkpt>
      <trkpt lat="46.032" lon="7.10835">
        <ele>1492</ele>
      </trkpt>
      <trkpt lat="46.03181" lon="7.10799">
        <ele>1496</ele>
      </trkpt>
      <trkpt lat="46.03182" lon="7.1078">
        <ele>1499</ele>
      </trkpt>
      <trkpt lat="46.03194" lon="7.10767">
        <ele>1502</ele>
      </trkpt>
      <trkpt lat="46.03194" lon="7.1075">
        <ele>1504</ele>
      </trkpt>
      <trkpt lat="46.03255" lon="7.10624">
        <ele>1506</ele>
      </trkpt>
      <trkpt lat="46.03258" lon="7.10601">
        <ele>1504</ele>
      </trkpt>
      <trkpt lat="46.03246" lon="7.10588">
        <ele>1502</ele>
      </trkpt>
      <trkpt lat="46.03244" lon="7.10563">
        <ele>1501</ele>
      </trkpt>
      <trkpt lat="46.03255" lon="7.10539">
        <ele>1502</ele>
      </trkpt>
      <trkpt lat="46.03259" lon="7.1052">
        <ele>1502</ele>
      </trkpt>
      <trkpt lat="46.03263" lon="7.10496">
        <ele>1503</ele>
      </trkpt>
      <trkpt lat="46.03271" lon="7.10475">
        <ele>1506</ele>
      </trkpt>
      <trkpt lat="46.03271" lon="7.10446">
        <ele>1508</ele>
      </trkpt>
      <trkpt lat="46.03272" lon="7.10431">
        <ele>1509</ele>
      </trkpt>
      <trkpt lat="46.03279" lon="7.10416">
        <ele>1511</ele>
      </trkpt>
      <trkpt lat="46.03297" lon="7.10404">
        <ele>1512</ele>
      </trkpt>
      <trkpt lat="46.03314" lon="7.10395">
        <ele>1511</ele>
      </trkpt>
      <trkpt lat="46.03332" lon="7.10388">
        <ele>1511</ele>
      </trkpt>
      <trkpt lat="46.03343" lon="7.10375">
        <ele>1510</ele>
      </trkpt>
      <trkpt lat="46.03355" lon="7.10358">
        <ele>1509</ele>
      </trkpt>
      <trkpt lat="46.03363" lon="7.10328">
        <ele>1506</ele>
      </trkpt>
      <trkpt lat="46.03355" lon="7.10311">
        <ele>1505</ele>
      </trkpt>
      <trkpt lat="46.0336" lon="7.10267">
        <ele>1504</ele>
      </trkpt>
      <trkpt lat="46.03389" lon="7.10236">
        <ele>1498</ele>
      </trkpt>
      <trkpt lat="46.03399" lon="7.10226">
        <ele>1496</ele>
      </trkpt>
      <trkpt lat="46.03404" lon="7.10209">
        <ele>1494</ele>
      </trkpt>
      <trkpt lat="46.03412" lon="7.10183">
        <ele>1490</ele>
      </trkpt>
      <trkpt lat="46.0342" lon="7.10157">
        <ele>1486</ele>
      </trkpt>
      <trkpt lat="46.0342" lon="7.10131">
        <ele>1485</ele>
      </trkpt>
      <trkpt lat="46.03414" lon="7.10104">
        <ele>1484</ele>
      </trkpt>
      <trkpt lat="46.03411" lon="7.10079">
        <ele>1484</ele>
      </trkpt>
      <trkpt lat="46.03411" lon="7.10061">
        <ele>1482</ele>
      </trkpt>
      <trkpt lat="46.03419" lon="7.10025">
        <ele>1476</ele>
      </trkpt>
      <trkpt lat="46.03423" lon="7.09996">
        <ele>1473</ele>
      </trkpt>
      <trkpt lat="46.03421" lon="7.09971">
        <ele>1472</ele>
      </trkpt>
      <trkpt lat="46.03411" lon="7.09951">
        <ele>1475</ele>
      </trkpt>
      <trkpt lat="46.03415" lon="7.09925">
        <ele>1473</ele>
      </trkpt>
      <trkpt lat="46.03433" lon="7.09911">
        <ele>1468</ele>
      </trkpt>
      <trkpt lat="46.03449" lon="7.09891">
        <ele>1466</ele>
      </trkpt>
      <trkpt lat="46.03438" lon="7.0979">
        <ele>1493</ele>
      </trkpt>
      <trkpt lat="46.03444" lon="7.09765">
        <ele>1499</ele>
      </trkpt>
      <trkpt lat="46.03459" lon="7.09748">
        <ele>1500</ele>
      </trkpt>
      <trkpt lat="46.03469" lon="7.09733">
        <ele>1502</ele>
      </trkpt>
      <trkpt lat="46.0348" lon="7.09719">
        <ele>1503</ele>
      </trkpt>
      <trkpt lat="46.03497" lon="7.09708">
        <ele>1501</ele>
      </trkpt>
      <trkpt lat="46.03518" lon="7.09705">
        <ele>1491</ele>
      </trkpt>
      <trkpt lat="46.03531" lon="7.09697">
        <ele>1486</ele>
      </trkpt>
      <trkpt lat="46.03547" lon="7.09684">
        <ele>1480</ele>
      </trkpt>
      <trkpt lat="46.03549" lon="7.09667">
        <ele>1483</ele>
      </trkpt>
      <trkpt lat="46.03561" lon="7.09663">
        <ele>1476</ele>
      </trkpt>
      <trkpt lat="46.03576" lon="7.09644">
        <ele>1471</ele>
      </trkpt>
      <trkpt lat="46.03582" lon="7.09626">
        <ele>1471</ele>
      </trkpt>
      <trkpt lat="46.03592" lon="7.0961">
        <ele>1471</ele>
      </trkpt>
      <trkpt lat="46.03601" lon="7.0959">
        <ele>1472</ele>
      </trkpt>
      <trkpt lat="46.03624" lon="7.09562">
        <ele>1469</ele>
      </trkpt>
      <trkpt lat="46.03642" lon="7.09561">
        <ele>1461</ele>
      </trkpt>
      <trkpt lat="46.03662" lon="7.09565">
        <ele>1451</ele>
      </trkpt>
      <trkpt lat="46.03679" lon="7.09565">
        <ele>1448</ele>
      </trkpt>
      <trkpt lat="46.03691" lon="7.09562">
        <ele>1447</ele>
      </trkpt>
      <trkpt lat="46.03707" lon="7.0956">
        <ele>1446</ele>
      </trkpt>
      <trkpt lat="46.0372" lon="7.09555">
        <ele>1446</ele>
      </trkpt>
      <trkpt lat="46.03737" lon="7.09551">
        <ele>1445</ele>
      </trkpt>
      <trkpt lat="46.0375" lon="7.09543">
        <ele>1444</ele>
      </trkpt>
      <trkpt lat="46.03762" lon="7.09535">
        <ele>1443</ele>
      </trkpt>
      <trkpt lat="46.03776" lon="7.09515">
        <ele>1444</ele>
      </trkpt>
      <trkpt lat="46.03787" lon="7.09508">
        <ele>1442</ele>
      </trkpt>
      <trkpt lat="46.03797" lon="7.09499">
        <ele>1442</ele>
      </trkpt>
      <trkpt lat="46.03825" lon="7.095">
        <ele>1437</ele>
      </trkpt>
      <trkpt lat="46.03844" lon="7.09502">
        <ele>1433</ele>
      </trkpt>
      <trkpt lat="46.03861" lon="7.09496">
        <ele>1430</ele>
      </trkpt>
      <trkpt lat="46.0388" lon="7.09489">
        <ele>1426</ele>
      </trkpt>
      <trkpt lat="46.03894" lon="7.09473">
        <ele>1425</ele>
      </trkpt>
      <trkpt lat="46.03907" lon="7.09461">
        <ele>1423</ele>
      </trkpt>
      <trkpt lat="46.03928" lon="7.09451">
        <ele>1419</ele>
      </trkpt>
      <trkpt lat="46.03938" lon="7.09439">
        <ele>1418</ele>
      </trkpt>
      <trkpt lat="46.0396" lon="7.09419">
        <ele>1415</ele>
      </trkpt>
      <trkpt lat="46.03974" lon="7.0941">
        <ele>1413</ele>
      </trkpt>
      <trkpt lat="46.03988" lon="7.09397">
        <ele>1411</ele>
      </trkpt>
      <trkpt lat="46.03996" lon="7.09381">
        <ele>1411</ele>
      </trkpt>
      <trkpt lat="46.03998" lon="7.09363">
        <ele>1411</ele>
      </trkpt>
      <trkpt lat="46.04001" lon="7.09343">
        <ele>1412</ele>
      </trkpt>
      <trkpt lat="46.04002" lon="7.09324">
        <ele>1415</ele>
      </trkpt>
      <trkpt lat="46.04015" lon="7.09297">
        <ele>1417</ele>
      </trkpt>
      <trkpt lat="46.04035" lon="7.09276">
        <ele>1416</ele>
      </trkpt>
      <trkpt lat="46.0405" lon="7.09259">
        <ele>1415</ele>
      </trkpt>
      <trkpt lat="46.04063" lon="7.09245">
        <ele>1414</ele>
      </trkpt>
      <trkpt lat="46.04072" lon="7.09229">
        <ele>1415</ele>
      </trkpt>
      <trkpt lat="46.04079" lon="7.09212">
        <ele>1416</ele>
      </trkpt>
      <trkpt lat="46.04085" lon="7.09199">
        <ele>1416</ele>
      </trkpt>
      <trkpt lat="46.04093" lon="7.09186">
        <ele>1416</ele>
      </trkpt>
      <trkpt lat="46.04099" lon="7.09171">
        <ele>1417</ele>
      </trkpt>
      <trkpt lat="46.04131" lon="7.09131">
        <ele>1415</ele>
      </trkpt>
      <trkpt lat="46.04148" lon="7.09098">
        <ele>1415</ele>
      </trkpt>
      <trkpt lat="46.04154" lon="7.09083">
        <ele>1415</ele>
      </trkpt>
      <trkpt lat="46.04161" lon="7.09069">
        <ele>1416</ele>
      </trkpt>
      <trkpt lat="46.04169" lon="7.09053">
        <ele>1417</ele>
      </trkpt>
      <trkpt lat="46.04179" lon="7.09036">
        <ele>1419</ele>
      </trkpt>
      <trkpt lat="46.04189" lon="7.09024">
        <ele>1418</ele>
      </trkpt>
      <trkpt lat="46.04205" lon="7.09007">
        <ele>1416</ele>
      </trkpt>
      <trkpt lat="46.04216" lon="7.08996">
        <ele>1414</ele>
      </trkpt>
      <trkpt lat="46.04228" lon="7.08989">
        <ele>1411</ele>
      </trkpt>
      <trkpt lat="46.04243" lon="7.08982">
        <ele>1406</ele>
      </trkpt>
      <trkpt lat="46.04254" lon="7.08968">
        <ele>1406</ele>
      </trkpt>
      <trkpt lat="46.04259" lon="7.0895">
        <ele>1410</ele>
      </trkpt>
      <trkpt lat="46.04267" lon="7.08934">
        <ele>1413</ele>
      </trkpt>
      <trkpt lat="46.04278" lon="7.08913">
        <ele>1415</ele>
      </trkpt>
      <trkpt lat="46.04292" lon="7.08896">
        <ele>1416</ele>
      </trkpt>
      <trkpt lat="46.04307" lon="7.08891">
        <ele>1413</ele>
      </trkpt>
      <trkpt lat="46.04328" lon="7.08892">
        <ele>1406</ele>
      </trkpt>
      <trkpt lat="46.04348" lon="7.08886">
        <ele>1404</ele>
      </trkpt>
      <trkpt lat="46.04363" lon="7.0888">
        <ele>1402</ele>
      </trkpt>
      <trkpt lat="46.04371" lon="7.08869">
        <ele>1403</ele>
      </trkpt>
      <trkpt lat="46.04383" lon="7.08866">
        <ele>1401</ele>
      </trkpt>
      <trkpt lat="46.04397" lon="7.08855">
        <ele>1400</ele>
      </trkpt>
      <trkpt lat="46.04403" lon="7.08836">
        <ele>1401</ele>
      </trkpt>
      <trkpt lat="46.04404" lon="7.08814">
        <ele>1406</ele>
      </trkpt>
      <trkpt lat="46.04409" lon="7.08797">
        <ele>1408</ele>
      </trkpt>
      <trkpt lat="46.04419" lon="7.0878">
        <ele>1410</ele>
      </trkpt>
      <trkpt lat="46.04432" lon="7.08769">
        <ele>1411</ele>
      </trkpt>
      <trkpt lat="46.04444" lon="7.08771">
        <ele>1409</ele>
      </trkpt>
      <trkpt lat="46.04462" lon="7.08759">
        <ele>1409</ele>
      </trkpt>
      <trkpt lat="46.04477" lon="7.08741">
        <ele>1410</ele>
      </trkpt>
      <trkpt lat="46.04496" lon="7.08739">
        <ele>1407</ele>
      </trkpt>
      <trkpt lat="46.04524" lon="7.08748">
        <ele>1398</ele>
      </trkpt>
      <trkpt lat="46.04542" lon="7.08756">
        <ele>1392</ele>
      </trkpt>
      <trkpt lat="46.04554" lon="7.0875">
        <ele>1390</ele>
      </trkpt>
      <trkpt lat="46.04563" lon="7.08733">
        <ele>1390</ele>
      </trkpt>
      <trkpt lat="46.0457" lon="7.08715">
        <ele>1390</ele>
      </trkpt>
      <trkpt lat="46.04582" lon="7.08706">
        <ele>1388</ele>
      </trkpt>
      <trkpt lat="46.04592" lon="7.08698">
        <ele>1385</ele>
      </trkpt>
      <trkpt lat="46.04604" lon="7.08681">
        <ele>1383</ele>
      </trkpt>
      <trkpt lat="46.0461" lon="7.08666">
        <ele>1382</ele>
      </trkpt>
      <trkpt lat="46.04624" lon="7.08642">
        <ele>1380</ele>
      </trkpt>
      <trkpt lat="46.04635" lon="7.08626">
        <ele>1378</ele>
      </trkpt>
      <trkpt lat="46.04647" lon="7.08605">
        <ele>1377</ele>
      </trkpt>
      <trkpt lat="46.04653" lon="7.08588">
        <ele>1377</ele>
      </trkpt>
      <trkpt lat="46.04663" lon="7.08574">
        <ele>1376</ele>
      </trkpt>
      <trkpt lat="46.04672" lon="7.0856">
        <ele>1377</ele>
      </trkpt>
      <trkpt lat="46.04686" lon="7.08545">
        <ele>1378</ele>
      </trkpt>
      <trkpt lat="46.04698" lon="7.08543">
        <ele>1375</ele>
      </trkpt>
      <trkpt lat="46.04712" lon="7.08554">
        <ele>1369</ele>
      </trkpt>
      <trkpt lat="46.04727" lon="7.08551">
        <ele>1366</ele>
      </trkpt>
      <trkpt lat="46.04742" lon="7.08558">
        <ele>1361</ele>
      </trkpt>
      <trkpt lat="46.04749" lon="7.08541">
        <ele>1364</ele>
      </trkpt>
      <trkpt lat="46.04763" lon="7.08521">
        <ele>1364</ele>
      </trkpt>
      <trkpt lat="46.04776" lon="7.08516">
        <ele>1361</ele>
      </trkpt>
      <trkpt lat="46.04795" lon="7.08507">
        <ele>1356</ele>
      </trkpt>
      <trkpt lat="46.04806" lon="7.08488">
        <ele>1353</ele>
      </trkpt>
      <trkpt lat="46.04826" lon="7.08472">
        <ele>1345</ele>
      </trkpt>
      <trkpt lat="46.0484" lon="7.08459">
        <ele>1339</ele>
      </trkpt>
      <trkpt lat="46.04831" lon="7.08438">
        <ele>1342</ele>
      </trkpt>
      <trkpt lat="46.04825" lon="7.08419">
        <ele>1344</ele>
      </trkpt>
      <trkpt lat="46.04821" lon="7.08398">
        <ele>1345</ele>
      </trkpt>
      <trkpt lat="46.0481" lon="7.08332">
        <ele>1348</ele>
      </trkpt>
      <trkpt lat="46.04815" lon="7.08317">
        <ele>1351</ele>
      </trkpt>
      <trkpt lat="46.04829" lon="7.08295">
        <ele>1351</ele>
      </trkpt>
      <trkpt lat="46.04839" lon="7.08288">
        <ele>1350</ele>
      </trkpt>
      <trkpt lat="46.04855" lon="7.08282">
        <ele>1348</ele>
      </trkpt>
      <trkpt lat="46.04867" lon="7.08279">
        <ele>1345</ele>
      </trkpt>
      <trkpt lat="46.04882" lon="7.08265">
        <ele>1345</ele>
      </trkpt>
      <trkpt lat="46.04893" lon="7.08261">
        <ele>1344</ele>
      </trkpt>
      <trkpt lat="46.04904" lon="7.08256">
        <ele>1342</ele>
      </trkpt>
      <trkpt lat="46.04915" lon="7.08245">
        <ele>1341</ele>
      </trkpt>
      <trkpt lat="46.04919" lon="7.08223">
        <ele>1340</ele>
      </trkpt>
      <trkpt lat="46.04916" lon="7.08202">
        <ele>1342</ele>
      </trkpt>
      <trkpt lat="46.04917" lon="7.08185">
        <ele>1342</ele>
      </trkpt>
      <trkpt lat="46.04924" lon="7.08169">
        <ele>1340</ele>
      </trkpt>
      <trkpt lat="46.04937" lon="7.0816">
        <ele>1336</ele>
      </trkpt>
      <trkpt lat="46.04944" lon="7.08147">
        <ele>1334</ele>
      </trkpt>
      <trkpt lat="46.04959" lon="7.08092">
        <ele>1329</ele>
      </trkpt>
      <trkpt lat="46.04953" lon="7.08067">
        <ele>1336</ele>
      </trkpt>
      <trkpt lat="46.04952" lon="7.0805">
        <ele>1340</ele>
      </trkpt>
      <trkpt lat="46.04957" lon="7.08022">
        <ele>1343</ele>
      </trkpt>
      <trkpt lat="46.04958" lon="7.0799">
        <ele>1349</ele>
      </trkpt>
      <trkpt lat="46.0496" lon="7.0797">
        <ele>1353</ele>
      </trkpt>
      <trkpt lat="46.04976" lon="7.07937">
        <ele>1353</ele>
      </trkpt>
      <trkpt lat="46.04986" lon="7.07914">
        <ele>1353</ele>
      </trkpt>
      <trkpt lat="46.04995" lon="7.079">
        <ele>1351</ele>
      </trkpt>
      <trkpt lat="46.05014" lon="7.07866">
        <ele>1349</ele>
      </trkpt>
      <trkpt lat="46.0501" lon="7.07842">
        <ele>1356</ele>
      </trkpt>
      <trkpt lat="46.0502" lon="7.07825">
        <ele>1355</ele>
      </trkpt>
      <trkpt lat="46.05034" lon="7.07806">
        <ele>1353</ele>
      </trkpt>
      <trkpt lat="46.05056" lon="7.07789">
        <ele>1346</ele>
      </trkpt>
      <trkpt lat="46.05057" lon="7.07774">
        <ele>1350</ele>
      </trkpt>
      <trkpt lat="46.05059" lon="7.07759">
        <ele>1354</ele>
      </trkpt>
      <trkpt lat="46.05067" lon="7.07748">
        <ele>1353</ele>
      </trkpt>
      <trkpt lat="46.05078" lon="7.0774">
        <ele>1350</ele>
      </trkpt>
      <trkpt lat="46.05087" lon="7.07728">
        <ele>1350</ele>
      </trkpt>
      <trkpt lat="46.05092" lon="7.07706">
        <ele>1356</ele>
      </trkpt>
      <trkpt lat="46.05109" lon="7.07692">
        <ele>1355</ele>
      </trkpt>
      <trkpt lat="46.05123" lon="7.07681">
        <ele>1352</ele>
      </trkpt>
      <trkpt lat="46.0513" lon="7.07668">
        <ele>1353</ele>
      </trkpt>
      <trkpt lat="46.05136" lon="7.07638">
        <ele>1358</ele>
      </trkpt>
      <trkpt lat="46.05135" lon="7.07619">
        <ele>1363</ele>
      </trkpt>
      <trkpt lat="46.0514" lon="7.07604">
        <ele>1365</ele>
      </trkpt>
      <trkpt lat="46.05149" lon="7.07589">
        <ele>1363</ele>
      </trkpt>
      <trkpt lat="46.0516" lon="7.07578">
        <ele>1360</ele>
      </trkpt>
      <trkpt lat="46.05172" lon="7.07568">
        <ele>1355</ele>
      </trkpt>
      <trkpt lat="46.05188" lon="7.07551">
        <ele>1351</ele>
      </trkpt>
      <trkpt lat="46.05196" lon="7.07535">
        <ele>1351</ele>
      </trkpt>
      <trkpt lat="46.05212" lon="7.07524">
        <ele>1345</ele>
      </trkpt>
      <trkpt lat="46.05216" lon="7.07509">
        <ele>1346</ele>
      </trkpt>
      <trkpt lat="46.05212" lon="7.07485">
        <ele>1354</ele>
      </trkpt>
      <trkpt lat="46.05213" lon="7.07463">
        <ele>1359</ele>
      </trkpt>
      <trkpt lat="46.05218" lon="7.07449">
        <ele>1359</ele>
      </trkpt>
      <trkpt lat="46.05227" lon="7.07431">
        <ele>1358</ele>
      </trkpt>
      <trkpt lat="46.05237" lon="7.07422">
        <ele>1355</ele>
      </trkpt>
      <trkpt lat="46.0524" lon="7.07405">
        <ele>1355</ele>
      </trkpt>
      <trkpt lat="46.05241" lon="7.07388">
        <ele>1354</ele>
      </trkpt>
      <trkpt lat="46.05234" lon="7.07365">
        <ele>1359</ele>
      </trkpt>
      <trkpt lat="46.05231" lon="7.0735">
        <ele>1362</ele>
      </trkpt>
      <trkpt lat="46.05228" lon="7.07334">
        <ele>1364</ele>
      </trkpt>
      <trkpt lat="46.05228" lon="7.07311">
        <ele>1359</ele>
      </trkpt>
      <trkpt lat="46.05229" lon="7.07294">
        <ele>1353</ele>
      </trkpt>
      <trkpt lat="46.05225" lon="7.07272">
        <ele>1350</ele>
      </trkpt>
      <trkpt lat="46.05223" lon="7.07253">
        <ele>1347</ele>
      </trkpt>
      <trkpt lat="46.05219" lon="7.07232">
        <ele>1343</ele>
      </trkpt>
      <trkpt lat="46.05212" lon="7.07214">
        <ele>1341</ele>
      </trkpt>
      <trkpt lat="46.05205" lon="7.07196">
        <ele>1340</ele>
      </trkpt>
      <trkpt lat="46.05192" lon="7.07182">
        <ele>1345</ele>
      </trkpt>
      <trkpt lat="46.05182" lon="7.07173">
        <ele>1350</ele>
      </trkpt>
      <trkpt lat="46.05171" lon="7.07162">
        <ele>1355</ele>
      </trkpt>
      <trkpt lat="46.05158" lon="7.07147">
        <ele>1359</ele>
      </trkpt>
      <trkpt lat="46.05147" lon="7.07135">
        <ele>1363</ele>
      </trkpt>
      <trkpt lat="46.05142" lon="7.07116">
        <ele>1358</ele>
      </trkpt>
      <trkpt lat="46.05127" lon="7.07099">
        <ele>1361</ele>
      </trkpt>
      <trkpt lat="46.05109" lon="7.07085">
        <ele>1366</ele>
      </trkpt>
      <trkpt lat="46.051" lon="7.07076">
        <ele>1367</ele>
      </trkpt>
      <trkpt lat="46.0509" lon="7.07062">
        <ele>1366</ele>
      </trkpt>
      <trkpt lat="46.0507" lon="7.07049">
        <ele>1372</ele>
      </trkpt>
      <trkpt lat="46.05057" lon="7.07042">
        <ele>1377</ele>
      </trkpt>
      <trkpt lat="46.05047" lon="7.07025">
        <ele>1375</ele>
      </trkpt>
      <trkpt lat="46.05031" lon="7.07013">
        <ele>1379</ele>
      </trkpt>
      <trkpt lat="46.05017" lon="7.07009">
        <ele>1387</ele>
      </trkpt>
      <trkpt lat="46.05002" lon="7.07002">
        <ele>1393</ele>
      </trkpt>
      <trkpt lat="46.04985" lon="7.06982">
        <ele>1398</ele>
      </trkpt>
      <trkpt lat="46.04971" lon="7.06966">
        <ele>1402</ele>
      </trkpt>
      <trkpt lat="46.04966" lon="7.06953">
        <ele>1399</ele>
      </trkpt>
      <trkpt lat="46.04949" lon="7.06938">
        <ele>1406</ele>
      </trkpt>
      <trkpt lat="46.04939" lon="7.06927">
        <ele>1408</ele>
      </trkpt>
      <trkpt lat="46.04928" lon="7.06912">
        <ele>1408</ele>
      </trkpt>
      <trkpt lat="46.0492" lon="7.06895">
        <ele>1406</ele>
      </trkpt>
      <trkpt lat="46.04913" lon="7.06884">
        <ele>1407</ele>
      </trkpt>
      <trkpt lat="46.04901" lon="7.06871">
        <ele>1409</ele>
      </trkpt>
      <trkpt lat="46.04887" lon="7.06856">
        <ele>1412</ele>
      </trkpt>
      <trkpt lat="46.04872" lon="7.06846">
        <ele>1417</ele>
      </trkpt>
      <trkpt lat="46.04863" lon="7.06828">
        <ele>1415</ele>
      </trkpt>
      <trkpt lat="46.04853" lon="7.06815">
        <ele>1416</ele>
      </trkpt>
      <trkpt lat="46.04846" lon="7.06804">
        <ele>1416</ele>
      </trkpt>
      <trkpt lat="46.04836" lon="7.0679">
        <ele>1417</ele>
      </trkpt>
      <trkpt lat="46.04825" lon="7.06781">
        <ele>1423</ele>
      </trkpt>
      <trkpt lat="46.04817" lon="7.06765">
        <ele>1424</ele>
      </trkpt>
      <trkpt lat="46.04805" lon="7.0675">
        <ele>1427</ele>
      </trkpt>
      <trkpt lat="46.04786" lon="7.06735">
        <ele>1438</ele>
      </trkpt>
      <trkpt lat="46.04783" lon="7.06718">
        <ele>1437</ele>
      </trkpt>
      <trkpt lat="46.04775" lon="7.06707">
        <ele>1440</ele>
      </trkpt>
      <trkpt lat="46.04772" lon="7.06691">
        <ele>1438</ele>
      </trkpt>
      <trkpt lat="46.04758" lon="7.06672">
        <ele>1444</ele>
      </trkpt>
      <trkpt lat="46.0475" lon="7.06655">
        <ele>1446</ele>
      </trkpt>
      <trkpt lat="46.04761" lon="7.06647">
        <ele>1435</ele>
      </trkpt>
      <trkpt lat="46.04737" lon="7.06589">
        <ele>1438</ele>
      </trkpt>
      <trkpt lat="46.04721" lon="7.06586">
        <ele>1445</ele>
      </trkpt>
      <trkpt lat="46.04706" lon="7.06521">
        <ele>1441</ele>
      </trkpt>
      <trkpt lat="46.04698" lon="7.06509">
        <ele>1444</ele>
      </trkpt>
      <trkpt lat="46.04687" lon="7.06499">
        <ele>1448</ele>
      </trkpt>
      <trkpt lat="46.04679" lon="7.06481">
        <ele>1451</ele>
      </trkpt>
      <trkpt lat="46.04669" lon="7.06473">
        <ele>1456</ele>
      </trkpt>
      <trkpt lat="46.04664" lon="7.06458">
        <ele>1459</ele>
      </trkpt>
      <trkpt lat="46.04652" lon="7.06443">
        <ele>1465</ele>
      </trkpt>
      <trkpt lat="46.04645" lon="7.06425">
        <ele>1469</ele>
      </trkpt>
      <trkpt lat="46.0464" lon="7.06412">
        <ele>1471</ele>
      </trkpt>
      <trkpt lat="46.04643" lon="7.06399">
        <ele>1469</ele>
      </trkpt>
      <trkpt lat="46.04635" lon="7.06375">
        <ele>1474</ele>
      </trkpt>
      <trkpt lat="46.04631" lon="7.06358">
        <ele>1477</ele>
      </trkpt>
      <trkpt lat="46.04623" lon="7.06338">
        <ele>1482</ele>
      </trkpt>
      <trkpt lat="46.04619" lon="7.06323">
        <ele>1483</ele>
      </trkpt>
      <trkpt lat="46.04615" lon="7.06303">
        <ele>1483</ele>
      </trkpt>
      <trkpt lat="46.04604" lon="7.06287">
        <ele>1490</ele>
      </trkpt>
      <trkpt lat="46.04601" lon="7.06269">
        <ele>1490</ele>
      </trkpt>
      <trkpt lat="46.04595" lon="7.06256">
        <ele>1493</ele>
      </trkpt>
      <trkpt lat="46.04591" lon="7.06238">
        <ele>1494</ele>
      </trkpt>
      <trkpt lat="46.04582" lon="7.06227">
        <ele>1499</ele>
      </trkpt>
      <trkpt lat="46.04572" lon="7.06217">
        <ele>1504</ele>
      </trkpt>
      <trkpt lat="46.04553" lon="7.06203">
        <ele>1512</ele>
      </trkpt>
      <trkpt lat="46.04534" lon="7.06196">
        <ele>1521</ele>
      </trkpt>
      <trkpt lat="46.04532" lon="7.06156">
        <ele>1518</ele>
      </trkpt>
      <trkpt lat="46.0452" lon="7.06153">
        <ele>1524</ele>
      </trkpt>
      <trkpt lat="46.0453" lon="7.06144">
        <ele>1519</ele>
      </trkpt>
      <trkpt lat="46.04516" lon="7.06136">
        <ele>1525</ele>
      </trkpt>
      <trkpt lat="46.04507" lon="7.06123">
        <ele>1529</ele>
      </trkpt>
      <trkpt lat="46.04492" lon="7.06127">
        <ele>1536</ele>
      </trkpt>
      <trkpt lat="46.04488" lon="7.06108">
        <ele>1536</ele>
      </trkpt>
      <trkpt lat="46.04468" lon="7.06107">
        <ele>1544</ele>
      </trkpt>
      <trkpt lat="46.04459" lon="7.06098">
        <ele>1547</ele>
      </trkpt>
      <trkpt lat="46.0446" lon="7.06092">
        <ele>1546</ele>
      </trkpt>
      <trkpt lat="46.04448" lon="7.06085">
        <ele>1550</ele>
      </trkpt>
      <trkpt lat="46.04431" lon="7.06081">
        <ele>1557</ele>
      </trkpt>
      <trkpt lat="46.04418" lon="7.06064">
        <ele>1564</ele>
      </trkpt>
      <trkpt lat="46.04398" lon="7.06052">
        <ele>1574</ele>
      </trkpt>
      <trkpt lat="46.04388" lon="7.06044">
        <ele>1579</ele>
      </trkpt>
      <trkpt lat="46.04378" lon="7.06031">
        <ele>1584</ele>
      </trkpt>
      <trkpt lat="46.04373" lon="7.06015">
        <ele>1587</ele>
      </trkpt>
      <trkpt lat="46.04383" lon="7.06004">
        <ele>1583</ele>
      </trkpt>
      <trkpt lat="46.04397" lon="7.05987">
        <ele>1582</ele>
      </trkpt>
      <trkpt lat="46.04399" lon="7.05975">
        <ele>1585</ele>
      </trkpt>
      <trkpt lat="46.04391" lon="7.05969">
        <ele>1589</ele>
      </trkpt>
      <trkpt lat="46.0438" lon="7.0597">
        <ele>1592</ele>
      </trkpt>
      <trkpt lat="46.04382" lon="7.0595">
        <ele>1597</ele>
      </trkpt>
      <trkpt lat="46.04403" lon="7.05925">
        <ele>1599</ele>
      </trkpt>
      <trkpt lat="46.04407" lon="7.05907">
        <ele>1603</ele>
      </trkpt>
      <trkpt lat="46.04417" lon="7.05898">
        <ele>1603</ele>
      </trkpt>
      <trkpt lat="46.04425" lon="7.05885">
        <ele>1604</ele>
      </trkpt>
      <trkpt lat="46.04429" lon="7.05872">
        <ele>1607</ele>
      </trkpt>
      <trkpt lat="46.04437" lon="7.05854">
        <ele>1608</ele>
      </trkpt>
      <trkpt lat="46.04444" lon="7.0584">
        <ele>1610</ele>
      </trkpt>
      <trkpt lat="46.04449" lon="7.05825">
        <ele>1610</ele>
      </trkpt>
      <trkpt lat="46.04448" lon="7.05812">
        <ele>1613</ele>
      </trkpt>
      <trkpt lat="46.04436" lon="7.05815">
        <ele>1617</ele>
      </trkpt>
      <trkpt lat="46.04427" lon="7.05796">
        <ele>1623</ele>
      </trkpt>
      <trkpt lat="46.04421" lon="7.05783">
        <ele>1626</ele>
      </trkpt>
      <trkpt lat="46.04423" lon="7.05766">
        <ele>1627</ele>
      </trkpt>
      <trkpt lat="46.04424" lon="7.0574">
        <ele>1629</ele>
      </trkpt>
      <trkpt lat="46.04434" lon="7.05739">
        <ele>1616</ele>
        <time>2012-07-08T12:35:31Z</time>
      </trkpt>
      <trkpt lat="46.04439" lon="7.05729">
        <ele>1616</ele>
        <time>2012-07-08T12:35:37Z</time>
      </trkpt>
      <trkpt lat="46.0445" lon="7.05729">
        <ele>1615</ele>
        <time>2012-07-08T12:35:44Z</time>
      </trkpt>
      <trkpt lat="46.04461" lon="7.05726">
        <ele>1614</ele>
        <time>2012-07-08T12:35:51Z</time>
      </trkpt>
      <trkpt lat="46.04465" lon="7.05716">
        <ele>1611</ele>
        <time>2012-07-08T12:36:00Z</time>
      </trkpt>
      <trkpt lat="46.0446" lon="7.05699">
        <ele>1606</ele>
        <time>2012-07-08T12:36:09Z</time>
      </trkpt>
      <trkpt lat="46.04454" lon="7.05685">
        <ele>1604</ele>
        <time>2012-07-08T12:36:16Z</time>
      </trkpt>
      <trkpt lat="46.04461" lon="7.0568">
        <ele>1606</ele>
        <time>2012-07-08T12:36:23Z</time>
      </trkpt>
      <trkpt lat="46.04471" lon="7.05671">
        <ele>1606</ele>
        <time>2012-07-08T12:36:31Z</time>
      </trkpt>
      <trkpt lat="46.04483" lon="7.05662">
        <ele>1605</ele>
        <time>2012-07-08T12:36:39Z</time>
      </trkpt>
      <trkpt lat="46.0449" lon="7.05651">
        <ele>1605</ele>
        <time>2012-07-08T12:36:45Z</time>
      </trkpt>
      <trkpt lat="46.04497" lon="7.05641">
        <ele>1602</ele>
        <time>2012-07-08T12:36:52Z</time>
      </trkpt>
      <trkpt lat="46.04504" lon="7.05631">
        <ele>1601</ele>
        <time>2012-07-08T12:37:00Z</time>
      </trkpt>
      <trkpt lat="46.04514" lon="7.05627">
        <ele>1599</ele>
        <time>2012-07-08T12:37:07Z</time>
      </trkpt>
      <trkpt lat="46.04523" lon="7.0562">
        <ele>1599</ele>
        <time>2012-07-08T12:37:14Z</time>
      </trkpt>
      <trkpt lat="46.04531" lon="7.05615">
        <ele>1598</ele>
        <time>2012-07-08T12:37:20Z</time>
      </trkpt>
      <trkpt lat="46.04543" lon="7.05615">
        <ele>1596</ele>
        <time>2012-07-08T12:37:27Z</time>
      </trkpt>
      <trkpt lat="46.04544" lon="7.05617">
        <ele>1595</ele>
        <time>2012-07-08T12:37:35Z</time>
      </trkpt>
      <trkpt lat="46.04557" lon="7.0563">
        <ele>1593</ele>
        <time>2012-07-08T12:37:50Z</time>
      </trkpt>
      <trkpt lat="46.04564" lon="7.05634">
        <ele>1592</ele>
        <time>2012-07-08T12:38:41Z</time>
      </trkpt>
      <trkpt lat="46.04578" lon="7.05632">
        <ele>1594</ele>
        <time>2012-07-08T12:38:52Z</time>
      </trkpt>
      <trkpt lat="46.04588" lon="7.05631">
        <ele>1596</ele>
        <time>2012-07-08T12:39:00Z</time>
      </trkpt>
      <trkpt lat="46.04602" lon="7.05637">
        <ele>1600</ele>
        <time>2012-07-08T12:39:12Z</time>
      </trkpt>
      <trkpt lat="46.04617" lon="7.05641">
        <ele>1603</ele>
        <time>2012-07-08T12:39:27Z</time>
      </trkpt>
      <trkpt lat="46.04625" lon="7.05647">
        <ele>1604</ele>
        <time>2012-07-08T12:39:41Z</time>
      </trkpt>
      <trkpt lat="46.04639" lon="7.05671">
        <ele>1601</ele>
        <time>2012-07-08T12:39:54Z</time>
      </trkpt>
      <trkpt lat="46.04652" lon="7.05689">
        <ele>1604</ele>
        <time>2012-07-08T12:40:03Z</time>
      </trkpt>
      <trkpt lat="46.04665" lon="7.05699">
        <ele>1609</ele>
        <time>2012-07-08T12:40:22Z</time>
      </trkpt>
      <trkpt lat="46.04676" lon="7.05705">
        <ele>1614</ele>
        <time>2012-07-08T12:40:38Z</time>
      </trkpt>
      <trkpt lat="46.04688" lon="7.05714">
        <ele>1617</ele>
        <time>2012-07-08T12:40:50Z</time>
      </trkpt>
      <trkpt lat="46.04699" lon="7.05718">
        <ele>1619</ele>
        <time>2012-07-08T12:41:00Z</time>
      </trkpt>
      <trkpt lat="46.04709" lon="7.05729">
        <ele>1623</ele>
        <time>2012-07-08T12:41:11Z</time>
      </trkpt>
      <trkpt lat="46.04716" lon="7.05737">
        <ele>1625</ele>
        <time>2012-07-08T12:41:23Z</time>
      </trkpt>
      <trkpt lat="46.04726" lon="7.0574">
        <ele>1628</ele>
        <time>2012-07-08T12:41:32Z</time>
      </trkpt>
      <trkpt lat="46.0474" lon="7.05742">
        <ele>1633</ele>
        <time>2012-07-08T12:42:03Z</time>
      </trkpt>
      <trkpt lat="46.0475" lon="7.05748">
        <ele>1636</ele>
        <time>2012-07-08T12:42:12Z</time>
      </trkpt>
      <trkpt lat="46.0476" lon="7.0575">
        <ele>1639</ele>
        <time>2012-07-08T12:42:24Z</time>
      </trkpt>
      <trkpt lat="46.04765" lon="7.05746">
        <ele>1643</ele>
        <time>2012-07-08T12:42:36Z</time>
      </trkpt>
      <trkpt lat="46.04775" lon="7.05739">
        <ele>1649</ele>
        <time>2012-07-08T12:42:55Z</time>
      </trkpt>
      <trkpt lat="46.04784" lon="7.05734">
        <ele>1652</ele>
        <time>2012-07-08T12:43:07Z</time>
      </trkpt>
      <trkpt lat="46.04793" lon="7.05724">
        <ele>1657</ele>
        <time>2012-07-08T12:43:23Z</time>
      </trkpt>
      <trkpt lat="46.04798" lon="7.05723">
        <ele>1660</ele>
        <time>2012-07-08T12:43:37Z</time>
      </trkpt>
      <trkpt lat="46.04813" lon="7.05723">
        <ele>1664</ele>
        <time>2012-07-08T12:43:51Z</time>
      </trkpt>
      <trkpt lat="46.04822" lon="7.05724">
        <ele>1666</ele>
        <time>2012-07-08T12:44:02Z</time>
      </trkpt>
      <trkpt lat="46.04833" lon="7.05732">
        <ele>1669</ele>
        <time>2012-07-08T12:44:15Z</time>
      </trkpt>
      <trkpt lat="46.04839" lon="7.05731">
        <ele>1671</ele>
        <time>2012-07-08T12:44:38Z</time>
      </trkpt>
      <trkpt lat="46.0485" lon="7.05735">
        <ele>1675</ele>
        <time>2012-07-08T12:44:50Z</time>
      </trkpt>
      <trkpt lat="46.04856" lon="7.05736">
        <ele>1679</ele>
        <time>2012-07-08T12:45:03Z</time>
      </trkpt>
      <trkpt lat="46.04869" lon="7.05736">
        <ele>1683</ele>
        <time>2012-07-08T12:45:18Z</time>
      </trkpt>
      <trkpt lat="46.04883" lon="7.0575">
        <ele>1688</ele>
        <time>2012-07-08T12:45:34Z</time>
      </trkpt>
      <trkpt lat="46.04897" lon="7.05764">
        <ele>1690</ele>
        <time>2012-07-08T12:45:48Z</time>
      </trkpt>
      <trkpt lat="46.04907" lon="7.05772">
        <ele>1691</ele>
        <time>2012-07-08T12:45:54Z</time>
      </trkpt>
      <trkpt lat="46.04915" lon="7.05784">
        <ele>1691</ele>
        <time>2012-07-08T12:46:01Z</time>
      </trkpt>
      <trkpt lat="46.04924" lon="7.05807">
        <ele>1693</ele>
        <time>2012-07-08T12:46:08Z</time>
      </trkpt>
      <trkpt lat="46.04932" lon="7.05817">
        <ele>1694</ele>
        <time>2012-07-08T12:46:16Z</time>
      </trkpt>
      <trkpt lat="46.0494" lon="7.05825">
        <ele>1696</ele>
        <time>2012-07-08T12:46:24Z</time>
      </trkpt>
      <trkpt lat="46.04951" lon="7.05831">
        <ele>1697</ele>
        <time>2012-07-08T12:46:31Z</time>
      </trkpt>
      <trkpt lat="46.04961" lon="7.05839">
        <ele>1699</ele>
        <time>2012-07-08T12:46:39Z</time>
      </trkpt>
      <trkpt lat="46.04971" lon="7.05841">
        <ele>1702</ele>
        <time>2012-07-08T12:46:47Z</time>
      </trkpt>
      <trkpt lat="46.04979" lon="7.05842">
        <ele>1704</ele>
        <time>2012-07-08T12:46:56Z</time>
      </trkpt>
      <trkpt lat="46.04987" lon="7.05841">
        <ele>1707</ele>
        <time>2012-07-08T12:47:07Z</time>
      </trkpt>
      <trkpt lat="46.04991" lon="7.05836">
        <ele>1710</ele>
        <time>2012-07-08T12:47:21Z</time>
      </trkpt>
      <trkpt lat="46.05004" lon="7.0583">
        <ele>1714</ele>
        <time>2012-07-08T12:47:34Z</time>
      </trkpt>
      <trkpt lat="46.05013" lon="7.05825">
        <ele>1718</ele>
        <time>2012-07-08T12:47:46Z</time>
      </trkpt>
      <trkpt lat="46.05" lon="7.05808">
        <ele>1726</ele>
        <time>2012-07-08T12:48:17Z</time>
      </trkpt>
      <trkpt lat="46.04989" lon="7.058">
        <ele>1729</ele>
        <time>2012-07-08T12:48:30Z</time>
      </trkpt>
      <trkpt lat="46.04982" lon="7.05788">
        <ele>1732</ele>
        <time>2012-07-08T12:48:42Z</time>
      </trkpt>
      <trkpt lat="46.04978" lon="7.05777">
        <ele>1735</ele>
        <time>2012-07-08T12:48:53Z</time>
      </trkpt>
      <trkpt lat="46.04973" lon="7.05768">
        <ele>1738</ele>
        <time>2012-07-08T12:49:06Z</time>
      </trkpt>
      <trkpt lat="46.04965" lon="7.05761">
        <ele>1742</ele>
        <time>2012-07-08T12:49:17Z</time>
      </trkpt>
      <trkpt lat="46.04955" lon="7.0575">
        <ele>1743</ele>
        <time>2012-07-08T12:49:25Z</time>
      </trkpt>
      <trkpt lat="46.04949" lon="7.05738">
        <ele>1743</ele>
        <time>2012-07-08T12:49:33Z</time>
      </trkpt>
      <trkpt lat="46.04944" lon="7.05722">
        <ele>1743</ele>
        <time>2012-07-08T12:49:41Z</time>
      </trkpt>
      <trkpt lat="46.04935" lon="7.05716">
        <ele>1744</ele>
        <time>2012-07-08T12:49:48Z</time>
      </trkpt>
      <trkpt lat="46.04927" lon="7.0571">
        <ele>1748</ele>
        <time>2012-07-08T12:50:01Z</time>
      </trkpt>
      <trkpt lat="46.04923" lon="7.05697">
        <ele>1752</ele>
        <time>2012-07-08T12:50:14Z</time>
      </trkpt>
      <trkpt lat="46.04931" lon="7.05691">
        <ele>1755</ele>
        <time>2012-07-08T12:50:24Z</time>
      </trkpt>
      <trkpt lat="46.04939" lon="7.05685">
        <ele>1757</ele>
        <time>2012-07-08T12:50:33Z</time>
      </trkpt>
      <trkpt lat="46.04947" lon="7.05681">
        <ele>1759</ele>
        <time>2012-07-08T12:50:42Z</time>
      </trkpt>
      <trkpt lat="46.04956" lon="7.05683">
        <ele>1762</ele>
        <time>2012-07-08T12:50:53Z</time>
      </trkpt>
      <trkpt lat="46.04958" lon="7.0567">
        <ele>1766</ele>
        <time>2012-07-08T12:51:05Z</time>
      </trkpt>
      <trkpt lat="46.04953" lon="7.05662">
        <ele>1769</ele>
        <time>2012-07-08T12:51:16Z</time>
      </trkpt>
      <trkpt lat="46.04962" lon="7.05661">
        <ele>1772</ele>
        <time>2012-07-08T12:51:26Z</time>
      </trkpt>
      <trkpt lat="46.04969" lon="7.05666">
        <ele>1774</ele>
        <time>2012-07-08T12:51:35Z</time>
      </trkpt>
      <trkpt lat="46.04972" lon="7.05655">
        <ele>1778</ele>
        <time>2012-07-08T12:51:48Z</time>
      </trkpt>
      <trkpt lat="46.04963" lon="7.05638">
        <ele>1781</ele>
        <time>2012-07-08T12:52:24Z</time>
      </trkpt>
      <trkpt lat="46.04954" lon="7.05632">
        <ele>1785</ele>
        <time>2012-07-08T12:52:36Z</time>
      </trkpt>
      <trkpt lat="46.04944" lon="7.05623">
        <ele>1789</ele>
        <time>2012-07-08T12:52:48Z</time>
      </trkpt>
      <trkpt lat="46.04933" lon="7.05619">
        <ele>1793</ele>
        <time>2012-07-08T12:53:03Z</time>
      </trkpt>
      <trkpt lat="46.04938" lon="7.05613">
        <ele>1796</ele>
        <time>2012-07-08T12:53:15Z</time>
      </trkpt>
      <trkpt lat="46.04947" lon="7.05607">
        <ele>1799</ele>
        <time>2012-07-08T12:53:25Z</time>
      </trkpt>
      <trkpt lat="46.04955" lon="7.056">
        <ele>1802</ele>
        <time>2012-07-08T12:53:33Z</time>
      </trkpt>
      <trkpt lat="46.04961" lon="7.05594">
        <ele>1805</ele>
        <time>2012-07-08T12:53:43Z</time>
      </trkpt>
      <trkpt lat="46.04969" lon="7.05586">
        <ele>1806</ele>
        <time>2012-07-08T12:53:53Z</time>
      </trkpt>
      <trkpt lat="46.04971" lon="7.05577">
        <ele>1809</ele>
        <time>2012-07-08T12:54:05Z</time>
      </trkpt>
      <trkpt lat="46.04963" lon="7.05569">
        <ele>1813</ele>
        <time>2012-07-08T12:54:19Z</time>
      </trkpt>
      <trkpt lat="46.04962" lon="7.05558">
        <ele>1817</ele>
        <time>2012-07-08T12:54:33Z</time>
      </trkpt>
      <trkpt lat="46.04967" lon="7.05548">
        <ele>1819</ele>
        <time>2012-07-08T12:54:42Z</time>
      </trkpt>
      <trkpt lat="46.04978" lon="7.05545">
        <ele>1819</ele>
        <time>2012-07-08T12:55:03Z</time>
      </trkpt>
      <trkpt lat="46.04987" lon="7.05542">
        <ele>1821</ele>
        <time>2012-07-08T12:55:10Z</time>
      </trkpt>
      <trkpt lat="46.04997" lon="7.05545">
        <ele>1823</ele>
        <time>2012-07-08T12:55:18Z</time>
      </trkpt>
      <trkpt lat="46.05005" lon="7.0555">
        <ele>1827</ele>
        <time>2012-07-08T12:55:29Z</time>
      </trkpt>
      <trkpt lat="46.05016" lon="7.05554">
        <ele>1831</ele>
        <time>2012-07-08T12:55:44Z</time>
      </trkpt>
      <trkpt lat="46.05026" lon="7.05557">
        <ele>1834</ele>
        <time>2012-07-08T12:55:54Z</time>
      </trkpt>
      <trkpt lat="46.05034" lon="7.05564">
        <ele>1838</ele>
        <time>2012-07-08T12:56:07Z</time>
      </trkpt>
      <trkpt lat="46.05046" lon="7.05567">
        <ele>1842</ele>
        <time>2012-07-08T12:56:19Z</time>
      </trkpt>
      <trkpt lat="46.05057" lon="7.05572">
        <ele>1844</ele>
        <time>2012-07-08T12:56:27Z</time>
      </trkpt>
      <trkpt lat="46.05067" lon="7.05576">
        <ele>1845</ele>
        <time>2012-07-08T12:56:35Z</time>
      </trkpt>
      <trkpt lat="46.05076" lon="7.05579">
        <ele>1847</ele>
        <time>2012-07-08T12:56:45Z</time>
      </trkpt>
      <trkpt lat="46.05088" lon="7.05581">
        <ele>1848</ele>
        <time>2012-07-08T12:56:53Z</time>
      </trkpt>
      <trkpt lat="46.05098" lon="7.05583">
        <ele>1850</ele>
        <time>2012-07-08T12:57:00Z</time>
      </trkpt>
      <trkpt lat="46.05108" lon="7.05583">
        <ele>1853</ele>
        <time>2012-07-08T12:57:08Z</time>
      </trkpt>
      <trkpt lat="46.05117" lon="7.05584">
        <ele>1854</ele>
        <time>2012-07-08T12:57:15Z</time>
      </trkpt>
      <trkpt lat="46.05126" lon="7.05584">
        <ele>1856</ele>
        <time>2012-07-08T12:57:22Z</time>
      </trkpt>
      <trkpt lat="46.05136" lon="7.05587">
        <ele>1857</ele>
        <time>2012-07-08T12:57:28Z</time>
      </trkpt>
      <trkpt lat="46.05145" lon="7.05588">
        <ele>1859</ele>
        <time>2012-07-08T12:57:35Z</time>
      </trkpt>
      <trkpt lat="46.05156" lon="7.05592">
        <ele>1861</ele>
        <time>2012-07-08T12:57:43Z</time>
      </trkpt>
      <trkpt lat="46.05165" lon="7.05593">
        <ele>1862</ele>
        <time>2012-07-08T12:57:49Z</time>
      </trkpt>
      <trkpt lat="46.05174" lon="7.05594">
        <ele>1863</ele>
        <time>2012-07-08T12:57:55Z</time>
      </trkpt>
      <trkpt lat="46.05183" lon="7.05594">
        <ele>1862</ele>
        <time>2012-07-08T12:58:01Z</time>
      </trkpt>
      <trkpt lat="46.05189" lon="7.0559">
        <ele>1862</ele>
        <time>2012-07-08T12:58:07Z</time>
      </trkpt>
      <trkpt lat="46.05199" lon="7.05588">
        <ele>1862</ele>
        <time>2012-07-08T12:58:13Z</time>
      </trkpt>
      <trkpt lat="46.05209" lon="7.05591">
        <ele>1862</ele>
        <time>2012-07-08T12:58:18Z</time>
      </trkpt>
      <trkpt lat="46.05215" lon="7.05599">
        <ele>1863</ele>
        <time>2012-07-08T12:58:24Z</time>
      </trkpt>
      <trkpt lat="46.05221" lon="7.05608">
        <ele>1865</ele>
        <time>2012-07-08T12:58:31Z</time>
      </trkpt>
      <trkpt lat="46.05229" lon="7.05615">
        <ele>1865</ele>
        <time>2012-07-08T12:58:38Z</time>
      </trkpt>
      <trkpt lat="46.05239" lon="7.05619">
        <ele>1866</ele>
        <time>2012-07-08T12:58:45Z</time>
      </trkpt>
      <trkpt lat="46.05249" lon="7.0562">
        <ele>1866</ele>
        <time>2012-07-08T12:58:51Z</time>
      </trkpt>
      <trkpt lat="46.05259" lon="7.05618">
        <ele>1868</ele>
        <time>2012-07-08T12:58:57Z</time>
      </trkpt>
      <trkpt lat="46.05269" lon="7.05616">
        <ele>1869</ele>
        <time>2012-07-08T12:59:03Z</time>
      </trkpt>
      <trkpt lat="46.05279" lon="7.05616">
        <ele>1870</ele>
        <time>2012-07-08T12:59:09Z</time>
      </trkpt>
      <trkpt lat="46.05288" lon="7.05614">
        <ele>1872</ele>
        <time>2012-07-08T12:59:15Z</time>
      </trkpt>
      <trkpt lat="46.05297" lon="7.05612">
        <ele>1873</ele>
        <time>2012-07-08T12:59:21Z</time>
      </trkpt>
      <trkpt lat="46.05307" lon="7.0561">
        <ele>1874</ele>
        <time>2012-07-08T12:59:28Z</time>
      </trkpt>
      <trkpt lat="46.05316" lon="7.05607">
        <ele>1876</ele>
        <time>2012-07-08T12:59:35Z</time>
      </trkpt>
      <trkpt lat="46.05327" lon="7.05604">
        <ele>1877</ele>
        <time>2012-07-08T12:59:42Z</time>
      </trkpt>
      <trkpt lat="46.05336" lon="7.05599">
        <ele>1878</ele>
        <time>2012-07-08T12:59:49Z</time>
      </trkpt>
      <trkpt lat="46.05346" lon="7.05594">
        <ele>1880</ele>
        <time>2012-07-08T13:00:01Z</time>
      </trkpt>
      <trkpt lat="46.05354" lon="7.0559">
        <ele>1880</ele>
        <time>2012-07-08T13:00:07Z</time>
      </trkpt>
      <trkpt lat="46.05361" lon="7.05587">
        <ele>1882</ele>
        <time>2012-07-08T13:00:13Z</time>
      </trkpt>
      <trkpt lat="46.05369" lon="7.05582">
        <ele>1883</ele>
        <time>2012-07-08T13:00:19Z</time>
      </trkpt>
      <trkpt lat="46.05378" lon="7.05576">
        <ele>1884</ele>
        <time>2012-07-08T13:00:25Z</time>
      </trkpt>
      <trkpt lat="46.05387" lon="7.05571">
        <ele>1885</ele>
        <time>2012-07-08T13:00:33Z</time>
      </trkpt>
      <trkpt lat="46.05396" lon="7.05565">
        <ele>1886</ele>
        <time>2012-07-08T13:00:39Z</time>
      </trkpt>
      <trkpt lat="46.05405" lon="7.05563">
        <ele>1887</ele>
        <time>2012-07-08T13:00:45Z</time>
      </trkpt>
      <trkpt lat="46.05414" lon="7.0556">
        <ele>1889</ele>
        <time>2012-07-08T13:00:52Z</time>
      </trkpt>
      <trkpt lat="46.05424" lon="7.05556">
        <ele>1891</ele>
        <time>2012-07-08T13:01:00Z</time>
      </trkpt>
      <trkpt lat="46.05434" lon="7.05554">
        <ele>1893</ele>
        <time>2012-07-08T13:01:07Z</time>
      </trkpt>
      <trkpt lat="46.05444" lon="7.05551">
        <ele>1894</ele>
        <time>2012-07-08T13:01:13Z</time>
      </trkpt>
      <trkpt lat="46.05453" lon="7.05549">
        <ele>1894</ele>
        <time>2012-07-08T13:01:19Z</time>
      </trkpt>
      <trkpt lat="46.05464" lon="7.05548">
        <ele>1896</ele>
        <time>2012-07-08T13:01:26Z</time>
      </trkpt>
      <trkpt lat="46.05474" lon="7.05548">
        <ele>1897</ele>
        <time>2012-07-08T13:01:33Z</time>
      </trkpt>
      <trkpt lat="46.05483" lon="7.0555">
        <ele>1897</ele>
        <time>2012-07-08T13:01:39Z</time>
      </trkpt>
      <trkpt lat="46.05494" lon="7.05551">
        <ele>1898</ele>
        <time>2012-07-08T13:01:47Z</time>
      </trkpt>
      <trkpt lat="46.05506" lon="7.0555">
        <ele>1900</ele>
        <time>2012-07-08T13:01:53Z</time>
      </trkpt>
      <trkpt lat="46.05515" lon="7.05551">
        <ele>1902</ele>
        <time>2012-07-08T13:01:59Z</time>
      </trkpt>
      <trkpt lat="46.05524" lon="7.05549">
        <ele>1903</ele>
        <time>2012-07-08T13:02:06Z</time>
      </trkpt>
      <trkpt lat="46.05533" lon="7.05546">
        <ele>1904</ele>
        <time>2012-07-08T13:02:13Z</time>
      </trkpt>
      <trkpt lat="46.05543" lon="7.05544">
        <ele>1905</ele>
        <time>2012-07-08T13:02:19Z</time>
      </trkpt>
      <trkpt lat="46.05551" lon="7.05541">
        <ele>1906</ele>
        <time>2012-07-08T13:02:25Z</time>
      </trkpt>
      <trkpt lat="46.05561" lon="7.05536">
        <ele>1908</ele>
        <time>2012-07-08T13:02:32Z</time>
      </trkpt>
      <trkpt lat="46.0557" lon="7.05534">
        <ele>1909</ele>
        <time>2012-07-08T13:02:38Z</time>
      </trkpt>
      <trkpt lat="46.05579" lon="7.05531">
        <ele>1910</ele>
        <time>2012-07-08T13:02:45Z</time>
      </trkpt>
      <trkpt lat="46.05589" lon="7.05526">
        <ele>1911</ele>
        <time>2012-07-08T13:02:53Z</time>
      </trkpt>
      <trkpt lat="46.05597" lon="7.05515">
        <ele>1914</ele>
        <time>2012-07-08T13:03:01Z</time>
      </trkpt>
      <trkpt lat="46.05599" lon="7.05501">
        <ele>1915</ele>
        <time>2012-07-08T13:03:08Z</time>
      </trkpt>
      <trkpt lat="46.05601" lon="7.05487">
        <ele>1916</ele>
        <time>2012-07-08T13:03:14Z</time>
      </trkpt>
      <trkpt lat="46.05603" lon="7.05472">
        <ele>1917</ele>
        <time>2012-07-08T13:03:21Z</time>
      </trkpt>
      <trkpt lat="46.05602" lon="7.0546">
        <ele>1919</ele>
        <time>2012-07-08T13:03:27Z</time>
      </trkpt>
      <trkpt lat="46.056" lon="7.05445">
        <ele>1920</ele>
        <time>2012-07-08T13:03:34Z</time>
      </trkpt>
      <trkpt lat="46.05598" lon="7.05429">
        <ele>1921</ele>
        <time>2012-07-08T13:03:41Z</time>
      </trkpt>
      <trkpt lat="46.05595" lon="7.05414">
        <ele>1922</ele>
        <time>2012-07-08T13:03:48Z</time>
      </trkpt>
      <trkpt lat="46.05594" lon="7.054">
        <ele>1923</ele>
        <time>2012-07-08T13:03:55Z</time>
      </trkpt>
      <trkpt lat="46.05595" lon="7.05386">
        <ele>1925</ele>
        <time>2012-07-08T13:04:02Z</time>
      </trkpt>
      <trkpt lat="46.05594" lon="7.05373">
        <ele>1926</ele>
        <time>2012-07-08T13:04:08Z</time>
      </trkpt>
      <trkpt lat="46.05593" lon="7.05359">
        <ele>1928</ele>
        <time>2012-07-08T13:04:15Z</time>
      </trkpt>
      <trkpt lat="46.05593" lon="7.05346">
        <ele>1927</ele>
        <time>2012-07-08T13:04:21Z</time>
      </trkpt>
      <trkpt lat="46.05594" lon="7.05331">
        <ele>1929</ele>
        <time>2012-07-08T13:04:28Z</time>
      </trkpt>
      <trkpt lat="46.05593" lon="7.05317">
        <ele>1931</ele>
        <time>2012-07-08T13:04:35Z</time>
      </trkpt>
      <trkpt lat="46.0559" lon="7.05305">
        <ele>1932</ele>
        <time>2012-07-08T13:04:41Z</time>
      </trkpt>
      <trkpt lat="46.05588" lon="7.05293">
        <ele>1933</ele>
        <time>2012-07-08T13:04:47Z</time>
      </trkpt>
      <trkpt lat="46.05586" lon="7.05281">
        <ele>1934</ele>
        <time>2012-07-08T13:04:53Z</time>
      </trkpt>
      <trkpt lat="46.05583" lon="7.05269">
        <ele>1934</ele>
        <time>2012-07-08T13:04:59Z</time>
      </trkpt>
      <trkpt lat="46.0558" lon="7.05255">
        <ele>1935</ele>
        <time>2012-07-08T13:05:06Z</time>
      </trkpt>
      <trkpt lat="46.05579" lon="7.05242">
        <ele>1937</ele>
        <time>2012-07-08T13:05:12Z</time>
      </trkpt>
      <trkpt lat="46.05578" lon="7.05229">
        <ele>1938</ele>
        <time>2012-07-08T13:05:18Z</time>
      </trkpt>
      <trkpt lat="46.05581" lon="7.05217">
        <ele>1939</ele>
        <time>2012-07-08T13:05:24Z</time>
      </trkpt>
      <trkpt lat="46.0558" lon="7.05203">
        <ele>1941</ele>
        <time>2012-07-08T13:05:31Z</time>
      </trkpt>
      <trkpt lat="46.05581" lon="7.0519">
        <ele>1942</ele>
        <time>2012-07-08T13:05:37Z</time>
      </trkpt>
      <trkpt lat="46.05581" lon="7.05175">
        <ele>1943</ele>
        <time>2012-07-08T13:05:44Z</time>
      </trkpt>
      <trkpt lat="46.05582" lon="7.05162">
        <ele>1945</ele>
        <time>2012-07-08T13:05:51Z</time>
      </trkpt>
      <trkpt lat="46.05581" lon="7.0515">
        <ele>1946</ele>
        <time>2012-07-08T13:06:02Z</time>
      </trkpt>
      <trkpt lat="46.05577" lon="7.05137">
        <ele>1947</ele>
        <time>2012-07-08T13:06:09Z</time>
      </trkpt>
      <trkpt lat="46.05573" lon="7.05125">
        <ele>1947</ele>
        <time>2012-07-08T13:06:16Z</time>
      </trkpt>
      <trkpt lat="46.05572" lon="7.05109">
        <ele>1948</ele>
        <time>2012-07-08T13:06:23Z</time>
      </trkpt>
      <trkpt lat="46.05573" lon="7.05095">
        <ele>1949</ele>
        <time>2012-07-08T13:06:30Z</time>
      </trkpt>
      <trkpt lat="46.0557" lon="7.05082">
        <ele>1951</ele>
        <time>2012-07-08T13:06:38Z</time>
      </trkpt>
      <trkpt lat="46.05565" lon="7.05069">
        <ele>1953</ele>
        <time>2012-07-08T13:06:45Z</time>
      </trkpt>
      <trkpt lat="46.05562" lon="7.05057">
        <ele>1954</ele>
        <time>2012-07-08T13:06:52Z</time>
      </trkpt>
      <trkpt lat="46.05559" lon="7.05043">
        <ele>1955</ele>
        <time>2012-07-08T13:06:59Z</time>
      </trkpt>
      <trkpt lat="46.05556" lon="7.05032">
        <ele>1956</ele>
        <time>2012-07-08T13:07:08Z</time>
      </trkpt>
      <trkpt lat="46.05551" lon="7.05018">
        <ele>1968</ele>
      </trkpt>
      <trkpt lat="46.05542" lon="7.0497">
        <ele>1973</ele>
      </trkpt>
      <trkpt lat="46.05541" lon="7.04946">
        <ele>1974</ele>
      </trkpt>
      <trkpt lat="46.05531" lon="7.04932">
        <ele>1979</ele>
      </trkpt>
      <trkpt lat="46.05532" lon="7.04911">
        <ele>1980</ele>
      </trkpt>
      <trkpt lat="46.05532" lon="7.04887">
        <ele>1981</ele>
      </trkpt>
      <trkpt lat="46.05541" lon="7.04872">
        <ele>1979</ele>
      </trkpt>
      <trkpt lat="46.05543" lon="7.04846">
        <ele>1981</ele>
      </trkpt>
      <trkpt lat="46.05541" lon="7.04827">
        <ele>1983</ele>
      </trkpt>
      <trkpt lat="46.05535" lon="7.04798">
        <ele>1990</ele>
      </trkpt>
      <trkpt lat="46.05526" lon="7.04755">
        <ele>1999</ele>
      </trkpt>
      <trkpt lat="46.05533" lon="7.0473">
        <ele>2001</ele>
      </trkpt>
      <trkpt lat="46.05533" lon="7.04714">
        <ele>2005</ele>
      </trkpt>
      <trkpt lat="46.05535" lon="7.04692">
        <ele>2008</ele>
      </trkpt>
      <trkpt lat="46.05541" lon="7.04665">
        <ele>2011</ele>
      </trkpt>
      <trkpt lat="46.05545" lon="7.0465">
        <ele>2014</ele>
      </trkpt>
      <trkpt lat="46.05553" lon="7.04636">
        <ele>2016</ele>
      </trkpt>
      <trkpt lat="46.05562" lon="7.04627">
        <ele>2015</ele>
      </trkpt>
      <trkpt lat="46.05576" lon="7.04622">
        <ele>2012</ele>
      </trkpt>
      <trkpt lat="46.05587" lon="7.04624">
        <ele>2009</ele>
      </trkpt>
      <trkpt lat="46.05598" lon="7.04631">
        <ele>2003</ele>
      </trkpt>
      <trkpt lat="46.05612" lon="7.04618">
        <ele>2005</ele>
      </trkpt>
      <trkpt lat="46.0562" lon="7.04606">
        <ele>2007</ele>
      </trkpt>
      <trkpt lat="46.05643" lon="7.04583">
        <ele>2009</ele>
      </trkpt>
      <trkpt lat="46.05647" lon="7.04568">
        <ele>2013</ele>
      </trkpt>
      <trkpt lat="46.05658" lon="7.04548">
        <ele>2017</ele>
      </trkpt>
      <trkpt lat="46.05674" lon="7.04526">
        <ele>2020</ele>
      </trkpt>
      <trkpt lat="46.05682" lon="7.04511">
        <ele>2023</ele>
      </trkpt>
      <trkpt lat="46.05693" lon="7.04491">
        <ele>2026</ele>
      </trkpt>
      <trkpt lat="46.05717" lon="7.04466">
        <ele>2027</ele>
      </trkpt>
      <trkpt lat="46.05733" lon="7.04458">
        <ele>2024</ele>
      </trkpt>
      <trkpt lat="46.05752" lon="7.04457">
        <ele>2018</ele>
      </trkpt>
      <trkpt lat="46.05751" lon="7.04449">
        <ele>2019</ele>
      </trkpt>
      <trkpt lat="46.0574" lon="7.04435">
        <ele>2027</ele>
      </trkpt>
      <trkpt lat="46.05729" lon="7.04399">
        <ele>2038</ele>
      </trkpt>
      <trkpt lat="46.05723" lon="7.04378">
        <ele>2043</ele>
      </trkpt>
      <trkpt lat="46.05728" lon="7.04349">
        <ele>2044</ele>
      </trkpt>
      <trkpt lat="46.05738" lon="7.04325">
        <ele>2041</ele>
      </trkpt>
      <trkpt lat="46.05752" lon="7.04309">
        <ele>2035</ele>
      </trkpt>
      <trkpt lat="46.05753" lon="7.04288">
        <ele>2038</ele>
      </trkpt>
      <trkpt lat="46.05755" lon="7.04266">
        <ele>2039</ele>
      </trkpt>
      <trkpt lat="46.05753" lon="7.04246">
        <ele>2043</ele>
      </trkpt>
      <trkpt lat="46.05754" lon="7.04227">
        <ele>2043</ele>
      </trkpt>
      <trkpt lat="46.05763" lon="7.04213">
        <ele>2037</ele>
      </trkpt>
      <trkpt lat="46.05772" lon="7.04197">
        <ele>2030</ele>
      </trkpt>
      <trkpt lat="46.05779" lon="7.04182">
        <ele>2025</ele>
      </trkpt>
      <trkpt lat="46.05784" lon="7.04145">
        <ele>2022</ele>
      </trkpt>
      <trkpt lat="46.05784" lon="7.04122">
        <ele>2021</ele>
      </trkpt>
      <trkpt lat="46.05782" lon="7.04083">
        <ele>2023</ele>
      </trkpt>
      <trkpt lat="46.05778" lon="7.04069">
        <ele>2022</ele>
      </trkpt>
      <trkpt lat="46.0577" lon="7.04052">
        <ele>2024</ele>
      </trkpt>
      <trkpt lat="46.05763" lon="7.04035">
        <ele>2024</ele>
      </trkpt>
      <trkpt lat="46.05756" lon="7.04017">
        <ele>2025</ele>
      </trkpt>
      <trkpt lat="46.05752" lon="7.03999">
        <ele>2022</ele>
      </trkpt>
      <trkpt lat="46.05747" lon="7.03973">
        <ele>2020</ele>
      </trkpt>
      <trkpt lat="46.05749" lon="7.03945">
        <ele>2011</ele>
      </trkpt>
      <trkpt lat="46.05752" lon="7.0393">
        <ele>2006</ele>
      </trkpt>
      <trkpt lat="46.05755" lon="7.03909">
        <ele>2000</ele>
      </trkpt>
      <trkpt lat="46.05757" lon="7.03893">
        <ele>1997</ele>
      </trkpt>
      <trkpt lat="46.05756" lon="7.03876">
        <ele>1996</ele>
      </trkpt>
      <trkpt lat="46.05755" lon="7.03847">
        <ele>1994</ele>
      </trkpt>
      <trkpt lat="46.05759" lon="7.03822">
        <ele>1989</ele>
      </trkpt>
      <trkpt lat="46.05759" lon="7.03798">
        <ele>1986</ele>
      </trkpt>
      <trkpt lat="46.05759" lon="7.03779">
        <ele>1983</ele>
      </trkpt>
      <trkpt lat="46.05761" lon="7.0374">
        <ele>1975</ele>
      </trkpt>
      <trkpt lat="46.05762" lon="7.03716">
        <ele>1970</ele>
      </trkpt>
      <trkpt lat="46.05764" lon="7.03698">
        <ele>1964</ele>
      </trkpt>
      <trkpt lat="46.05763" lon="7.03679">
        <ele>1961</ele>
      </trkpt>
      <trkpt lat="46.05768" lon="7.03661">
        <ele>1953</ele>
      </trkpt>
      <trkpt lat="46.05769" lon="7.03644">
        <ele>1947</ele>
      </trkpt>
      <trkpt lat="46.05767" lon="7.03626">
        <ele>1943</ele>
      </trkpt>
      <trkpt lat="46.05762" lon="7.03607">
        <ele>1939</ele>
      </trkpt>
      <trkpt lat="46.05752" lon="7.03584">
        <ele>1937</ele>
      </trkpt>
      <trkpt lat="46.05737" lon="7.03567">
        <ele>1932</ele>
      </trkpt>
      <trkpt lat="46.05721" lon="7.03557">
        <ele>1928</ele>
      </trkpt>
      <trkpt lat="46.05707" lon="7.03546">
        <ele>1925</ele>
      </trkpt>
      <trkpt lat="46.05672" lon="7.0354">
        <ele>1923</ele>
      </trkpt>
      <trkpt lat="46.05647" lon="7.03532">
        <ele>1920</ele>
      </trkpt>
      <trkpt lat="46.0563" lon="7.03514">
        <ele>1911</ele>
      </trkpt>
      <trkpt lat="46.05613" lon="7.03493">
        <ele>1904</ele>
      </trkpt>
      <trkpt lat="46.05605" lon="7.03483">
        <ele>1902</ele>
      </trkpt>
      <trkpt lat="46.05597" lon="7.03469">
        <ele>1899</ele>
      </trkpt>
      <trkpt lat="46.0559" lon="7.03454">
        <ele>1896</ele>
      </trkpt>
      <trkpt lat="46.05584" lon="7.03431">
        <ele>1891</ele>
      </trkpt>
      <trkpt lat="46.05579" lon="7.03405">
        <ele>1888</ele>
      </trkpt>
      <trkpt lat="46.05587" lon="7.03381">
        <ele>1884</ele>
      </trkpt>
      <trkpt lat="46.05601" lon="7.03332">
        <ele>1878</ele>
      </trkpt>
      <trkpt lat="46.05611" lon="7.03317">
        <ele>1877</ele>
      </trkpt>
      <trkpt lat="46.05618" lon="7.03302">
        <ele>1875</ele>
      </trkpt>
      <trkpt lat="46.05621" lon="7.03279">
        <ele>1873</ele>
      </trkpt>
      <trkpt lat="46.05625" lon="7.03249">
        <ele>1870</ele>
      </trkpt>
      <trkpt lat="46.05626" lon="7.03234">
        <ele>1868</ele>
      </trkpt>
      <trkpt lat="46.05624" lon="7.03211">
        <ele>1865</ele>
      </trkpt>
      <trkpt lat="46.05628" lon="7.03196">
        <ele>1862</ele>
      </trkpt>
      <trkpt lat="46.05635" lon="7.03174">
        <ele>1859</ele>
      </trkpt>
      <trkpt lat="46.05638" lon="7.03157">
        <ele>1858</ele>
      </trkpt>
      <trkpt lat="46.05642" lon="7.03138">
        <ele>1858</ele>
      </trkpt>
      <trkpt lat="46.05653" lon="7.03124">
        <ele>1857</ele>
      </trkpt>
      <trkpt lat="46.05655" lon="7.03106">
        <ele>1856</ele>
      </trkpt>
      <trkpt lat="46.05666" lon="7.03074">
        <ele>1855</ele>
      </trkpt>
      <trkpt lat="46.05683" lon="7.03032">
        <ele>1856</ele>
      </trkpt>
      <trkpt lat="46.05694" lon="7.03014">
        <ele>1855</ele>
      </trkpt>
      <trkpt lat="46.05725" lon="7.02988">
        <ele>1853</ele>
      </trkpt>
      <trkpt lat="46.05738" lon="7.02968">
        <ele>1854</ele>
      </trkpt>
      <trkpt lat="46.05751" lon="7.02965">
        <ele>1853</ele>
      </trkpt>
      <trkpt lat="46.05772" lon="7.0295">
        <ele>1851</ele>
      </trkpt>
      <trkpt lat="46.05786" lon="7.02941">
        <ele>1848</ele>
      </trkpt>
      <trkpt lat="46.05809" lon="7.02937">
        <ele>1843</ele>
      </trkpt>
      <trkpt lat="46.05822" lon="7.02923">
        <ele>1841</ele>
      </trkpt>
      <trkpt lat="46.05828" lon="7.02892">
        <ele>1842</ele>
      </trkpt>
      <trkpt lat="46.05833" lon="7.02866">
        <ele>1842</ele>
      </trkpt>
      <trkpt lat="46.05834" lon="7.02849">
        <ele>1843</ele>
      </trkpt>
      <trkpt lat="46.05837" lon="7.02832">
        <ele>1842</ele>
      </trkpt>
      <trkpt lat="46.05838" lon="7.02806">
        <ele>1838</ele>
      </trkpt>
      <trkpt lat="46.05838" lon="7.0278">
        <ele>1835</ele>
      </trkpt>
      <trkpt lat="46.05842" lon="7.02759">
        <ele>1831</ele>
      </trkpt>
      <trkpt lat="46.05845" lon="7.02743">
        <ele>1827</ele>
      </trkpt>
      <trkpt lat="46.05845" lon="7.02726">
        <ele>1822</ele>
      </trkpt>
      <trkpt lat="46.05847" lon="7.02707">
        <ele>1816</ele>
      </trkpt>
      <trkpt lat="46.05845" lon="7.02689">
        <ele>1812</ele>
      </trkpt>
      <trkpt lat="46.05829" lon="7.02662">
        <ele>1811</ele>
      </trkpt>
      <trkpt lat="46.05823" lon="7.02644">
        <ele>1806</ele>
      </trkpt>
      <trkpt lat="46.05815" lon="7.02624">
        <ele>1800</ele>
      </trkpt>
      <trkpt lat="46.05808" lon="7.02607">
        <ele>1795</ele>
      </trkpt>
      <trkpt lat="46.05798" lon="7.02595">
        <ele>1793</ele>
      </trkpt>
      <trkpt lat="46.05793" lon="7.02573">
        <ele>1785</ele>
      </trkpt>
      <trkpt lat="46.05787" lon="7.02559">
        <ele>1780</ele>
      </trkpt>
      <trkpt lat="46.05773" lon="7.02547">
        <ele>1778</ele>
      </trkpt>
      <trkpt lat="46.05756" lon="7.02538">
        <ele>1778</ele>
      </trkpt>
      <trkpt lat="46.05744" lon="7.02522">
        <ele>1771</ele>
      </trkpt>
      <trkpt lat="46.05729" lon="7.02516">
        <ele>1768</ele>
      </trkpt>
      <trkpt lat="46.05716" lon="7.02506">
        <ele>1762</ele>
      </trkpt>
      <trkpt lat="46.05689" lon="7.02495">
        <ele>1755</ele>
      </trkpt>
      <trkpt lat="46.05664" lon="7.02487">
        <ele>1751</ele>
      </trkpt>
      <trkpt lat="46.05654" lon="7.02487">
        <ele>1752</ele>
      </trkpt>
      <trkpt lat="46.05643" lon="7.0248">
        <ele>1750</ele>
      </trkpt>
      <trkpt lat="46.05632" lon="7.02476">
        <ele>1749</ele>
      </trkpt>
      <trkpt lat="46.05622" lon="7.02468">
        <ele>1748</ele>
      </trkpt>
      <trkpt lat="46.05612" lon="7.0246">
        <ele>1746</ele>
      </trkpt>
      <trkpt lat="46.05602" lon="7.02452">
        <ele>1746</ele>
      </trkpt>
      <trkpt lat="46.05595" lon="7.02439">
        <ele>1743</ele>
      </trkpt>
      <trkpt lat="46.05585" lon="7.02411">
        <ele>1739</ele>
      </trkpt>
      <trkpt lat="46.05584" lon="7.02374">
        <ele>1734</ele>
      </trkpt>
      <trkpt lat="46.05584" lon="7.02348">
        <ele>1729</ele>
      </trkpt>
      <trkpt lat="46.05584" lon="7.02325">
        <ele>1726</ele>
      </trkpt>
      <trkpt lat="46.05582" lon="7.02306">
        <ele>1727</ele>
      </trkpt>
      <trkpt lat="46.0558" lon="7.02284">
        <ele>1727</ele>
      </trkpt>
      <trkpt lat="46.05585" lon="7.02265">
        <ele>1722</ele>
      </trkpt>
      <trkpt lat="46.05581" lon="7.02245">
        <ele>1724</ele>
      </trkpt>
      <trkpt lat="46.0558" lon="7.02218">
        <ele>1726</ele>
      </trkpt>
      <trkpt lat="46.05584" lon="7.02204">
        <ele>1725</ele>
      </trkpt>
      <trkpt lat="46.05597" lon="7.02172">
        <ele>1720</ele>
      </trkpt>
      <trkpt lat="46.05603" lon="7.02155">
        <ele>1720</ele>
      </trkpt>
      <trkpt lat="46.05609" lon="7.02144">
        <ele>1720</ele>
      </trkpt>
      <trkpt lat="46.05616" lon="7.02128">
        <ele>1720</ele>
      </trkpt>
      <trkpt lat="46.05632" lon="7.02112">
        <ele>1716</ele>
      </trkpt>
      <trkpt lat="46.05635" lon="7.02095">
        <ele>1719</ele>
      </trkpt>
      <trkpt lat="46.05646" lon="7.02064">
        <ele>1717</ele>
      </trkpt>
      <trkpt lat="46.05658" lon="7.02041">
        <ele>1711</ele>
      </trkpt>
      <trkpt lat="46.05666" lon="7.02021">
        <ele>1707</ele>
      </trkpt>
      <trkpt lat="46.0567" lon="7.01999">
        <ele>1705</ele>
      </trkpt>
      <trkpt lat="46.05659" lon="7.01975">
        <ele>1715</ele>
      </trkpt>
      <trkpt lat="46.05673" lon="7.0196">
        <ele>1708</ele>
      </trkpt>
      <trkpt lat="46.05676" lon="7.01944">
        <ele>1707</ele>
      </trkpt>
      <trkpt lat="46.05679" lon="7.01927">
        <ele>1707</ele>
      </trkpt>
      <trkpt lat="46.05684" lon="7.01907">
        <ele>1706</ele>
      </trkpt>
      <trkpt lat="46.05698" lon="7.01904">
        <ele>1696</ele>
      </trkpt>
      <trkpt lat="46.05723" lon="7.01874">
        <ele>1682</ele>
      </trkpt>
      <trkpt lat="46.05727" lon="7.01859">
        <ele>1681</ele>
      </trkpt>
      <trkpt lat="46.05728" lon="7.01829">
        <ele>1683</ele>
      </trkpt>
      <trkpt lat="46.05723" lon="7.01804">
        <ele>1686</ele>
      </trkpt>
      <trkpt lat="46.05725" lon="7.01785">
        <ele>1683</ele>
      </trkpt>
      <trkpt lat="46.0572" lon="7.01769">
        <ele>1687</ele>
      </trkpt>
      <trkpt lat="46.05721" lon="7.01754">
        <ele>1685</ele>
      </trkpt>
      <trkpt lat="46.0572" lon="7.01736">
        <ele>1684</ele>
      </trkpt>
      <trkpt lat="46.05721" lon="7.01717">
        <ele>1681</ele>
      </trkpt>
      <trkpt lat="46.05728" lon="7.01703">
        <ele>1673</ele>
      </trkpt>
      <trkpt lat="46.05728" lon="7.01686">
        <ele>1671</ele>
      </trkpt>
      <trkpt lat="46.05725" lon="7.01656">
        <ele>1669</ele>
      </trkpt>
      <trkpt lat="46.05723" lon="7.01623">
        <ele>1665</ele>
      </trkpt>
      <trkpt lat="46.05726" lon="7.01603">
        <ele>1659</ele>
      </trkpt>
      <trkpt lat="46.05725" lon="7.0158">
        <ele>1656</ele>
      </trkpt>
      <trkpt lat="46.05721" lon="7.01568">
        <ele>1657</ele>
      </trkpt>
      <trkpt lat="46.05716" lon="7.01547">
        <ele>1658</ele>
      </trkpt>
      <trkpt lat="46.05708" lon="7.01535">
        <ele>1662</ele>
      </trkpt>
      <trkpt lat="46.05707" lon="7.01518">
        <ele>1660</ele>
      </trkpt>
      <trkpt lat="46.05703" lon="7.01496">
        <ele>1660</ele>
      </trkpt>
      <trkpt lat="46.05699" lon="7.0148">
        <ele>1663</ele>
      </trkpt>
      <trkpt lat="46.05693" lon="7.01464">
        <ele>1668</ele>
      </trkpt>
      <trkpt lat="46.05682" lon="7.01451">
        <ele>1676</ele>
      </trkpt>
      <trkpt lat="46.057" lon="7.01438">
        <ele>1661</ele>
      </trkpt>
      <trkpt lat="46.0571" lon="7.01437">
        <ele>1653</ele>
      </trkpt>
      <trkpt lat="46.05721" lon="7.01432">
        <ele>1644</ele>
      </trkpt>
      <trkpt lat="46.05727" lon="7.01415">
        <ele>1639</ele>
      </trkpt>
      <trkpt lat="46.05735" lon="7.01402">
        <ele>1632</ele>
      </trkpt>
      <trkpt lat="46.0574" lon="7.0137">
        <ele>1630</ele>
      </trkpt>
      <trkpt lat="46.05738" lon="7.01344">
        <ele>1633</ele>
      </trkpt>
      <trkpt lat="46.05743" lon="7.01329">
        <ele>1629</ele>
      </trkpt>
      <trkpt lat="46.05742" lon="7.01306">
        <ele>1627</ele>
      </trkpt>
      <trkpt lat="46.05733" lon="7.0127">
        <ele>1630</ele>
      </trkpt>
      <trkpt lat="46.05729" lon="7.01244">
        <ele>1629</ele>
      </trkpt>
      <trkpt lat="46.05727" lon="7.01228">
        <ele>1627</ele>
      </trkpt>
      <trkpt lat="46.05723" lon="7.0121">
        <ele>1625</ele>
      </trkpt>
      <trkpt lat="46.05718" lon="7.01198">
        <ele>1626</ele>
      </trkpt>
      <trkpt lat="46.05711" lon="7.01184">
        <ele>1628</ele>
      </trkpt>
      <trkpt lat="46.05716" lon="7.0117">
        <ele>1620</ele>
      </trkpt>
      <trkpt lat="46.05719" lon="7.01152">
        <ele>1613</ele>
      </trkpt>
      <trkpt lat="46.05728" lon="7.01152">
        <ele>1605</ele>
      </trkpt>
      <trkpt lat="46.05724" lon="7.01136">
        <ele>1606</ele>
      </trkpt>
      <trkpt lat="46.05715" lon="7.01118">
        <ele>1609</ele>
      </trkpt>
      <trkpt lat="46.05731" lon="7.011">
        <ele>1594</ele>
      </trkpt>
      <trkpt lat="46.05728" lon="7.01071">
        <ele>1594</ele>
      </trkpt>
      <trkpt lat="46.05739" lon="7.01059">
        <ele>1587</ele>
      </trkpt>
      <trkpt lat="46.05747" lon="7.01045">
        <ele>1582</ele>
      </trkpt>
      <trkpt lat="46.05756" lon="7.01024">
        <ele>1579</ele>
      </trkpt>
      <trkpt lat="46.05764" lon="7.01006">
        <ele>1577</ele>
      </trkpt>
      <trkpt lat="46.05769" lon="7.00987">
        <ele>1577</ele>
      </trkpt>
      <trkpt lat="46.05778" lon="7.00963">
        <ele>1577</ele>
      </trkpt>
      <trkpt lat="46.05779" lon="7.00947">
        <ele>1578</ele>
      </trkpt>
      <trkpt lat="46.05783" lon="7.00921">
        <ele>1579</ele>
      </trkpt>
      <trkpt lat="46.05783" lon="7.00903">
        <ele>1578</ele>
      </trkpt>
      <trkpt lat="46.05774" lon="7.00879">
        <ele>1581</ele>
      </trkpt>
      <trkpt lat="46.05767" lon="7.00852">
        <ele>1582</ele>
      </trkpt>
      <trkpt lat="46.05771" lon="7.00838">
        <ele>1579</ele>
      </trkpt>
      <trkpt lat="46.05773" lon="7.00814">
        <ele>1574</ele>
      </trkpt>
      <trkpt lat="46.05774" lon="7.00799">
        <ele>1571</ele>
      </trkpt>
      <trkpt lat="46.05783" lon="7.00783">
        <ele>1564</ele>
      </trkpt>
      <trkpt lat="46.05783" lon="7.00761">
        <ele>1561</ele>
      </trkpt>
      <trkpt lat="46.05781" lon="7.00745">
        <ele>1559</ele>
      </trkpt>
      <trkpt lat="46.05773" lon="7.00727">
        <ele>1559</ele>
      </trkpt>
      <trkpt lat="46.05775" lon="7.00706">
        <ele>1554</ele>
      </trkpt>
      <trkpt lat="46.05771" lon="7.00686">
        <ele>1552</ele>
      </trkpt>
      <trkpt lat="46.05766" lon="7.00664">
        <ele>1551</ele>
      </trkpt>
      <trkpt lat="46.05765" lon="7.00644">
        <ele>1547</ele>
      </trkpt>
      <trkpt lat="46.0576" lon="7.00624">
        <ele>1546</ele>
      </trkpt>
      <trkpt lat="46.05753" lon="7.00608">
        <ele>1546</ele>
      </trkpt>
      <trkpt lat="46.05747" lon="7.00594">
        <ele>1547</ele>
      </trkpt>
      <trkpt lat="46.05748" lon="7.00575">
        <ele>1543</ele>
      </trkpt>
      <trkpt lat="46.05743" lon="7.00549">
        <ele>1543</ele>
      </trkpt>
      <trkpt lat="46.05741" lon="7.00535">
        <ele>1542</ele>
      </trkpt>
      <trkpt lat="46.05748" lon="7.00521">
        <ele>1534</ele>
      </trkpt>
      <trkpt lat="46.05747" lon="7.00499">
        <ele>1532</ele>
      </trkpt>
      <trkpt lat="46.05749" lon="7.00481">
        <ele>1529</ele>
      </trkpt>
      <trkpt lat="46.05746" lon="7.00462">
        <ele>1531</ele>
      </trkpt>
      <trkpt lat="46.05745" lon="7.00445">
        <ele>1531</ele>
      </trkpt>
      <trkpt lat="46.05738" lon="7.00423">
        <ele>1535</ele>
      </trkpt>
      <trkpt lat="46.05738" lon="7.00396">
        <ele>1534</ele>
      </trkpt>
      <trkpt lat="46.05736" lon="7.0037">
        <ele>1535</ele>
      </trkpt>
      <trkpt lat="46.05731" lon="7.00353">
        <ele>1537</ele>
      </trkpt>
      <trkpt lat="46.05732" lon="7.00325">
        <ele>1536</ele>
      </trkpt>
      <trkpt lat="46.05745" lon="7.00312">
        <ele>1530</ele>
      </trkpt>
      <trkpt lat="46.05761" lon="7.00295">
        <ele>1525</ele>
      </trkpt>
      <trkpt lat="46.05766" lon="7.00277">
        <ele>1525</ele>
      </trkpt>
      <trkpt lat="46.05766" lon="7.00263">
        <ele>1526</ele>
      </trkpt>
      <trkpt lat="46.05768" lon="7.00244">
        <ele>1528</ele>
      </trkpt>
      <trkpt lat="46.05765" lon="7.00223">
        <ele>1530</ele>
      </trkpt>
      <trkpt lat="46.05762" lon="7.00202">
        <ele>1533</ele>
      </trkpt>
      <trkpt lat="46.05763" lon="7.00185">
        <ele>1534</ele>
      </trkpt>
      <trkpt lat="46.05766" lon="7.00168">
        <ele>1536</ele>
      </trkpt>
      <trkpt lat="46.05767" lon="7.0012">
        <ele>1533</ele>
      </trkpt>
      <trkpt lat="46.05756" lon="7.00114">
        <ele>1532</ele>
      </trkpt>
      <trkpt lat="46.05745" lon="7.00115">
        <ele>1532</ele>
      </trkpt>
      <trkpt lat="46.05735" lon="7.0011">
        <ele>1531</ele>
      </trkpt>
      <trkpt lat="46.05726" lon="7.00104">
        <ele>1531</ele>
      </trkpt>
      <trkpt lat="46.05717" lon="7.00093">
        <ele>1530</ele>
      </trkpt>
      <trkpt lat="46.05705" lon="7.00076">
        <ele>1527</ele>
      </trkpt>
      <trkpt lat="46.05684" lon="7.00073">
        <ele>1526</ele>
      </trkpt>
      <trkpt lat="46.05664" lon="7.00089">
        <ele>1530</ele>
      </trkpt>
      <trkpt lat="46.05651" lon="7.00088">
        <ele>1530</ele>
      </trkpt>
      <trkpt lat="46.05637" lon="7.00074">
        <ele>1528</ele>
      </trkpt>
      <trkpt lat="46.05614" lon="7.00059">
        <ele>1525</ele>
      </trkpt>
      <trkpt lat="46.05603" lon="7.00049">
        <ele>1522</ele>
      </trkpt>
      <trkpt lat="46.05592" lon="7.00036">
        <ele>1519</ele>
      </trkpt>
      <trkpt lat="46.05561" lon="7.00019">
        <ele>1511</ele>
      </trkpt>
      <trkpt lat="46.05544" lon="7.0002">
        <ele>1510</ele>
      </trkpt>
      <trkpt lat="46.05532" lon="7.00019">
        <ele>1509</ele>
      </trkpt>
      <trkpt lat="46.05521" lon="7.00026">
        <ele>1513</ele>
      </trkpt>
      <trkpt lat="46.05513" lon="7.00037">
        <ele>1519</ele>
      </trkpt>
      <trkpt lat="46.05503" lon="7.00055">
        <ele>1531</ele>
      </trkpt>
      <trkpt lat="46.05483" lon="7.00067">
        <ele>1538</ele>
      </trkpt>
      <trkpt lat="46.05469" lon="7.00066">
        <ele>1537</ele>
      </trkpt>
      <trkpt lat="46.05439" lon="7.00055">
        <ele>1528</ele>
      </trkpt>
      <trkpt lat="46.05428" lon="7.00055">
        <ele>1528</ele>
      </trkpt>
      <trkpt lat="46.05409" lon="7.00052">
        <ele>1525</ele>
      </trkpt>
      <trkpt lat="46.0539" lon="7.00059">
        <ele>1531</ele>
      </trkpt>
      <trkpt lat="46.05364" lon="7.00057">
        <ele>1531</ele>
      </trkpt>
      <trkpt lat="46.0535" lon="7.00059">
        <ele>1533</ele>
      </trkpt>
      <trkpt lat="46.05331" lon="7.0006">
        <ele>1535</ele>
      </trkpt>
      <trkpt lat="46.05317" lon="7.00062">
        <ele>1538</ele>
      </trkpt>
      <trkpt lat="46.05294" lon="7.00073">
        <ele>1548</ele>
      </trkpt>
      <trkpt lat="46.05284" lon="7.00083">
        <ele>1556</ele>
      </trkpt>
      <trkpt lat="46.05274" lon="7.00088">
        <ele>1560</ele>
      </trkpt>
      <trkpt lat="46.05291" lon="7.00058">
        <ele>1537</ele>
      </trkpt>
      <trkpt lat="46.053" lon="7.00047">
        <ele>1529</ele>
      </trkpt>
      <trkpt lat="46.05287" lon="7.00041">
        <ele>1526</ele>
      </trkpt>
      <trkpt lat="46.05275" lon="7.00024">
        <ele>1514</ele>
      </trkpt>
      <trkpt lat="46.05268" lon="7.00007">
        <ele>1501</ele>
      </trkpt>
      <trkpt lat="46.05276" lon="6.99998">
        <ele>1496</ele>
      </trkpt>
      <trkpt lat="46.05278" lon="6.99984">
        <ele>1496</ele>
      </trkpt>
      <trkpt lat="46.05269" lon="6.99976">
        <ele>1496</ele>
      </trkpt>
      <trkpt lat="46.05254" lon="6.99975">
        <ele>1496</ele>
      </trkpt>
      <trkpt lat="46.0525" lon="6.9996">
        <ele>1496</ele>
      </trkpt>
      <trkpt lat="46.05259" lon="6.99953">
        <ele>1476</ele>
      </trkpt>
      <trkpt lat="46.05274" lon="6.99957">
        <ele>1479</ele>
      </trkpt>
      <trkpt lat="46.05284" lon="6.99951">
        <ele>1477</ele>
      </trkpt>
      <trkpt lat="46.053" lon="6.99935">
        <ele>1471</ele>
      </trkpt>
      <trkpt lat="46.0531" lon="6.99931">
        <ele>1470</ele>
      </trkpt>
      <trkpt lat="46.05319" lon="6.99925">
        <ele>1469</ele>
      </trkpt>
      <trkpt lat="46.05297" lon="6.99918">
        <ele>1464</ele>
      </trkpt>
      <trkpt lat="46.05305" lon="6.99906">
        <ele>1459</ele>
      </trkpt>
      <trkpt lat="46.05286" lon="6.99905">
        <ele>1458</ele>
      </trkpt>
      <trkpt lat="46.05294" lon="6.99894">
        <ele>1453</ele>
      </trkpt>
      <trkpt lat="46.053" lon="6.99879">
        <ele>1446</ele>
      </trkpt>
      <trkpt lat="46.05287" lon="6.99876">
        <ele>1445</ele>
      </trkpt>
      <trkpt lat="46.05287" lon="6.99866">
        <ele>1440</ele>
      </trkpt>
      <trkpt lat="46.05297" lon="6.99857">
        <ele>1436</ele>
      </trkpt>
      <trkpt lat="46.05285" lon="6.99848">
        <ele>1432</ele>
      </trkpt>
      <trkpt lat="46.05289" lon="6.99824">
        <ele>1420</ele>
      </trkpt>
      <trkpt lat="46.05279" lon="6.99817">
        <ele>1416</ele>
      </trkpt>
      <trkpt lat="46.05269" lon="6.99797">
        <ele>1406</ele>
      </trkpt>
      <trkpt lat="46.05267" lon="6.99784">
        <ele>1399</ele>
      </trkpt>
      <trkpt lat="46.05274" lon="6.99768">
        <ele>1390</ele>
      </trkpt>
      <trkpt lat="46.05276" lon="6.99745">
        <ele>1378</ele>
      </trkpt>
      <trkpt lat="46.05271" lon="6.99728">
        <ele>1372</ele>
      </trkpt>
      <trkpt lat="46.05284" lon="6.99721">
        <ele>1368</ele>
      </trkpt>
      <trkpt lat="46.05298" lon="6.99723">
        <ele>1367</ele>
      </trkpt>
      <trkpt lat="46.05308" lon="6.9974">
        <ele>1372</ele>
      </trkpt>
      <trkpt lat="46.05323" lon="6.99754">
        <ele>1376</ele>
      </trkpt>
      <trkpt lat="46.05337" lon="6.99753">
        <ele>1374</ele>
      </trkpt>
      <trkpt lat="46.05349" lon="6.99746">
        <ele>1369</ele>
      </trkpt>
      <trkpt lat="46.0537" lon="6.99736">
        <ele>1364</ele>
      </trkpt>
      <trkpt lat="46.0539" lon="6.99726">
        <ele>1357</ele>
      </trkpt>
      <trkpt lat="46.05409" lon="6.99724">
        <ele>1354</ele>
      </trkpt>
      <trkpt lat="46.05447" lon="6.99713">
        <ele>1345</ele>
      </trkpt>
      <trkpt lat="46.05476" lon="6.99707">
        <ele>1339</ele>
      </trkpt>
      <trkpt lat="46.05489" lon="6.99707">
        <ele>1338</ele>
      </trkpt>
      <trkpt lat="46.05503" lon="6.99712">
        <ele>1338</ele>
      </trkpt>
      <trkpt lat="46.05513" lon="6.99715">
        <ele>1338</ele>
      </trkpt>
      <trkpt lat="46.0551" lon="6.99702">
        <ele>1334</ele>
      </trkpt>
      <trkpt lat="46.05487" lon="6.9968">
        <ele>1327</ele>
      </trkpt>
      <trkpt lat="46.05479" lon="6.99671">
        <ele>1324</ele>
      </trkpt>
      <trkpt lat="46.05471" lon="6.99652">
        <ele>1322</ele>
      </trkpt>
      <trkpt lat="46.05473" lon="6.99634">
        <ele>1320</ele>
      </trkpt>
      <trkpt lat="46.05491" lon="6.99634">
        <ele>1318</ele>
      </trkpt>
      <trkpt lat="46.05505" lon="6.99633">
        <ele>1317</ele>
      </trkpt>
      <trkpt lat="46.05516" lon="6.99631">
        <ele>1316</ele>
      </trkpt>
      <trkpt lat="46.05533" lon="6.99627">
        <ele>1315</ele>
      </trkpt>
      <trkpt lat="46.05547" lon="6.99619">
        <ele>1313</ele>
      </trkpt>
      <trkpt lat="46.05562" lon="6.996">
        <ele>1310</ele>
      </trkpt>
      <trkpt lat="46.05581" lon="6.99589">
        <ele>1307</ele>
      </trkpt>
      <trkpt lat="46.05593" lon="6.99585">
        <ele>1305</ele>
      </trkpt>
      <trkpt lat="46.05597" lon="6.99566">
        <ele>1304</ele>
      </trkpt>
      <trkpt lat="46.05604" lon="6.99552">
        <ele>1303</ele>
      </trkpt>
      <trkpt lat="46.05615" lon="6.99535">
        <ele>1301</ele>
      </trkpt>
      <trkpt lat="46.05618" lon="6.99521">
        <ele>1300</ele>
      </trkpt>
      <trkpt lat="46.05603" lon="6.995">
        <ele>1305</ele>
      </trkpt>
      <trkpt lat="46.05587" lon="6.99499">
        <ele>1305</ele>
      </trkpt>
      <trkpt lat="46.05555" lon="6.99506">
        <ele>1305</ele>
      </trkpt>
      <trkpt lat="46.05556" lon="6.99493">
        <ele>1305</ele>
      </trkpt>
      <trkpt lat="46.05628" lon="6.99483">
        <ele>1293</ele>
      </trkpt>
      <trkpt lat="46.05648" lon="6.99452">
        <ele>1285</ele>
      </trkpt>
      <trkpt lat="46.05642" lon="6.99426">
        <ele>1285</ele>
      </trkpt>
      <trkpt lat="46.0562" lon="6.99408">
        <ele>1294</ele>
      </trkpt>
      <trkpt lat="46.05613" lon="6.99359">
        <ele>1304</ele>
      </trkpt>
      <trkpt lat="46.05528" lon="6.99299">
        <ele>1308</ele>
      </trkpt>
      <trkpt lat="46.05478" lon="6.99305">
        <ele>1308</ele>
      </trkpt>
      <trkpt lat="46.05345" lon="6.99255">
        <ele>1331</ele>
      </trkpt>
      <trkpt lat="46.05323" lon="6.9924">
        <ele>1331</ele>
      </trkpt>
      <trkpt lat="46.05253" lon="6.99234">
        <ele>1331</ele>
      </trkpt>
      <trkpt lat="46.05177" lon="6.99221">
        <ele>1328</ele>
      </trkpt>
      <trkpt lat="46.05146" lon="6.99212">
        <ele>1328</ele>
      </trkpt>
      <trkpt lat="46.05138" lon="6.99203">
        <ele>1357</ele>
      </trkpt>
      <trkpt lat="46.05148" lon="6.99191">
        <ele>1362</ele>
      </trkpt>
      <trkpt lat="46.05161" lon="6.99188">
        <ele>1362</ele>
      </trkpt>
      <trkpt lat="46.05167" lon="6.99177">
        <ele>1368</ele>
      </trkpt>
      <trkpt lat="46.0518" lon="6.9918">
        <ele>1368</ele>
      </trkpt>
      <trkpt lat="46.05196" lon="6.99189">
        <ele>1364</ele>
      </trkpt>
      <trkpt lat="46.05207" lon="6.99184">
        <ele>1369</ele>
      </trkpt>
      <trkpt lat="46.05216" lon="6.99181">
        <ele>1372</ele>
      </trkpt>
      <trkpt lat="46.05226" lon="6.99175">
        <ele>1377</ele>
      </trkpt>
      <trkpt lat="46.05236" lon="6.99166">
        <ele>1384</ele>
      </trkpt>
      <trkpt lat="46.05246" lon="6.99157">
        <ele>1390</ele>
      </trkpt>
      <trkpt lat="46.0526" lon="6.99159">
        <ele>1390</ele>
      </trkpt>
      <trkpt lat="46.05279" lon="6.99148">
        <ele>1396</ele>
      </trkpt>
      <trkpt lat="46.05291" lon="6.99144">
        <ele>1398</ele>
      </trkpt>
      <trkpt lat="46.05299" lon="6.99141">
        <ele>1400</ele>
      </trkpt>
      <trkpt lat="46.0531" lon="6.99138">
        <ele>1402</ele>
      </trkpt>
      <trkpt lat="46.05324" lon="6.99138">
        <ele>1401</ele>
      </trkpt>
      <trkpt lat="46.05339" lon="6.99131">
        <ele>1406</ele>
      </trkpt>
      <trkpt lat="46.05356" lon="6.99125">
        <ele>1412</ele>
      </trkpt>
      <trkpt lat="46.05371" lon="6.99116">
        <ele>1418</ele>
      </trkpt>
      <trkpt lat="46.05389" lon="6.99116">
        <ele>1420</ele>
      </trkpt>
      <trkpt lat="46.05406" lon="6.99105">
        <ele>1428</ele>
      </trkpt>
      <trkpt lat="46.05421" lon="6.99104">
        <ele>1429</ele>
      </trkpt>
      <trkpt lat="46.0544" lon="6.99103">
        <ele>1431</ele>
      </trkpt>
      <trkpt lat="46.05426" lon="6.991">
        <ele>1432</ele>
      </trkpt>
      <trkpt lat="46.05417" lon="6.99095">
        <ele>1434</ele>
      </trkpt>
      <trkpt lat="46.05404" lon="6.99067">
        <ele>1449</ele>
      </trkpt>
      <trkpt lat="46.05393" lon="6.99067">
        <ele>1449</ele>
      </trkpt>
      <trkpt lat="46.05375" lon="6.99052">
        <ele>1457</ele>
      </trkpt>
      <trkpt lat="46.05361" lon="6.99057">
        <ele>1453</ele>
      </trkpt>
      <trkpt lat="46.05351" lon="6.99054">
        <ele>1454</ele>
      </trkpt>
      <trkpt lat="46.05341" lon="6.99053">
        <ele>1454</ele>
      </trkpt>
      <trkpt lat="46.05326" lon="6.99038">
        <ele>1461</ele>
      </trkpt>
      <trkpt lat="46.05318" lon="6.9903">
        <ele>1466</ele>
      </trkpt>
      <trkpt lat="46.0531" lon="6.99019">
        <ele>1471</ele>
      </trkpt>
      <trkpt lat="46.05296" lon="6.99009">
        <ele>1475</ele>
      </trkpt>
      <trkpt lat="46.05285" lon="6.98999">
        <ele>1478</ele>
      </trkpt>
      <trkpt lat="46.05279" lon="6.98988">
        <ele>1485</ele>
      </trkpt>
      <trkpt lat="46.05271" lon="6.98999">
        <ele>1475</ele>
      </trkpt>
      <trkpt lat="46.05261" lon="6.98983">
        <ele>1485</ele>
      </trkpt>
      <trkpt lat="46.05251" lon="6.98993">
        <ele>1476</ele>
      </trkpt>
      <trkpt lat="46.05247" lon="6.98985">
        <ele>1482</ele>
      </trkpt>
      <trkpt lat="46.05239" lon="6.98972">
        <ele>1492</ele>
      </trkpt>
      <trkpt lat="46.05234" lon="6.9896">
        <ele>1500</ele>
      </trkpt>
      <trkpt lat="46.05226" lon="6.98951">
        <ele>1506</ele>
      </trkpt>
      <trkpt lat="46.05217" lon="6.98927">
        <ele>1523</ele>
      </trkpt>
      <trkpt lat="46.05199" lon="6.98918">
        <ele>1528</ele>
      </trkpt>
      <trkpt lat="46.0519" lon="6.98921">
        <ele>1525</ele>
      </trkpt>
      <trkpt lat="46.05184" lon="6.98909">
        <ele>1532</ele>
      </trkpt>
      <trkpt lat="46.05166" lon="6.98903">
        <ele>1534</ele>
      </trkpt>
      <trkpt lat="46.05167" lon="6.9889">
        <ele>1541</ele>
      </trkpt>
      <trkpt lat="46.05176" lon="6.98881">
        <ele>1547</ele>
      </trkpt>
      <trkpt lat="46.05188" lon="6.98867">
        <ele>1556</ele>
      </trkpt>
      <trkpt lat="46.05194" lon="6.98853">
        <ele>1564</ele>
      </trkpt>
      <trkpt lat="46.05208" lon="6.98848">
        <ele>1568</ele>
      </trkpt>
      <trkpt lat="46.05198" lon="6.9885">
        <ele>1566</ele>
      </trkpt>
      <trkpt lat="46.05189" lon="6.98842">
        <ele>1570</ele>
      </trkpt>
      <trkpt lat="46.05171" lon="6.98834">
        <ele>1574</ele>
      </trkpt>
      <trkpt lat="46.05159" lon="6.9883">
        <ele>1575</ele>
      </trkpt>
      <trkpt lat="46.05151" lon="6.98828">
        <ele>1576</ele>
      </trkpt>
      <trkpt lat="46.05135" lon="6.98819">
        <ele>1580</ele>
      </trkpt>
      <trkpt lat="46.05127" lon="6.98811">
        <ele>1585</ele>
      </trkpt>
      <trkpt lat="46.05108" lon="6.98802">
        <ele>1590</ele>
      </trkpt>
      <trkpt lat="46.05099" lon="6.98809">
        <ele>1585</ele>
      </trkpt>
      <trkpt lat="46.05091" lon="6.98803">
        <ele>1589</ele>
      </trkpt>
      <trkpt lat="46.0508" lon="6.98806">
        <ele>1587</ele>
      </trkpt>
      <trkpt lat="46.05065" lon="6.9881">
        <ele>1583</ele>
      </trkpt>
      <trkpt lat="46.05061" lon="6.98791">
        <ele>1595</ele>
      </trkpt>
      <trkpt lat="46.05055" lon="6.98774">
        <ele>1605</ele>
      </trkpt>
      <trkpt lat="46.05045" lon="6.98778">
        <ele>1601</ele>
      </trkpt>
      <trkpt lat="46.05036" lon="6.98774">
        <ele>1604</ele>
      </trkpt>
      <trkpt lat="46.05027" lon="6.98767">
        <ele>1607</ele>
      </trkpt>
      <trkpt lat="46.05019" lon="6.98737">
        <ele>1626</ele>
      </trkpt>
      <trkpt lat="46.0501" lon="6.98736">
        <ele>1627</ele>
      </trkpt>
      <trkpt lat="46.05002" lon="6.98727">
        <ele>1631</ele>
      </trkpt>
      <trkpt lat="46.0499" lon="6.98729">
        <ele>1628</ele>
      </trkpt>
      <trkpt lat="46.04979" lon="6.98723">
        <ele>1630</ele>
      </trkpt>
      <trkpt lat="46.04969" lon="6.98712">
        <ele>1635</ele>
      </trkpt>
      <trkpt lat="46.04962" lon="6.98706">
        <ele>1639</ele>
      </trkpt>
      <trkpt lat="46.0495" lon="6.98719">
        <ele>1626</ele>
      </trkpt>
      <trkpt lat="46.04944" lon="6.98704">
        <ele>1637</ele>
      </trkpt>
      <trkpt lat="46.04937" lon="6.98691">
        <ele>1646</ele>
      </trkpt>
      <trkpt lat="46.04932" lon="6.98674">
        <ele>1660</ele>
      </trkpt>
      <trkpt lat="46.04917" lon="6.98674">
        <ele>1658</ele>
      </trkpt>
      <trkpt lat="46.04908" lon="6.98673">
        <ele>1657</ele>
      </trkpt>
      <trkpt lat="46.04893" lon="6.98681">
        <ele>1647</ele>
      </trkpt>
      <trkpt lat="46.04885" lon="6.9867">
        <ele>1653</ele>
      </trkpt>
      <trkpt lat="46.04878" lon="6.98658">
        <ele>1660</ele>
      </trkpt>
      <trkpt lat="46.04866" lon="6.98652">
        <ele>1660</ele>
      </trkpt>
      <trkpt lat="46.04859" lon="6.98636">
        <ele>1668</ele>
      </trkpt>
      <trkpt lat="46.04847" lon="6.98646">
        <ele>1659</ele>
      </trkpt>
      <trkpt lat="46.04834" lon="6.98637">
        <ele>1661</ele>
      </trkpt>
      <trkpt lat="46.04834" lon="6.98622">
        <ele>1670</ele>
      </trkpt>
      <trkpt lat="46.04825" lon="6.98576">
        <ele>1694</ele>
      </trkpt>
      <trkpt lat="46.04816" lon="6.98564">
        <ele>1698</ele>
      </trkpt>
      <trkpt lat="46.04804" lon="6.98552">
        <ele>1699</ele>
      </trkpt>
      <trkpt lat="46.048" lon="6.98541">
        <ele>1704</ele>
      </trkpt>
      <trkpt lat="46.04791" lon="6.98538">
        <ele>1702</ele>
      </trkpt>
      <trkpt lat="46.048" lon="6.98522">
        <ele>1713</ele>
      </trkpt>
      <trkpt lat="46.04817" lon="6.9851">
        <ele>1725</ele>
      </trkpt>
      <trkpt lat="46.04806" lon="6.98515">
        <ele>1719</ele>
      </trkpt>
      <trkpt lat="46.04799" lon="6.98503">
        <ele>1722</ele>
      </trkpt>
      <trkpt lat="46.04796" lon="6.98489">
        <ele>1728</ele>
      </trkpt>
      <trkpt lat="46.04786" lon="6.98479">
        <ele>1730</ele>
      </trkpt>
      <trkpt lat="46.04777" lon="6.98477">
        <ele>1727</ele>
      </trkpt>
      <trkpt lat="46.04767" lon="6.98454">
        <ele>1735</ele>
      </trkpt>
      <trkpt lat="46.04762" lon="6.98438">
        <ele>1741</ele>
      </trkpt>
      <trkpt lat="46.0475" lon="6.98428">
        <ele>1741</ele>
      </trkpt>
      <trkpt lat="46.04742" lon="6.98418">
        <ele>1744</ele>
      </trkpt>
      <trkpt lat="46.04736" lon="6.98407">
        <ele>1750</ele>
      </trkpt>
      <trkpt lat="46.04724" lon="6.98408">
        <ele>1747</ele>
      </trkpt>
      <trkpt lat="46.04715" lon="6.98399">
        <ele>1751</ele>
      </trkpt>
      <trkpt lat="46.047" lon="6.98395">
        <ele>1751</ele>
      </trkpt>
      <trkpt lat="46.04687" lon="6.98382">
        <ele>1756</ele>
      </trkpt>
      <trkpt lat="46.04677" lon="6.98383">
        <ele>1754</ele>
      </trkpt>
      <trkpt lat="46.04666" lon="6.9838">
        <ele>1753</ele>
      </trkpt>
      <trkpt lat="46.04655" lon="6.98376">
        <ele>1755</ele>
      </trkpt>
      <trkpt lat="46.04641" lon="6.9836">
        <ele>1763</ele>
      </trkpt>
      <trkpt lat="46.04627" lon="6.98358">
        <ele>1763</ele>
      </trkpt>
      <trkpt lat="46.04609" lon="6.98364">
        <ele>1759</ele>
      </trkpt>
      <trkpt lat="46.04598" lon="6.98355">
        <ele>1764</ele>
      </trkpt>
      <trkpt lat="46.04591" lon="6.98355">
        <ele>1763</ele>
      </trkpt>
      <trkpt lat="46.04582" lon="6.98334">
        <ele>1772</ele>
      </trkpt>
      <trkpt lat="46.04579" lon="6.98316">
        <ele>1778</ele>
      </trkpt>
      <trkpt lat="46.04582" lon="6.98295">
        <ele>1787</ele>
      </trkpt>
      <trkpt lat="46.04573" lon="6.98278">
        <ele>1792</ele>
      </trkpt>
      <trkpt lat="46.04569" lon="6.98276">
        <ele>1792</ele>
      </trkpt>
      <trkpt lat="46.04557" lon="6.98254">
        <ele>1799</ele>
      </trkpt>
      <trkpt lat="46.04547" lon="6.9824">
        <ele>1804</ele>
      </trkpt>
      <trkpt lat="46.04555" lon="6.9823">
        <ele>1811</ele>
      </trkpt>
      <trkpt lat="46.04575" lon="6.98235">
        <ele>1812</ele>
      </trkpt>
      <trkpt lat="46.04586" lon="6.98233">
        <ele>1815</ele>
      </trkpt>
      <trkpt lat="46.04589" lon="6.98231">
        <ele>1817</ele>
      </trkpt>
      <trkpt lat="46.04597" lon="6.9824">
        <ele>1813</ele>
      </trkpt>
      <trkpt lat="46.04613" lon="6.98239">
        <ele>1818</ele>
      </trkpt>
      <trkpt lat="46.04616" lon="6.98227">
        <ele>1825</ele>
      </trkpt>
      <trkpt lat="46.04611" lon="6.98212">
        <ele>1832</ele>
      </trkpt>
      <trkpt lat="46.04603" lon="6.98202">
        <ele>1836</ele>
      </trkpt>
      <trkpt lat="46.04594" lon="6.98197">
        <ele>1838</ele>
      </trkpt>
      <trkpt lat="46.04587" lon="6.98189">
        <ele>1841</ele>
      </trkpt>
      <trkpt lat="46.04584" lon="6.98176">
        <ele>1849</ele>
      </trkpt>
      <trkpt lat="46.04597" lon="6.98173">
        <ele>1852</ele>
      </trkpt>
      <trkpt lat="46.04596" lon="6.9816">
        <ele>1858</ele>
      </trkpt>
      <trkpt lat="46.04586" lon="6.98155">
        <ele>1859</ele>
      </trkpt>
      <trkpt lat="46.04596" lon="6.98146">
        <ele>1863</ele>
      </trkpt>
      <trkpt lat="46.04608" lon="6.98138">
        <ele>1868</ele>
      </trkpt>
      <trkpt lat="46.04618" lon="6.98133">
        <ele>1871</ele>
      </trkpt>
      <trkpt lat="46.04627" lon="6.98127">
        <ele>1875</ele>
      </trkpt>
      <trkpt lat="46.04643" lon="6.98115">
        <ele>1883</ele>
      </trkpt>
      <trkpt lat="46.04663" lon="6.98104">
        <ele>1891</ele>
      </trkpt>
      <trkpt lat="46.0468" lon="6.98075">
        <ele>1905</ele>
      </trkpt>
      <trkpt lat="46.0469" lon="6.9807">
        <ele>1907</ele>
      </trkpt>
      <trkpt lat="46.04703" lon="6.98071">
        <ele>1908</ele>
      </trkpt>
      <trkpt lat="46.04712" lon="6.98072">
        <ele>1908</ele>
      </trkpt>
      <trkpt lat="46.04726" lon="6.98077">
        <ele>1908</ele>
      </trkpt>
      <trkpt lat="46.04735" lon="6.98065">
        <ele>1912</ele>
      </trkpt>
      <trkpt lat="46.04732" lon="6.98049">
        <ele>1916</ele>
      </trkpt>
      <trkpt lat="46.04729" lon="6.98036">
        <ele>1920</ele>
      </trkpt>
      <trkpt lat="46.04721" lon="6.98028">
        <ele>1921</ele>
      </trkpt>
      <trkpt lat="46.04712" lon="6.98032">
        <ele>1920</ele>
      </trkpt>
      <trkpt lat="46.04702" lon="6.9803">
        <ele>1920</ele>
      </trkpt>
      <trkpt lat="46.04706" lon="6.98008">
        <ele>1926</ele>
      </trkpt>
      <trkpt lat="46.04715" lon="6.97997">
        <ele>1929</ele>
      </trkpt>
      <trkpt lat="46.0473" lon="6.97982">
        <ele>1933</ele>
      </trkpt>
      <trkpt lat="46.04746" lon="6.97966">
        <ele>1937</ele>
      </trkpt>
      <trkpt lat="46.04753" lon="6.97949">
        <ele>1941</ele>
      </trkpt>
      <trkpt lat="46.04761" lon="6.97935">
        <ele>1945</ele>
      </trkpt>
      <trkpt lat="46.04768" lon="6.97925">
        <ele>1948</ele>
      </trkpt>
      <trkpt lat="46.04776" lon="6.97911">
        <ele>1954</ele>
      </trkpt>
      <trkpt lat="46.04787" lon="6.97901">
        <ele>1959</ele>
      </trkpt>
      <trkpt lat="46.04794" lon="6.97893">
        <ele>1963</ele>
      </trkpt>
      <trkpt lat="46.0481" lon="6.97891">
        <ele>1965</ele>
      </trkpt>
      <trkpt lat="46.04834" lon="6.97896">
        <ele>1965</ele>
      </trkpt>
      <trkpt lat="46.04845" lon="6.9789">
        <ele>1967</ele>
      </trkpt>
      <trkpt lat="46.04855" lon="6.97883">
        <ele>1970</ele>
      </trkpt>
      <trkpt lat="46.04863" lon="6.97875">
        <ele>1973</ele>
      </trkpt>
      <trkpt lat="46.04874" lon="6.97885">
        <ele>1970</ele>
      </trkpt>
      <trkpt lat="46.04876" lon="6.97903">
        <ele>1965</ele>
      </trkpt>
      <trkpt lat="46.04891" lon="6.97907">
        <ele>1964</ele>
      </trkpt>
      <trkpt lat="46.04906" lon="6.97902">
        <ele>1967</ele>
      </trkpt>
      <trkpt lat="46.04913" lon="6.97892">
        <ele>1970</ele>
      </trkpt>
      <trkpt lat="46.04928" lon="6.97887">
        <ele>1972</ele>
      </trkpt>
      <trkpt lat="46.04946" lon="6.97873">
        <ele>1976</ele>
      </trkpt>
      <trkpt lat="46.04953" lon="6.97848">
        <ele>1982</ele>
      </trkpt>
      <trkpt lat="46.04955" lon="6.9784">
        <ele>1983</ele>
      </trkpt>
      <trkpt lat="46.04961" lon="6.97804">
        <ele>1988</ele>
      </trkpt>
      <trkpt lat="46.04957" lon="6.97793">
        <ele>1990</ele>
      </trkpt>
      <trkpt lat="46.04952" lon="6.9778">
        <ele>1992</ele>
      </trkpt>
      <trkpt lat="46.04948" lon="6.97766">
        <ele>1994</ele>
      </trkpt>
      <trkpt lat="46.04939" lon="6.97749">
        <ele>1996</ele>
      </trkpt>
      <trkpt lat="46.04928" lon="6.97739">
        <ele>1997</ele>
      </trkpt>
      <trkpt lat="46.04917" lon="6.9772">
        <ele>1998</ele>
      </trkpt>
      <trkpt lat="46.04904" lon="6.97692">
        <ele>2002</ele>
      </trkpt>
      <trkpt lat="46.04878" lon="6.97653">
        <ele>2008</ele>
      </trkpt>
      <trkpt lat="46.04869" lon="6.97641">
        <ele>2009</ele>
      </trkpt>
      <trkpt lat="46.04859" lon="6.97628">
        <ele>2010</ele>
      </trkpt>
      <trkpt lat="46.0485" lon="6.97607">
        <ele>2009</ele>
      </trkpt>
      <trkpt lat="46.04846" lon="6.97609">
        <ele>2011</ele>
      </trkpt>
      <trkpt lat="46.04836" lon="6.976">
        <ele>2013</ele>
      </trkpt>
      <trkpt lat="46.04821" lon="6.97582">
        <ele>2019</ele>
      </trkpt>
      <trkpt lat="46.04811" lon="6.97567">
        <ele>2021</ele>
      </trkpt>
      <trkpt lat="46.04803" lon="6.9755">
        <ele>2020</ele>
      </trkpt>
      <trkpt lat="46.04795" lon="6.97539">
        <ele>2021</ele>
      </trkpt>
      <trkpt lat="46.04785" lon="6.97533">
        <ele>2027</ele>
      </trkpt>
      <trkpt lat="46.0477" lon="6.97524">
        <ele>2034</ele>
      </trkpt>
      <trkpt lat="46.04759" lon="6.9752">
        <ele>2040</ele>
      </trkpt>
      <trkpt lat="46.0475" lon="6.97513">
        <ele>2044</ele>
      </trkpt>
      <trkpt lat="46.04734" lon="6.97485">
        <ele>2046</ele>
      </trkpt>
      <trkpt lat="46.04727" lon="6.97473">
        <ele>2045</ele>
      </trkpt>
      <trkpt lat="46.04725" lon="6.97449">
        <ele>2038</ele>
      </trkpt>
      <trkpt lat="46.04724" lon="6.97436">
        <ele>2033</ele>
      </trkpt>
      <trkpt lat="46.04726" lon="6.97423">
        <ele>2027</ele>
      </trkpt>
      <trkpt lat="46.04718" lon="6.97411">
        <ele>2027</ele>
      </trkpt>
      <trkpt lat="46.04708" lon="6.97388">
        <ele>2023</ele>
      </trkpt>
      <trkpt lat="46.04699" lon="6.97376">
        <ele>2023</ele>
      </trkpt>
      <trkpt lat="46.0469" lon="6.97365">
        <ele>2024</ele>
      </trkpt>
      <trkpt lat="46.04681" lon="6.97356">
        <ele>2025</ele>
      </trkpt>
      <trkpt lat="46.04671" lon="6.97348">
        <ele>2028</ele>
      </trkpt>
      <trkpt lat="46.04663" lon="6.97339">
        <ele>2029</ele>
      </trkpt>
      <trkpt lat="46.0465" lon="6.97331">
        <ele>2030</ele>
      </trkpt>
      <trkpt lat="46.04632" lon="6.97308">
        <ele>2026</ele>
      </trkpt>
      <trkpt lat="46.04613" lon="6.9729">
        <ele>2026</ele>
      </trkpt>
      <trkpt lat="46.04601" lon="6.9728">
        <ele>2026</ele>
      </trkpt>
      <trkpt lat="46.04592" lon="6.97275">
        <ele>2027</ele>
      </trkpt>
      <trkpt lat="46.04566" lon="6.97265">
        <ele>2030</ele>
      </trkpt>
      <trkpt lat="46.04553" lon="6.97259">
        <ele>2030</ele>
      </trkpt>
      <trkpt lat="46.04529" lon="6.97246">
        <ele>2031</ele>
      </trkpt>
      <trkpt lat="46.04512" lon="6.97234">
        <ele>2032</ele>
      </trkpt>
      <trkpt lat="46.04496" lon="6.9722">
        <ele>2034</ele>
      </trkpt>
      <trkpt lat="46.04482" lon="6.97196">
        <ele>2033</ele>
      </trkpt>
      <trkpt lat="46.0447" lon="6.97181">
        <ele>2033</ele>
      </trkpt>
      <trkpt lat="46.04457" lon="6.97161">
        <ele>2032</ele>
      </trkpt>
      <trkpt lat="46.04448" lon="6.97151">
        <ele>2032</ele>
      </trkpt>
      <trkpt lat="46.04433" lon="6.97137">
        <ele>2033</ele>
      </trkpt>
      <trkpt lat="46.04433" lon="6.97136">
        <ele>2032</ele>
      </trkpt>
      <trkpt lat="46.0441" lon="6.97125">
        <ele>2035</ele>
      </trkpt>
      <trkpt lat="46.04398" lon="6.97121">
        <ele>2034</ele>
      </trkpt>
      <trkpt lat="46.04384" lon="6.97118">
        <ele>2035</ele>
      </trkpt>
      <trkpt lat="46.04368" lon="6.97118">
        <ele>2036</ele>
      </trkpt>
      <trkpt lat="46.04356" lon="6.9712">
        <ele>2038</ele>
      </trkpt>
      <trkpt lat="46.04335" lon="6.97125">
        <ele>2042</ele>
      </trkpt>
      <trkpt lat="46.04317" lon="6.97133">
        <ele>2046</ele>
      </trkpt>
      <trkpt lat="46.043" lon="6.97141">
        <ele>2049</ele>
      </trkpt>
      <trkpt lat="46.04292" lon="6.97151">
        <ele>2053</ele>
      </trkpt>
      <trkpt lat="46.04274" lon="6.97156">
        <ele>2055</ele>
      </trkpt>
      <trkpt lat="46.04261" lon="6.97171">
        <ele>2060</ele>
      </trkpt>
      <trkpt lat="46.04238" lon="6.97184">
        <ele>2064</ele>
      </trkpt>
      <trkpt lat="46.0423" lon="6.97191">
        <ele>2066</ele>
      </trkpt>
      <trkpt lat="46.04217" lon="6.97197">
        <ele>2068</ele>
      </trkpt>
      <trkpt lat="46.04203" lon="6.97201">
        <ele>2070</ele>
      </trkpt>
      <trkpt lat="46.04191" lon="6.97207">
        <ele>2072</ele>
      </trkpt>
      <trkpt lat="46.04182" lon="6.97207">
        <ele>2072</ele>
      </trkpt>
      <trkpt lat="46.04167" lon="6.97196">
        <ele>2069</ele>
      </trkpt>
      <trkpt lat="46.04158" lon="6.97188">
        <ele>2068</ele>
      </trkpt>
      <trkpt lat="46.04139" lon="6.97176">
        <ele>2067</ele>
      </trkpt>
      <trkpt lat="46.04128" lon="6.97166">
        <ele>2066</ele>
      </trkpt>
      <trkpt lat="46.04119" lon="6.97158">
        <ele>2067</ele>
      </trkpt>
      <trkpt lat="46.04105" lon="6.97146">
        <ele>2067</ele>
      </trkpt>
      <trkpt lat="46.04093" lon="6.97122">
        <ele>2065</ele>
      </trkpt>
      <trkpt lat="46.04082" lon="6.9711">
        <ele>2064</ele>
      </trkpt>
      <trkpt lat="46.04063" lon="6.97091">
        <ele>2058</ele>
      </trkpt>
      <trkpt lat="46.04057" lon="6.97081">
        <ele>2055</ele>
      </trkpt>
      <trkpt lat="46.04058" lon="6.97066">
        <ele>2053</ele>
      </trkpt>
      <trkpt lat="46.04057" lon="6.97043">
        <ele>2050</ele>
      </trkpt>
      <trkpt lat="46.04043" lon="6.97037">
        <ele>2046</ele>
      </trkpt>
      <trkpt lat="46.04023" lon="6.9703">
        <ele>2040</ele>
      </trkpt>
      <trkpt lat="46.04001" lon="6.97039">
        <ele>2038</ele>
      </trkpt>
      <trkpt lat="46.03991" lon="6.97046">
        <ele>2037</ele>
      </trkpt>
      <trkpt lat="46.03965" lon="6.97055">
        <ele>2034</ele>
      </trkpt>
      <trkpt lat="46.03946" lon="6.97057">
        <ele>2031</ele>
      </trkpt>
      <trkpt lat="46.03937" lon="6.97055">
        <ele>2028</ele>
      </trkpt>
      <trkpt lat="46.0392" lon="6.97055">
        <ele>2025</ele>
      </trkpt>
      <trkpt lat="46.03909" lon="6.97053">
        <ele>2024</ele>
      </trkpt>
      <trkpt lat="46.03897" lon="6.97051">
        <ele>2023</ele>
      </trkpt>
      <trkpt lat="46.03907" lon="6.97016">
        <ele>2014</ele>
      </trkpt>
      <trkpt lat="46.03909" lon="6.96988">
        <ele>2009</ele>
      </trkpt>
      <trkpt lat="46.03915" lon="6.96959">
        <ele>2008</ele>
      </trkpt>
      <trkpt lat="46.03914" lon="6.96949">
        <ele>2007</ele>
      </trkpt>
      <trkpt lat="46.03919" lon="6.9694">
        <ele>2007</ele>
      </trkpt>
      <trkpt lat="46.03929" lon="6.9694">
        <ele>2008</ele>
      </trkpt>
      <trkpt lat="46.03939" lon="6.96942">
        <ele>2009</ele>
      </trkpt>
      <trkpt lat="46.03951" lon="6.96933">
        <ele>2010</ele>
      </trkpt>
      <trkpt lat="46.0396" lon="6.96919">
        <ele>2009</ele>
      </trkpt>
      <trkpt lat="46.03979" lon="6.96913">
        <ele>2009</ele>
      </trkpt>
      <trkpt lat="46.03984" lon="6.96866">
        <ele>1996</ele>
      </trkpt>
      <trkpt lat="46.03978" lon="6.96855">
        <ele>1993</ele>
      </trkpt>
      <trkpt lat="46.03963" lon="6.9684">
        <ele>1991</ele>
      </trkpt>
      <trkpt lat="46.03947" lon="6.96824">
        <ele>1988</ele>
      </trkpt>
      <trkpt lat="46.0394" lon="6.96799">
        <ele>1980</ele>
      </trkpt>
      <trkpt lat="46.03933" lon="6.96774">
        <ele>1972</ele>
      </trkpt>
      <trkpt lat="46.03925" lon="6.96763">
        <ele>1969</ele>
      </trkpt>
      <trkpt lat="46.03935" lon="6.96752">
        <ele>1963</ele>
      </trkpt>
      <trkpt lat="46.03942" lon="6.9676">
        <ele>1964</ele>
      </trkpt>
      <trkpt lat="46.03951" lon="6.96762">
        <ele>1963</ele>
      </trkpt>
      <trkpt lat="46.03967" lon="6.96774">
        <ele>1964</ele>
      </trkpt>
      <trkpt lat="46.03984" lon="6.96785">
        <ele>1966</ele>
      </trkpt>
      <trkpt lat="46.04001" lon="6.9679">
        <ele>1965</ele>
      </trkpt>
      <trkpt lat="46.03991" lon="6.96768">
        <ele>1956</ele>
      </trkpt>
      <trkpt lat="46.03985" lon="6.96757">
        <ele>1953</ele>
      </trkpt>
      <trkpt lat="46.03975" lon="6.9674">
        <ele>1948</ele>
      </trkpt>
      <trkpt lat="46.03964" lon="6.96728">
        <ele>1947</ele>
      </trkpt>
      <trkpt lat="46.03956" lon="6.96718">
        <ele>1945</ele>
      </trkpt>
      <trkpt lat="46.03939" lon="6.96702">
        <ele>1944</ele>
      </trkpt>
      <trkpt lat="46.03949" lon="6.96701">
        <ele>1941</ele>
      </trkpt>
      <trkpt lat="46.03964" lon="6.96709">
        <ele>1939</ele>
      </trkpt>
      <trkpt lat="46.03972" lon="6.96714">
        <ele>1938</ele>
      </trkpt>
      <trkpt lat="46.03985" lon="6.96717">
        <ele>1936</ele>
      </trkpt>
      <trkpt lat="46.03994" lon="6.96717">
        <ele>1932</ele>
      </trkpt>
      <trkpt lat="46.04003" lon="6.96711">
        <ele>1928</ele>
      </trkpt>
      <trkpt lat="46.04018" lon="6.96704">
        <ele>1925</ele>
      </trkpt>
      <trkpt lat="46.04031" lon="6.96695">
        <ele>1922</ele>
      </trkpt>
      <trkpt lat="46.04044" lon="6.96683">
        <ele>1917</ele>
      </trkpt>
      <trkpt lat="46.04045" lon="6.96673">
        <ele>1912</ele>
      </trkpt>
      <trkpt lat="46.04038" lon="6.96664">
        <ele>1908</ele>
      </trkpt>
      <trkpt lat="46.04028" lon="6.96655">
        <ele>1905</ele>
      </trkpt>
      <trkpt lat="46.04021" lon="6.96645">
        <ele>1902</ele>
      </trkpt>
      <trkpt lat="46.04014" lon="6.96634">
        <ele>1899</ele>
      </trkpt>
      <trkpt lat="46.0401" lon="6.96615">
        <ele>1894</ele>
      </trkpt>
      <trkpt lat="46.0401" lon="6.966">
        <ele>1890</ele>
      </trkpt>
      <trkpt lat="46.04019" lon="6.96578">
        <ele>1886</ele>
      </trkpt>
      <trkpt lat="46.0402" lon="6.96559">
        <ele>1883</ele>
      </trkpt>
      <trkpt lat="46.04028" lon="6.96541">
        <ele>1880</ele>
      </trkpt>
      <trkpt lat="46.04043" lon="6.96533">
        <ele>1878</ele>
      </trkpt>
      <trkpt lat="46.04055" lon="6.9653">
        <ele>1877</ele>
      </trkpt>
      <trkpt lat="46.0407" lon="6.96533">
        <ele>1877</ele>
      </trkpt>
      <trkpt lat="46.04089" lon="6.96531">
        <ele>1874</ele>
      </trkpt>
      <trkpt lat="46.04104" lon="6.96547">
        <ele>1874</ele>
      </trkpt>
      <trkpt lat="46.04115" lon="6.96551">
        <ele>1873</ele>
      </trkpt>
      <trkpt lat="46.04104" lon="6.96531">
        <ele>1869</ele>
      </trkpt>
      <trkpt lat="46.04097" lon="6.96509">
        <ele>1865</ele>
      </trkpt>
      <trkpt lat="46.04094" lon="6.96493">
        <ele>1862</ele>
      </trkpt>
      <trkpt lat="46.04098" lon="6.96487">
        <ele>1859</ele>
      </trkpt>
      <trkpt lat="46.04102" lon="6.96477">
        <ele>1856</ele>
      </trkpt>
      <trkpt lat="46.0413" lon="6.96484">
        <ele>1848</ele>
      </trkpt>
      <trkpt lat="46.04151" lon="6.96497">
        <ele>1844</ele>
      </trkpt>
      <trkpt lat="46.0416" lon="6.96508">
        <ele>1844</ele>
      </trkpt>
      <trkpt lat="46.04172" lon="6.96511">
        <ele>1842</ele>
      </trkpt>
      <trkpt lat="46.04185" lon="6.96507">
        <ele>1836</ele>
      </trkpt>
      <trkpt lat="46.04195" lon="6.96506">
        <ele>1833</ele>
      </trkpt>
      <trkpt lat="46.04198" lon="6.96496">
        <ele>1829</ele>
      </trkpt>
      <trkpt lat="46.04209" lon="6.96488">
        <ele>1823</ele>
      </trkpt>
      <trkpt lat="46.04222" lon="6.96487">
        <ele>1819</ele>
      </trkpt>
      <trkpt lat="46.04243" lon="6.96491">
        <ele>1814</ele>
      </trkpt>
      <trkpt lat="46.04268" lon="6.96493">
        <ele>1809</ele>
      </trkpt>
      <trkpt lat="46.04279" lon="6.96496">
        <ele>1809</ele>
      </trkpt>
      <trkpt lat="46.0428" lon="6.96481">
        <ele>1804</ele>
      </trkpt>
      <trkpt lat="46.04273" lon="6.96472">
        <ele>1803</ele>
      </trkpt>
      <trkpt lat="46.04272" lon="6.96457">
        <ele>1799</ele>
      </trkpt>
      <trkpt lat="46.0427" lon="6.96444">
        <ele>1796</ele>
      </trkpt>
      <trkpt lat="46.04278" lon="6.96435">
        <ele>1792</ele>
      </trkpt>
      <trkpt lat="46.04279" lon="6.96424">
        <ele>1789</ele>
      </trkpt>
      <trkpt lat="46.0427" lon="6.96434">
        <ele>1794</ele>
      </trkpt>
      <trkpt lat="46.0426" lon="6.96427">
        <ele>1795</ele>
      </trkpt>
      <trkpt lat="46.04237" lon="6.96418">
        <ele>1799</ele>
      </trkpt>
      <trkpt lat="46.04226" lon="6.96408">
        <ele>1801</ele>
      </trkpt>
      <trkpt lat="46.04229" lon="6.96396">
        <ele>1800</ele>
      </trkpt>
      <trkpt lat="46.04229" lon="6.96378">
        <ele>1799</ele>
      </trkpt>
      <trkpt lat="46.04241" lon="6.96352">
        <ele>1793</ele>
      </trkpt>
      <trkpt lat="46.04237" lon="6.96332">
        <ele>1793</ele>
      </trkpt>
      <trkpt lat="46.04241" lon="6.96307">
        <ele>1792</ele>
      </trkpt>
      <trkpt lat="46.04237" lon="6.9629">
        <ele>1795</ele>
      </trkpt>
      <trkpt lat="46.04238" lon="6.96271">
        <ele>1796</ele>
      </trkpt>
      <trkpt lat="46.04244" lon="6.96262">
        <ele>1793</ele>
      </trkpt>
      <trkpt lat="46.04252" lon="6.96249">
        <ele>1790</ele>
      </trkpt>
      <trkpt lat="46.04255" lon="6.96234">
        <ele>1791</ele>
      </trkpt>
      <trkpt lat="46.04267" lon="6.96216">
        <ele>1788</ele>
      </trkpt>
      <trkpt lat="46.04274" lon="6.96205">
        <ele>1786</ele>
      </trkpt>
      <trkpt lat="46.04283" lon="6.96183">
        <ele>1784</ele>
      </trkpt>
      <trkpt lat="46.04287" lon="6.96161">
        <ele>1783</ele>
      </trkpt>
      <trkpt lat="46.04288" lon="6.96143">
        <ele>1781</ele>
      </trkpt>
      <trkpt lat="46.04292" lon="6.96129">
        <ele>1778</ele>
      </trkpt>
      <trkpt lat="46.04297" lon="6.96113">
        <ele>1775</ele>
      </trkpt>
      <trkpt lat="46.04287" lon="6.96091">
        <ele>1779</ele>
      </trkpt>
      <trkpt lat="46.04278" lon="6.96082">
        <ele>1784</ele>
      </trkpt>
      <trkpt lat="46.04273" lon="6.96062">
        <ele>1783</ele>
      </trkpt>
      <trkpt lat="46.04263" lon="6.96037">
        <ele>1784</ele>
      </trkpt>
      <trkpt lat="46.0426" lon="6.96014">
        <ele>1782</ele>
      </trkpt>
      <trkpt lat="46.04257" lon="6.96">
        <ele>1782</ele>
      </trkpt>
      <trkpt lat="46.04258" lon="6.95984">
        <ele>1778</ele>
      </trkpt>
      <trkpt lat="46.04254" lon="6.95958">
        <ele>1777</ele>
      </trkpt>
      <trkpt lat="46.04254" lon="6.95937">
        <ele>1774</ele>
      </trkpt>
      <trkpt lat="46.04253" lon="6.9592">
        <ele>1772</ele>
      </trkpt>
      <trkpt lat="46.04251" lon="6.95901">
        <ele>1771</ele>
      </trkpt>
      <trkpt lat="46.04247" lon="6.95882">
        <ele>1772</ele>
      </trkpt>
      <trkpt lat="46.04245" lon="6.95866">
        <ele>1771</ele>
      </trkpt>
      <trkpt lat="46.04242" lon="6.95846">
        <ele>1771</ele>
      </trkpt>
      <trkpt lat="46.04234" lon="6.95822">
        <ele>1772</ele>
      </trkpt>
      <trkpt lat="46.04228" lon="6.95808">
        <ele>1773</ele>
      </trkpt>
      <trkpt lat="46.04221" lon="6.95786">
        <ele>1771</ele>
      </trkpt>
      <trkpt lat="46.04214" lon="6.95757">
        <ele>1768</ele>
      </trkpt>
      <trkpt lat="46.0421" lon="6.95741">
        <ele>1765</ele>
      </trkpt>
      <trkpt lat="46.04204" lon="6.95726">
        <ele>1764</ele>
      </trkpt>
      <trkpt lat="46.042" lon="6.95715">
        <ele>1763</ele>
      </trkpt>
      <trkpt lat="46.04189" lon="6.95699">
        <ele>1764</ele>
      </trkpt>
      <trkpt lat="46.04171" lon="6.95671">
        <ele>1764</ele>
      </trkpt>
      <trkpt lat="46.04162" lon="6.95653">
        <ele>1764</ele>
      </trkpt>
      <trkpt lat="46.04161" lon="6.95639">
        <ele>1762</ele>
      </trkpt>
      <trkpt lat="46.0415" lon="6.9562">
        <ele>1762</ele>
      </trkpt>
      <trkpt lat="46.04143" lon="6.95603">
        <ele>1762</ele>
      </trkpt>
      <trkpt lat="46.04137" lon="6.95593">
        <ele>1762</ele>
      </trkpt>
      <trkpt lat="46.04124" lon="6.95572">
        <ele>1763</ele>
      </trkpt>
      <trkpt lat="46.04111" lon="6.95563">
        <ele>1767</ele>
      </trkpt>
      <trkpt lat="46.04103" lon="6.95553">
        <ele>1769</ele>
      </trkpt>
      <trkpt lat="46.04094" lon="6.9554">
        <ele>1769</ele>
      </trkpt>
      <trkpt lat="46.04083" lon="6.95523">
        <ele>1770</ele>
      </trkpt>
      <trkpt lat="46.04074" lon="6.95513">
        <ele>1772</ele>
      </trkpt>
      <trkpt lat="46.04065" lon="6.95495">
        <ele>1771</ele>
      </trkpt>
      <trkpt lat="46.04058" lon="6.95487">
        <ele>1772</ele>
      </trkpt>
      <trkpt lat="46.04051" lon="6.95479">
        <ele>1773</ele>
      </trkpt>
      <trkpt lat="46.04042" lon="6.95472">
        <ele>1775</ele>
      </trkpt>
      <trkpt lat="46.0403" lon="6.95456">
        <ele>1776</ele>
      </trkpt>
      <trkpt lat="46.04022" lon="6.95447">
        <ele>1777</ele>
      </trkpt>
      <trkpt lat="46.04013" lon="6.9544">
        <ele>1779</ele>
      </trkpt>
      <trkpt lat="46.04004" lon="6.95427">
        <ele>1779</ele>
      </trkpt>
      <trkpt lat="46.03993" lon="6.95418">
        <ele>1781</ele>
      </trkpt>
      <trkpt lat="46.03986" lon="6.95406">
        <ele>1782</ele>
      </trkpt>
      <trkpt lat="46.03981" lon="6.95381">
        <ele>1779</ele>
      </trkpt>
      <trkpt lat="46.0397" lon="6.95366">
        <ele>1780</ele>
      </trkpt>
      <trkpt lat="46.0396" lon="6.95352">
        <ele>1782</ele>
      </trkpt>
      <trkpt lat="46.03955" lon="6.95341">
        <ele>1781</ele>
      </trkpt>
      <trkpt lat="46.03947" lon="6.95318">
        <ele>1781</ele>
      </trkpt>
      <trkpt lat="46.03936" lon="6.95295">
        <ele>1783</ele>
      </trkpt>
      <trkpt lat="46.03936" lon="6.95265">
        <ele>1781</ele>
      </trkpt>
      <trkpt lat="46.0394" lon="6.95247">
        <ele>1778</ele>
      </trkpt>
      <trkpt lat="46.03928" lon="6.95222">
        <ele>1779</ele>
      </trkpt>
      <trkpt lat="46.03917" lon="6.95208">
        <ele>1781</ele>
      </trkpt>
      <trkpt lat="46.03912" lon="6.95197">
        <ele>1781</ele>
      </trkpt>
      <trkpt lat="46.03905" lon="6.95188">
        <ele>1783</ele>
      </trkpt>
      <trkpt lat="46.03881" lon="6.95171">
        <ele>1788</ele>
      </trkpt>
      <trkpt lat="46.03873" lon="6.95163">
        <ele>1788</ele>
      </trkpt>
      <trkpt lat="46.03866" lon="6.95151">
        <ele>1788</ele>
      </trkpt>
      <trkpt lat="46.03864" lon="6.95138">
        <ele>1786</ele>
      </trkpt>
      <trkpt lat="46.03858" lon="6.95124">
        <ele>1785</ele>
      </trkpt>
      <trkpt lat="46.03853" lon="6.95114">
        <ele>1785</ele>
      </trkpt>
      <trkpt lat="46.03845" lon="6.95107">
        <ele>1786</ele>
      </trkpt>
      <trkpt lat="46.0384" lon="6.95097">
        <ele>1785</ele>
      </trkpt>
      <trkpt lat="46.03821" lon="6.95091">
        <ele>1791</ele>
      </trkpt>
      <trkpt lat="46.03812" lon="6.95084">
        <ele>1793</ele>
      </trkpt>
      <trkpt lat="46.03805" lon="6.95069">
        <ele>1791</ele>
      </trkpt>
      <trkpt lat="46.03791" lon="6.9505">
        <ele>1791</ele>
      </trkpt>
      <trkpt lat="46.03783" lon="6.9503">
        <ele>1787</ele>
      </trkpt>
      <trkpt lat="46.03787" lon="6.95016">
        <ele>1781</ele>
      </trkpt>
      <trkpt lat="46.03794" lon="6.95008">
        <ele>1776</ele>
      </trkpt>
      <trkpt lat="46.03807" lon="6.95007">
        <ele>1772</ele>
      </trkpt>
      <trkpt lat="46.03817" lon="6.95005">
        <ele>1769</ele>
      </trkpt>
      <trkpt lat="46.0383" lon="6.95011">
        <ele>1766</ele>
      </trkpt>
      <trkpt lat="46.03839" lon="6.95007">
        <ele>1763</ele>
      </trkpt>
      <trkpt lat="46.0385" lon="6.95016">
        <ele>1762</ele>
      </trkpt>
      <trkpt lat="46.03862" lon="6.95024">
        <ele>1762</ele>
      </trkpt>
      <trkpt lat="46.03872" lon="6.95015">
        <ele>1757</ele>
      </trkpt>
      <trkpt lat="46.03871" lon="6.95003">
        <ele>1754</ele>
      </trkpt>
      <trkpt lat="46.03872" lon="6.94982">
        <ele>1749</ele>
      </trkpt>
      <trkpt lat="46.03866" lon="6.94972">
        <ele>1748</ele>
      </trkpt>
      <trkpt lat="46.03856" lon="6.94967">
        <ele>1750</ele>
      </trkpt>
      <trkpt lat="46.03845" lon="6.94957">
        <ele>1750</ele>
      </trkpt>
      <trkpt lat="46.03837" lon="6.9495">
        <ele>1751</ele>
      </trkpt>
      <trkpt lat="46.03828" lon="6.94945">
        <ele>1752</ele>
      </trkpt>
      <trkpt lat="46.03814" lon="6.94929">
        <ele>1752</ele>
      </trkpt>
      <trkpt lat="46.03799" lon="6.94914">
        <ele>1752</ele>
      </trkpt>
      <trkpt lat="46.03789" lon="6.94903">
        <ele>1752</ele>
      </trkpt>
      <trkpt lat="46.0377" lon="6.94876">
        <ele>1751</ele>
      </trkpt>
      <trkpt lat="46.03765" lon="6.94856">
        <ele>1747</ele>
      </trkpt>
      <trkpt lat="46.0377" lon="6.94862">
        <ele>1747</ele>
      </trkpt>
      <trkpt lat="46.03784" lon="6.94852">
        <ele>1742</ele>
      </trkpt>
      <trkpt lat="46.03796" lon="6.94854">
        <ele>1740</ele>
      </trkpt>
      <trkpt lat="46.03809" lon="6.94857">
        <ele>1739</ele>
      </trkpt>
      <trkpt lat="46.03817" lon="6.94864">
        <ele>1738</ele>
      </trkpt>
      <trkpt lat="46.03839" lon="6.9486">
        <ele>1733</ele>
      </trkpt>
      <trkpt lat="46.03864" lon="6.94866">
        <ele>1726</ele>
      </trkpt>
      <trkpt lat="46.03884" lon="6.94874">
        <ele>1723</ele>
      </trkpt>
      <trkpt lat="46.039" lon="6.9488">
        <ele>1719</ele>
      </trkpt>
      <trkpt lat="46.03908" lon="6.94873">
        <ele>1716</ele>
      </trkpt>
      <trkpt lat="46.03907" lon="6.94858">
        <ele>1712</ele>
      </trkpt>
      <trkpt lat="46.03907" lon="6.94841">
        <ele>1708</ele>
      </trkpt>
      <trkpt lat="46.03909" lon="6.94822">
        <ele>1705</ele>
      </trkpt>
      <trkpt lat="46.03898" lon="6.94809">
        <ele>1706</ele>
      </trkpt>
      <trkpt lat="46.03892" lon="6.9478">
        <ele>1704</ele>
      </trkpt>
      <trkpt lat="46.03887" lon="6.94764">
        <ele>1703</ele>
      </trkpt>
      <trkpt lat="46.03881" lon="6.94755">
        <ele>1703</ele>
      </trkpt>
      <trkpt lat="46.03868" lon="6.94737">
        <ele>1703</ele>
      </trkpt>
      <trkpt lat="46.03863" lon="6.94723">
        <ele>1702</ele>
      </trkpt>
      <trkpt lat="46.03854" lon="6.9471">
        <ele>1702</ele>
      </trkpt>
      <trkpt lat="46.03842" lon="6.94684">
        <ele>1699</ele>
      </trkpt>
      <trkpt lat="46.03837" lon="6.94672">
        <ele>1697</ele>
      </trkpt>
      <trkpt lat="46.03838" lon="6.94657">
        <ele>1693</ele>
      </trkpt>
      <trkpt lat="46.0383" lon="6.9464">
        <ele>1690</ele>
      </trkpt>
      <trkpt lat="46.03817" lon="6.94624">
        <ele>1688</ele>
      </trkpt>
      <trkpt lat="46.0381" lon="6.94612">
        <ele>1686</ele>
      </trkpt>
      <trkpt lat="46.03799" lon="6.94604">
        <ele>1685</ele>
      </trkpt>
      <trkpt lat="46.03792" lon="6.94598">
        <ele>1684</ele>
      </trkpt>
      <trkpt lat="46.03782" lon="6.94585">
        <ele>1682</ele>
      </trkpt>
      <trkpt lat="46.03771" lon="6.94575">
        <ele>1680</ele>
      </trkpt>
      <trkpt lat="46.03759" lon="6.94569">
        <ele>1679</ele>
      </trkpt>
      <trkpt lat="46.03746" lon="6.94557">
        <ele>1677</ele>
      </trkpt>
      <trkpt lat="46.03731" lon="6.94553">
        <ele>1677</ele>
      </trkpt>
      <trkpt lat="46.0372" lon="6.94546">
        <ele>1675</ele>
      </trkpt>
      <trkpt lat="46.03711" lon="6.94541">
        <ele>1675</ele>
      </trkpt>
      <trkpt lat="46.03699" lon="6.94538">
        <ele>1675</ele>
      </trkpt>
      <trkpt lat="46.03691" lon="6.94536">
        <ele>1675</ele>
      </trkpt>
      <trkpt lat="46.03682" lon="6.94533">
        <ele>1675</ele>
      </trkpt>
      <trkpt lat="46.03676" lon="6.94523">
        <ele>1673</ele>
      </trkpt>
      <trkpt lat="46.03665" lon="6.94519">
        <ele>1673</ele>
      </trkpt>
      <trkpt lat="46.03659" lon="6.94509">
        <ele>1672</ele>
      </trkpt>
      <trkpt lat="46.03651" lon="6.94493">
        <ele>1668</ele>
      </trkpt>
      <trkpt lat="46.03641" lon="6.94483">
        <ele>1667</ele>
      </trkpt>
      <trkpt lat="46.03631" lon="6.94477">
        <ele>1667</ele>
      </trkpt>
      <trkpt lat="46.03627" lon="6.94464">
        <ele>1663</ele>
      </trkpt>
      <trkpt lat="46.03622" lon="6.94453">
        <ele>1660</ele>
      </trkpt>
      <trkpt lat="46.03613" lon="6.94434">
        <ele>1656</ele>
      </trkpt>
      <trkpt lat="46.03599" lon="6.94419">
        <ele>1655</ele>
      </trkpt>
      <trkpt lat="46.03601" lon="6.94406">
        <ele>1649</ele>
      </trkpt>
      <trkpt lat="46.03592" lon="6.94393">
        <ele>1644</ele>
      </trkpt>
      <trkpt lat="46.03585" lon="6.94381">
        <ele>1642</ele>
      </trkpt>
      <trkpt lat="46.03578" lon="6.94369">
        <ele>1639</ele>
      </trkpt>
      <trkpt lat="46.03569" lon="6.94348">
        <ele>1634</ele>
      </trkpt>
      <trkpt lat="46.03562" lon="6.94339">
        <ele>1633</ele>
      </trkpt>
      <trkpt lat="46.03552" lon="6.94323">
        <ele>1630</ele>
      </trkpt>
      <trkpt lat="46.03544" lon="6.94304">
        <ele>1624</ele>
      </trkpt>
      <trkpt lat="46.03552" lon="6.943">
        <ele>1619</ele>
      </trkpt>
      <trkpt lat="46.03562" lon="6.94294">
        <ele>1612</ele>
      </trkpt>
      <trkpt lat="46.03575" lon="6.94292">
        <ele>1606</ele>
      </trkpt>
      <trkpt lat="46.03582" lon="6.94297">
        <ele>1605</ele>
      </trkpt>
      <trkpt lat="46.03602" lon="6.94292">
        <ele>1597</ele>
      </trkpt>
      <trkpt lat="46.03597" lon="6.94291">
        <ele>1598</ele>
      </trkpt>
      <trkpt lat="46.03595" lon="6.94278">
        <ele>1593</ele>
      </trkpt>
      <trkpt lat="46.03592" lon="6.94264">
        <ele>1588</ele>
      </trkpt>
      <trkpt lat="46.03581" lon="6.94254">
        <ele>1587</ele>
      </trkpt>
      <trkpt lat="46.03571" lon="6.94248">
        <ele>1587</ele>
      </trkpt>
      <trkpt lat="46.03557" lon="6.94231">
        <ele>1582</ele>
      </trkpt>
      <trkpt lat="46.03547" lon="6.94226">
        <ele>1583</ele>
      </trkpt>
      <trkpt lat="46.03543" lon="6.94211">
        <ele>1576</ele>
      </trkpt>
      <trkpt lat="46.03536" lon="6.94199">
        <ele>1572</ele>
      </trkpt>
      <trkpt lat="46.03523" lon="6.94169">
        <ele>1561</ele>
      </trkpt>
      <trkpt lat="46.03514" lon="6.94157">
        <ele>1559</ele>
      </trkpt>
      <trkpt lat="46.03508" lon="6.94143">
        <ele>1554</ele>
      </trkpt>
      <trkpt lat="46.035" lon="6.94129">
        <ele>1550</ele>
      </trkpt>
      <trkpt lat="46.03497" lon="6.9411">
        <ele>1541</ele>
      </trkpt>
      <trkpt lat="46.03498" lon="6.94091">
        <ele>1531</ele>
      </trkpt>
      <trkpt lat="46.03506" lon="6.94079">
        <ele>1522</ele>
      </trkpt>
      <trkpt lat="46.03472" lon="6.94051">
        <ele>1516</ele>
      </trkpt>
      <trkpt lat="46.03461" lon="6.94047">
        <ele>1517</ele>
      </trkpt>
      <trkpt lat="46.03452" lon="6.94037">
        <ele>1514</ele>
      </trkpt>
      <trkpt lat="46.03447" lon="6.94024">
        <ele>1508</ele>
      </trkpt>
      <trkpt lat="46.03434" lon="6.94008">
        <ele>1502</ele>
      </trkpt>
      <trkpt lat="46.0342" lon="6.94003">
        <ele>1503</ele>
      </trkpt>
      <trkpt lat="46.03412" lon="6.93994">
        <ele>1500</ele>
      </trkpt>
      <trkpt lat="46.03395" lon="6.93987">
        <ele>1503</ele>
      </trkpt>
      <trkpt lat="46.03389" lon="6.93978">
        <ele>1499</ele>
      </trkpt>
      <trkpt lat="46.03389" lon="6.93964">
        <ele>1490</ele>
      </trkpt>
      <trkpt lat="46.03391" lon="6.93953">
        <ele>1482</ele>
      </trkpt>
      <trkpt lat="46.03381" lon="6.93951">
        <ele>1484</ele>
      </trkpt>
      <trkpt lat="46.03378" lon="6.93937">
        <ele>1477</ele>
      </trkpt>
      <trkpt lat="46.03373" lon="6.93928">
        <ele>1473</ele>
      </trkpt>
      <trkpt lat="46.03364" lon="6.93917">
        <ele>1469</ele>
      </trkpt>
      <trkpt lat="46.0335" lon="6.93903">
        <ele>1464</ele>
      </trkpt>
      <trkpt lat="46.03335" lon="6.93903">
        <ele>1469</ele>
      </trkpt>
      <trkpt lat="46.03322" lon="6.93888">
        <ele>1463</ele>
      </trkpt>
      <trkpt lat="46.0331" lon="6.93876">
        <ele>1458</ele>
      </trkpt>
      <trkpt lat="46.03293" lon="6.93868">
        <ele>1458</ele>
      </trkpt>
      <trkpt lat="46.0328" lon="6.93851">
        <ele>1450</ele>
      </trkpt>
      <trkpt lat="46.03272" lon="6.93835">
        <ele>1442</ele>
      </trkpt>
      <trkpt lat="46.03264" lon="6.93826">
        <ele>1440</ele>
      </trkpt>
      <trkpt lat="46.03258" lon="6.93817">
        <ele>1436</ele>
      </trkpt>
      <trkpt lat="46.03247" lon="6.93809">
        <ele>1434</ele>
      </trkpt>
      <trkpt lat="46.03237" lon="6.93805">
        <ele>1436</ele>
      </trkpt>
      <trkpt lat="46.03228" lon="6.93797">
        <ele>1435</ele>
      </trkpt>
      <trkpt lat="46.03224" lon="6.93785">
        <ele>1429</ele>
      </trkpt>
      <trkpt lat="46.03217" lon="6.93771">
        <ele>1424</ele>
      </trkpt>
      <trkpt lat="46.0321" lon="6.9376">
        <ele>1420</ele>
      </trkpt>
      <trkpt lat="46.032" lon="6.93749">
        <ele>1418</ele>
      </trkpt>
      <trkpt lat="46.03196" lon="6.93742">
        <ele>1416</ele>
      </trkpt>
      <trkpt lat="46.03187" lon="6.93736">
        <ele>1416</ele>
      </trkpt>
      <trkpt lat="46.03177" lon="6.93735">
        <ele>1419</ele>
      </trkpt>
      <trkpt lat="46.03169" lon="6.9372">
        <ele>1415</ele>
      </trkpt>
      <trkpt lat="46.03162" lon="6.93707">
        <ele>1409</ele>
      </trkpt>
      <trkpt lat="46.03162" lon="6.93692">
        <ele>1401</ele>
      </trkpt>
      <trkpt lat="46.03161" lon="6.9368">
        <ele>1394</ele>
      </trkpt>
      <trkpt lat="46.03149" lon="6.9366">
        <ele>1388</ele>
      </trkpt>
      <trkpt lat="46.03135" lon="6.93654">
        <ele>1390</ele>
      </trkpt>
      <trkpt lat="46.03133" lon="6.93643">
        <ele>1386</ele>
      </trkpt>
      <trkpt lat="46.03138" lon="6.93629">
        <ele>1378</ele>
      </trkpt>
      <trkpt lat="46.0313" lon="6.93619">
        <ele>1376</ele>
      </trkpt>
      <trkpt lat="46.03124" lon="6.93606">
        <ele>1372</ele>
      </trkpt>
      <trkpt lat="46.03109" lon="6.93603">
        <ele>1376</ele>
      </trkpt>
      <trkpt lat="46.03101" lon="6.93598">
        <ele>1377</ele>
      </trkpt>
      <trkpt lat="46.03089" lon="6.93592">
        <ele>1378</ele>
      </trkpt>
      <trkpt lat="46.03082" lon="6.93579">
        <ele>1375</ele>
      </trkpt>
      <trkpt lat="46.03076" lon="6.93569">
        <ele>1373</ele>
      </trkpt>
      <trkpt lat="46.03068" lon="6.93548">
        <ele>1368</ele>
      </trkpt>
      <trkpt lat="46.03058" lon="6.93529">
        <ele>1363</ele>
      </trkpt>
      <trkpt lat="46.03056" lon="6.93514">
        <ele>1358</ele>
      </trkpt>
      <trkpt lat="46.03065" lon="6.93503">
        <ele>1350</ele>
      </trkpt>
      <trkpt lat="46.03063" lon="6.93481">
        <ele>1343</ele>
      </trkpt>
      <trkpt lat="46.03069" lon="6.93465">
        <ele>1335</ele>
      </trkpt>
      <trkpt lat="46.03078" lon="6.93466">
        <ele>1333</ele>
      </trkpt>
      <trkpt lat="46.03084" lon="6.93447">
        <ele>1325</ele>
      </trkpt>
      <trkpt lat="46.03085" lon="6.93434">
        <ele>1321</ele>
      </trkpt>
      <trkpt lat="46.03091" lon="6.93421">
        <ele>1314</ele>
      </trkpt>
      <trkpt lat="46.031" lon="6.93433">
        <ele>1315</ele>
      </trkpt>
      <trkpt lat="46.03109" lon="6.93425">
        <ele>1309</ele>
      </trkpt>
      <trkpt lat="46.0312" lon="6.93427">
        <ele>1305</ele>
      </trkpt>
      <trkpt lat="46.03129" lon="6.93439">
        <ele>1307</ele>
      </trkpt>
      <trkpt lat="46.03128" lon="6.9342">
        <ele>1301</ele>
      </trkpt>
      <trkpt lat="46.03134" lon="6.93408">
        <ele>1295</ele>
      </trkpt>
      <trkpt lat="46.0314" lon="6.93399">
        <ele>1292</ele>
      </trkpt>
      <trkpt lat="46.03153" lon="6.93404">
        <ele>1288</ele>
      </trkpt>
      <trkpt lat="46.03169" lon="6.934">
        <ele>1282</ele>
      </trkpt>
      <trkpt lat="46.03179" lon="6.93402">
        <ele>1280</ele>
      </trkpt>
      <trkpt lat="46.03191" lon="6.93402">
        <ele>1279</ele>
      </trkpt>
      <trkpt lat="46.03199" lon="6.93395">
        <ele>1276</ele>
      </trkpt>
      <trkpt lat="46.03206" lon="6.93382">
        <ele>1273</ele>
      </trkpt>
      <trkpt lat="46.03214" lon="6.93366">
        <ele>1270</ele>
      </trkpt>
      <trkpt lat="46.03215" lon="6.93356">
        <ele>1269</ele>
      </trkpt>
      <trkpt lat="46.03202" lon="6.93343">
        <ele>1268</ele>
      </trkpt>
      <trkpt lat="46.03196" lon="6.93328">
        <ele>1267</ele>
      </trkpt>
      <trkpt lat="46.03192" lon="6.93315">
        <ele>1266</ele>
      </trkpt>
      <trkpt lat="46.03184" lon="6.93308">
        <ele>1266</ele>
      </trkpt>
      <trkpt lat="46.03188" lon="6.93284">
        <ele>1264</ele>
      </trkpt>
      <trkpt lat="46.03199" lon="6.93262">
        <ele>1263</ele>
      </trkpt>
      <trkpt lat="46.03208" lon="6.93248">
        <ele>1263</ele>
      </trkpt>
      <trkpt lat="46.03214" lon="6.93234">
        <ele>1263</ele>
      </trkpt>
      <trkpt lat="46.03204" lon="6.93233">
        <ele>1263</ele>
      </trkpt>
      <trkpt lat="46.03194" lon="6.93223">
        <ele>1263</ele>
      </trkpt>
      <trkpt lat="46.0318" lon="6.93208">
        <ele>1264</ele>
      </trkpt>
      <trkpt lat="46.03168" lon="6.93199">
        <ele>1264</ele>
      </trkpt>
      <trkpt lat="46.03163" lon="6.93189">
        <ele>1265</ele>
      </trkpt>
      <trkpt lat="46.03154" lon="6.93182">
        <ele>1266</ele>
      </trkpt>
      <trkpt lat="46.03144" lon="6.93171">
        <ele>1266</ele>
      </trkpt>
      <trkpt lat="46.03134" lon="6.93161">
        <ele>1266</ele>
      </trkpt>
      <trkpt lat="46.03126" lon="6.93153">
        <ele>1266</ele>
      </trkpt>
      <trkpt lat="46.03117" lon="6.93144">
        <ele>1266</ele>
      </trkpt>
      <trkpt lat="46.03107" lon="6.93132">
        <ele>1266</ele>
      </trkpt>
      <trkpt lat="46.03094" lon="6.93116">
        <ele>1267</ele>
      </trkpt>
      <trkpt lat="46.03088" lon="6.93106">
        <ele>1267</ele>
      </trkpt>
      <trkpt lat="46.03079" lon="6.93098">
        <ele>1267</ele>
      </trkpt>
      <trkpt lat="46.03073" lon="6.9309">
        <ele>1267</ele>
      </trkpt>
      <trkpt lat="46.03065" lon="6.93083">
        <ele>1267</ele>
      </trkpt>
      <trkpt lat="46.03056" lon="6.93073">
        <ele>1268</ele>
      </trkpt>
      <trkpt lat="46.03046" lon="6.93064">
        <ele>1268</ele>
      </trkpt>
      <trkpt lat="46.03037" lon="6.93055">
        <ele>1269</ele>
      </trkpt>
      <trkpt lat="46.03032" lon="6.93041">
        <ele>1269</ele>
      </trkpt>
      <trkpt lat="46.03023" lon="6.93032">
        <ele>1269</ele>
      </trkpt>
      <trkpt lat="46.03008" lon="6.93015">
        <ele>1269</ele>
      </trkpt>
      <trkpt lat="46.03001" lon="6.93008">
        <ele>1269</ele>
      </trkpt>
      <trkpt lat="46.02992" lon="6.93001">
        <ele>1270</ele>
      </trkpt>
      <trkpt lat="46.02977" lon="6.92985">
        <ele>1271</ele>
      </trkpt>
      <trkpt lat="46.02968" lon="6.92975">
        <ele>1272</ele>
      </trkpt>
      <trkpt lat="46.02958" lon="6.92961">
        <ele>1272</ele>
      </trkpt>
      <trkpt lat="46.0295" lon="6.92951">
        <ele>1273</ele>
      </trkpt>
      <trkpt lat="46.02943" lon="6.92941">
        <ele>1273</ele>
      </trkpt>
      <trkpt lat="46.02935" lon="6.92936">
        <ele>1273</ele>
      </trkpt>
      <trkpt lat="46.02928" lon="6.92924">
        <ele>1273</ele>
      </trkpt>
      <trkpt lat="46.02921" lon="6.92911">
        <ele>1274</ele>
      </trkpt>
      <trkpt lat="46.02912" lon="6.92886">
        <ele>1277</ele>
      </trkpt>
      <trkpt lat="46.02901" lon="6.92863">
        <ele>1280</ele>
      </trkpt>
      <trkpt lat="46.02894" lon="6.92844">
        <ele>1283</ele>
      </trkpt>
      <trkpt lat="46.02891" lon="6.92824">
        <ele>1285</ele>
      </trkpt>
      <trkpt lat="46.02886" lon="6.92815">
        <ele>1286</ele>
      </trkpt>
      <trkpt lat="46.02871" lon="6.92797">
        <ele>1289</ele>
      </trkpt>
      <trkpt lat="46.02861" lon="6.92785">
        <ele>1290</ele>
      </trkpt>
      <trkpt lat="46.02841" lon="6.92781">
        <ele>1292</ele>
      </trkpt>
      <trkpt lat="46.02831" lon="6.92779">
        <ele>1292</ele>
      </trkpt>
      <trkpt lat="46.02823" lon="6.92779">
        <ele>1293</ele>
      </trkpt>
      <trkpt lat="46.02813" lon="6.92774">
        <ele>1293</ele>
      </trkpt>
      <trkpt lat="46.02802" lon="6.92774">
        <ele>1294</ele>
      </trkpt>
      <trkpt lat="46.02787" lon="6.92769">
        <ele>1295</ele>
      </trkpt>
      <trkpt lat="46.02775" lon="6.92769">
        <ele>1296</ele>
      </trkpt>
      <trkpt lat="46.02759" lon="6.92776">
        <ele>1297</ele>
      </trkpt>
      <trkpt lat="46.02745" lon="6.92773">
        <ele>1298</ele>
      </trkpt>
      <trkpt lat="46.02728" lon="6.92764">
        <ele>1298</ele>
      </trkpt>
      <trkpt lat="46.0272" lon="6.92762">
        <ele>1298</ele>
      </trkpt>
      <trkpt lat="46.02708" lon="6.92751">
        <ele>1298</ele>
      </trkpt>
      <trkpt lat="46.02699" lon="6.92743">
        <ele>1298</ele>
      </trkpt>
      <trkpt lat="46.02687" lon="6.92734">
        <ele>1298</ele>
      </trkpt>
      <trkpt lat="46.0268" lon="6.92725">
        <ele>1298</ele>
      </trkpt>
      <trkpt lat="46.02672" lon="6.9272">
        <ele>1297</ele>
      </trkpt>
      <trkpt lat="46.02664" lon="6.92707">
        <ele>1297</ele>
      </trkpt>
      <trkpt lat="46.02652" lon="6.92701">
        <ele>1297</ele>
      </trkpt>
      <trkpt lat="46.02646" lon="6.92693">
        <ele>1297</ele>
      </trkpt>
      <trkpt lat="46.02643" lon="6.92671">
        <ele>1296</ele>
      </trkpt>
      <trkpt lat="46.02632" lon="6.92664">
        <ele>1296</ele>
      </trkpt>
      <trkpt lat="46.0262" lon="6.92659">
        <ele>1296</ele>
      </trkpt>
      <trkpt lat="46.02602" lon="6.92656">
        <ele>1296</ele>
      </trkpt>
      <trkpt lat="46.02584" lon="6.92639">
        <ele>1296</ele>
      </trkpt>
      <trkpt lat="46.02571" lon="6.92632">
        <ele>1296</ele>
      </trkpt>
      <trkpt lat="46.02561" lon="6.92619">
        <ele>1297</ele>
      </trkpt>
      <trkpt lat="46.02552" lon="6.92611">
        <ele>1297</ele>
      </trkpt>
      <trkpt lat="46.02539" lon="6.92599">
        <ele>1298</ele>
      </trkpt>
      <trkpt lat="46.02523" lon="6.92588">
        <ele>1298</ele>
      </trkpt>
      <trkpt lat="46.02506" lon="6.92569">
        <ele>1299</ele>
      </trkpt>
      <trkpt lat="46.025" lon="6.92559">
        <ele>1300</ele>
      </trkpt>
      <trkpt lat="46.0249" lon="6.92546">
        <ele>1300</ele>
      </trkpt>
      <trkpt lat="46.02481" lon="6.92536">
        <ele>1301</ele>
      </trkpt>
      <trkpt lat="46.02465" lon="6.92525">
        <ele>1301</ele>
      </trkpt>
      <trkpt lat="46.02456" lon="6.92517">
        <ele>1301</ele>
      </trkpt>
      <trkpt lat="46.02447" lon="6.92515">
        <ele>1301</ele>
      </trkpt>
      <trkpt lat="46.02437" lon="6.92507">
        <ele>1301</ele>
      </trkpt>
      <trkpt lat="46.02425" lon="6.925">
        <ele>1301</ele>
      </trkpt>
      <trkpt lat="46.02411" lon="6.92483">
        <ele>1302</ele>
      </trkpt>
      <trkpt lat="46.02385" lon="6.92458">
        <ele>1305</ele>
      </trkpt>
      <trkpt lat="46.02376" lon="6.92457">
        <ele>1305</ele>
      </trkpt>
      <trkpt lat="46.02353" lon="6.92459">
        <ele>1307</ele>
      </trkpt>
      <trkpt lat="46.02345" lon="6.92449">
        <ele>1308</ele>
      </trkpt>
      <trkpt lat="46.02337" lon="6.92442">
        <ele>1309</ele>
      </trkpt>
      <trkpt lat="46.02329" lon="6.92437">
        <ele>1310</ele>
      </trkpt>
      <trkpt lat="46.02322" lon="6.92432">
        <ele>1311</ele>
      </trkpt>
      <trkpt lat="46.0231" lon="6.92425">
        <ele>1312</ele>
      </trkpt>
      <trkpt lat="46.023" lon="6.92417">
        <ele>1313</ele>
      </trkpt>
      <trkpt lat="46.02293" lon="6.9241">
        <ele>1314</ele>
      </trkpt>
      <trkpt lat="46.02285" lon="6.92403">
        <ele>1315</ele>
      </trkpt>
      <trkpt lat="46.02276" lon="6.92395">
        <ele>1316</ele>
      </trkpt>
      <trkpt lat="46.02263" lon="6.9238">
        <ele>1317</ele>
      </trkpt>
      <trkpt lat="46.02251" lon="6.92373">
        <ele>1318</ele>
      </trkpt>
      <trkpt lat="46.02244" lon="6.92368">
        <ele>1319</ele>
      </trkpt>
      <trkpt lat="46.02234" lon="6.92361">
        <ele>1320</ele>
      </trkpt>
      <trkpt lat="46.02221" lon="6.9235">
        <ele>1321</ele>
      </trkpt>
      <trkpt lat="46.0221" lon="6.9234">
        <ele>1322</ele>
      </trkpt>
      <trkpt lat="46.02198" lon="6.92328">
        <ele>1323</ele>
      </trkpt>
      <trkpt lat="46.0218" lon="6.9231">
        <ele>1324</ele>
      </trkpt>
      <trkpt lat="46.0217" lon="6.92298">
        <ele>1325</ele>
      </trkpt>
      <trkpt lat="46.0216" lon="6.92289">
        <ele>1326</ele>
      </trkpt>
      <trkpt lat="46.02152" lon="6.92283">
        <ele>1327</ele>
      </trkpt>
      <trkpt lat="46.02138" lon="6.92274">
        <ele>1328</ele>
      </trkpt>
      <trkpt lat="46.02128" lon="6.92264">
        <ele>1329</ele>
      </trkpt>
      <trkpt lat="46.02119" lon="6.92252">
        <ele>1329</ele>
      </trkpt>
      <trkpt lat="46.0211" lon="6.92249">
        <ele>1330</ele>
      </trkpt>
      <trkpt lat="46.02102" lon="6.92243">
        <ele>1331</ele>
      </trkpt>
      <trkpt lat="46.02092" lon="6.9224">
        <ele>1332</ele>
      </trkpt>
      <trkpt lat="46.02054" lon="6.92217">
        <ele>1337</ele>
      </trkpt>
      <trkpt lat="46.02045" lon="6.92213">
        <ele>1338</ele>
      </trkpt>
      <trkpt lat="46.02032" lon="6.92205">
        <ele>1340</ele>
      </trkpt>
      <trkpt lat="46.02021" lon="6.92201">
        <ele>1341</ele>
      </trkpt>
      <trkpt lat="46.02005" lon="6.9219">
        <ele>1342</ele>
      </trkpt>
      <trkpt lat="46.01997" lon="6.92195">
        <ele>1344</ele>
      </trkpt>
      <trkpt lat="46.01988" lon="6.92193">
        <ele>1345</ele>
      </trkpt>
      <trkpt lat="46.01979" lon="6.92192">
        <ele>1347</ele>
      </trkpt>
      <trkpt lat="46.01964" lon="6.9219">
        <ele>1349</ele>
      </trkpt>
      <trkpt lat="46.01951" lon="6.92167">
        <ele>1348</ele>
      </trkpt>
      <trkpt lat="46.01931" lon="6.92148">
        <ele>1350</ele>
      </trkpt>
      <trkpt lat="46.0192" lon="6.92137">
        <ele>1351</ele>
      </trkpt>
      <trkpt lat="46.01918" lon="6.92121">
        <ele>1350</ele>
      </trkpt>
      <trkpt lat="46.01902" lon="6.92107">
        <ele>1351</ele>
      </trkpt>
      <trkpt lat="46.01893" lon="6.92104">
        <ele>1352</ele>
      </trkpt>
      <trkpt lat="46.01885" lon="6.92107">
        <ele>1353</ele>
      </trkpt>
      <trkpt lat="46.01872" lon="6.92103">
        <ele>1354</ele>
      </trkpt>
      <trkpt lat="46.01854" lon="6.92094">
        <ele>1355</ele>
      </trkpt>
      <trkpt lat="46.01847" lon="6.92096">
        <ele>1356</ele>
      </trkpt>
      <trkpt lat="46.01837" lon="6.92088">
        <ele>1356</ele>
      </trkpt>
      <trkpt lat="46.01828" lon="6.92089">
        <ele>1357</ele>
      </trkpt>
      <trkpt lat="46.0182" lon="6.92093">
        <ele>1358</ele>
      </trkpt>
      <trkpt lat="46.0181" lon="6.92094">
        <ele>1359</ele>
      </trkpt>
      <trkpt lat="46.01799" lon="6.92098">
        <ele>1360</ele>
      </trkpt>
      <trkpt lat="46.01789" lon="6.92102">
        <ele>1361</ele>
      </trkpt>
      <trkpt lat="46.01775" lon="6.92101">
        <ele>1362</ele>
      </trkpt>
      <trkpt lat="46.0177" lon="6.92092">
        <ele>1360</ele>
      </trkpt>
      <trkpt lat="46.01757" lon="6.92093">
        <ele>1361</ele>
      </trkpt>
      <trkpt lat="46.01749" lon="6.92103">
        <ele>1364</ele>
      </trkpt>
      <trkpt lat="46.0174" lon="6.92101">
        <ele>1364</ele>
      </trkpt>
      <trkpt lat="46.01731" lon="6.92102">
        <ele>1365</ele>
      </trkpt>
      <trkpt lat="46.01724" lon="6.92095">
        <ele>1364</ele>
      </trkpt>
      <trkpt lat="46.01716" lon="6.92093">
        <ele>1364</ele>
      </trkpt>
      <trkpt lat="46.01703" lon="6.92096">
        <ele>1366</ele>
      </trkpt>
      <trkpt lat="46.01693" lon="6.92097">
        <ele>1367</ele>
      </trkpt>
      <trkpt lat="46.01689" lon="6.92085">
        <ele>1366</ele>
      </trkpt>
      <trkpt lat="46.0168" lon="6.92082">
        <ele>1366</ele>
      </trkpt>
      <trkpt lat="46.01673" lon="6.92067">
        <ele>1365</ele>
      </trkpt>
      <trkpt lat="46.01659" lon="6.92075">
        <ele>1367</ele>
      </trkpt>
      <trkpt lat="46.01639" lon="6.92074">
        <ele>1366</ele>
      </trkpt>
      <trkpt lat="46.01624" lon="6.92086">
        <ele>1367</ele>
      </trkpt>
      <trkpt lat="46.01615" lon="6.92089">
        <ele>1368</ele>
      </trkpt>
      <trkpt lat="46.01611" lon="6.92099">
        <ele>1369</ele>
      </trkpt>
      <trkpt lat="46.01602" lon="6.92105">
        <ele>1370</ele>
      </trkpt>
      <trkpt lat="46.01593" lon="6.92106">
        <ele>1370</ele>
      </trkpt>
      <trkpt lat="46.01581" lon="6.92115">
        <ele>1371</ele>
      </trkpt>
      <trkpt lat="46.01574" lon="6.92122">
        <ele>1372</ele>
      </trkpt>
      <trkpt lat="46.01563" lon="6.92138">
        <ele>1373</ele>
      </trkpt>
      <trkpt lat="46.01555" lon="6.92144">
        <ele>1373</ele>
      </trkpt>
      <trkpt lat="46.01546" lon="6.92154">
        <ele>1374</ele>
      </trkpt>
      <trkpt lat="46.01538" lon="6.92165">
        <ele>1375</ele>
      </trkpt>
      <trkpt lat="46.01531" lon="6.92171">
        <ele>1375</ele>
      </trkpt>
      <trkpt lat="46.01516" lon="6.92184">
        <ele>1376</ele>
      </trkpt>
      <trkpt lat="46.01508" lon="6.92193">
        <ele>1376</ele>
      </trkpt>
      <trkpt lat="46.01499" lon="6.92198">
        <ele>1376</ele>
      </trkpt>
      <trkpt lat="46.01491" lon="6.92201">
        <ele>1377</ele>
      </trkpt>
      <trkpt lat="46.01481" lon="6.92206">
        <ele>1378</ele>
      </trkpt>
      <trkpt lat="46.01468" lon="6.92205">
        <ele>1378</ele>
      </trkpt>
      <trkpt lat="46.01454" lon="6.92201">
        <ele>1378</ele>
      </trkpt>
      <trkpt lat="46.01441" lon="6.92203">
        <ele>1378</ele>
      </trkpt>
      <trkpt lat="46.01432" lon="6.92206">
        <ele>1379</ele>
      </trkpt>
      <trkpt lat="46.01418" lon="6.92204">
        <ele>1379</ele>
      </trkpt>
      <trkpt lat="46.01411" lon="6.92215">
        <ele>1381</ele>
      </trkpt>
      <trkpt lat="46.01403" lon="6.92222">
        <ele>1383</ele>
      </trkpt>
      <trkpt lat="46.01394" lon="6.92228">
        <ele>1384</ele>
      </trkpt>
      <trkpt lat="46.01385" lon="6.92235">
        <ele>1384</ele>
      </trkpt>
      <trkpt lat="46.01376" lon="6.92249">
        <ele>1385</ele>
      </trkpt>
      <trkpt lat="46.01359" lon="6.92257">
        <ele>1386</ele>
      </trkpt>
      <trkpt lat="46.01351" lon="6.92257">
        <ele>1386</ele>
      </trkpt>
      <trkpt lat="46.0134" lon="6.92259">
        <ele>1386</ele>
      </trkpt>
      <trkpt lat="46.01338" lon="6.92273">
        <ele>1388</ele>
      </trkpt>
      <trkpt lat="46.01327" lon="6.92277">
        <ele>1389</ele>
      </trkpt>
      <trkpt lat="46.01317" lon="6.92281">
        <ele>1390</ele>
      </trkpt>
      <trkpt lat="46.01307" lon="6.92284">
        <ele>1391</ele>
      </trkpt>
      <trkpt lat="46.013" lon="6.92286">
        <ele>1391</ele>
      </trkpt>
      <trkpt lat="46.0129" lon="6.92294">
        <ele>1392</ele>
      </trkpt>
      <trkpt lat="46.01282" lon="6.92306">
        <ele>1393</ele>
      </trkpt>
      <trkpt lat="46.01277" lon="6.92318">
        <ele>1394</ele>
      </trkpt>
      <trkpt lat="46.01269" lon="6.92327">
        <ele>1395</ele>
      </trkpt>
      <trkpt lat="46.01254" lon="6.9234">
        <ele>1395</ele>
      </trkpt>
      <trkpt lat="46.01253" lon="6.92356">
        <ele>1398</ele>
      </trkpt>
      <trkpt lat="46.01249" lon="6.92366">
        <ele>1400</ele>
      </trkpt>
      <trkpt lat="46.01243" lon="6.92385">
        <ele>1403</ele>
      </trkpt>
      <trkpt lat="46.01234" lon="6.9239">
        <ele>1404</ele>
      </trkpt>
      <trkpt lat="46.01228" lon="6.92396">
        <ele>1405</ele>
      </trkpt>
      <trkpt lat="46.01218" lon="6.92402">
        <ele>1406</ele>
      </trkpt>
      <trkpt lat="46.01209" lon="6.92423">
        <ele>1409</ele>
      </trkpt>
      <trkpt lat="46.01199" lon="6.92435">
        <ele>1412</ele>
      </trkpt>
      <trkpt lat="46.0119" lon="6.92443">
        <ele>1414</ele>
      </trkpt>
      <trkpt lat="46.01182" lon="6.92447">
        <ele>1414</ele>
      </trkpt>
      <trkpt lat="46.01174" lon="6.92444">
        <ele>1413</ele>
      </trkpt>
      <trkpt lat="46.01158" lon="6.9245">
        <ele>1414</ele>
      </trkpt>
      <trkpt lat="46.01149" lon="6.92451">
        <ele>1415</ele>
      </trkpt>
      <trkpt lat="46.01137" lon="6.92451">
        <ele>1415</ele>
      </trkpt>
      <trkpt lat="46.01122" lon="6.92459">
        <ele>1417</ele>
      </trkpt>
      <trkpt lat="46.01115" lon="6.92463">
        <ele>1418</ele>
      </trkpt>
      <trkpt lat="46.01105" lon="6.92458">
        <ele>1417</ele>
      </trkpt>
      <trkpt lat="46.01094" lon="6.92458">
        <ele>1418</ele>
      </trkpt>
      <trkpt lat="46.01087" lon="6.92461">
        <ele>1418</ele>
      </trkpt>
      <trkpt lat="46.01068" lon="6.92447">
        <ele>1416</ele>
      </trkpt>
      <trkpt lat="46.01051" lon="6.92436">
        <ele>1415</ele>
      </trkpt>
      <trkpt lat="46.01044" lon="6.92436">
        <ele>1415</ele>
      </trkpt>
      <trkpt lat="46.01036" lon="6.92433">
        <ele>1415</ele>
      </trkpt>
      <trkpt lat="46.01024" lon="6.92427">
        <ele>1415</ele>
      </trkpt>
      <trkpt lat="46.01001" lon="6.92433">
        <ele>1416</ele>
      </trkpt>
      <trkpt lat="46.00992" lon="6.92437">
        <ele>1416</ele>
      </trkpt>
      <trkpt lat="46.00978" lon="6.92436">
        <ele>1417</ele>
      </trkpt>
      <trkpt lat="46.00968" lon="6.92442">
        <ele>1417</ele>
      </trkpt>
      <trkpt lat="46.00959" lon="6.92443">
        <ele>1418</ele>
      </trkpt>
      <trkpt lat="46.00941" lon="6.9245">
        <ele>1418</ele>
      </trkpt>
      <trkpt lat="46.00922" lon="6.92454">
        <ele>1419</ele>
      </trkpt>
      <trkpt lat="46.00903" lon="6.92458">
        <ele>1420</ele>
      </trkpt>
      <trkpt lat="46.00892" lon="6.92456">
        <ele>1421</ele>
      </trkpt>
      <trkpt lat="46.00883" lon="6.92453">
        <ele>1421</ele>
      </trkpt>
      <trkpt lat="46.00868" lon="6.92453">
        <ele>1422</ele>
      </trkpt>
      <trkpt lat="46.0086" lon="6.9244">
        <ele>1422</ele>
      </trkpt>
      <trkpt lat="46.00866" lon="6.9245">
        <ele>1422</ele>
      </trkpt>
      <trkpt lat="46.00848" lon="6.92446">
        <ele>1423</ele>
      </trkpt>
      <trkpt lat="46.00834" lon="6.92437">
        <ele>1424</ele>
      </trkpt>
      <trkpt lat="46.00825" lon="6.92433">
        <ele>1424</ele>
      </trkpt>
      <trkpt lat="46.00813" lon="6.92424">
        <ele>1425</ele>
      </trkpt>
      <trkpt lat="46.00801" lon="6.92413">
        <ele>1425</ele>
      </trkpt>
      <trkpt lat="46.00791" lon="6.92409">
        <ele>1426</ele>
      </trkpt>
      <trkpt lat="46.0078" lon="6.92408">
        <ele>1427</ele>
      </trkpt>
      <trkpt lat="46.00772" lon="6.92406">
        <ele>1427</ele>
      </trkpt>
      <trkpt lat="46.00764" lon="6.92401">
        <ele>1428</ele>
      </trkpt>
      <trkpt lat="46.00755" lon="6.92397">
        <ele>1428</ele>
      </trkpt>
      <trkpt lat="46.00745" lon="6.92388">
        <ele>1430</ele>
      </trkpt>
      <trkpt lat="46.0073" lon="6.92368">
        <ele>1432</ele>
      </trkpt>
      <trkpt lat="46.00723" lon="6.92365">
        <ele>1432</ele>
      </trkpt>
      <trkpt lat="46.00714" lon="6.92359">
        <ele>1434</ele>
      </trkpt>
      <trkpt lat="46.00706" lon="6.9236">
        <ele>1434</ele>
      </trkpt>
      <trkpt lat="46.00695" lon="6.92358">
        <ele>1436</ele>
      </trkpt>
      <trkpt lat="46.00687" lon="6.92356">
        <ele>1437</ele>
      </trkpt>
      <trkpt lat="46.00675" lon="6.92339">
        <ele>1438</ele>
      </trkpt>
      <trkpt lat="46.00666" lon="6.9234">
        <ele>1439</ele>
      </trkpt>
      <trkpt lat="46.00651" lon="6.92336">
        <ele>1440</ele>
      </trkpt>
      <trkpt lat="46.0064" lon="6.92331">
        <ele>1441</ele>
      </trkpt>
      <trkpt lat="46.0063" lon="6.92331">
        <ele>1442</ele>
      </trkpt>
      <trkpt lat="46.00623" lon="6.92334">
        <ele>1442</ele>
      </trkpt>
      <trkpt lat="46.00611" lon="6.9234">
        <ele>1443</ele>
      </trkpt>
      <trkpt lat="46.00601" lon="6.92346">
        <ele>1444</ele>
      </trkpt>
      <trkpt lat="46.00593" lon="6.92355">
        <ele>1445</ele>
      </trkpt>
      <trkpt lat="46.00589" lon="6.92365">
        <ele>1446</ele>
      </trkpt>
      <trkpt lat="46.0058" lon="6.9239">
        <ele>1448</ele>
      </trkpt>
      <trkpt lat="46.00575" lon="6.92405">
        <ele>1449</ele>
      </trkpt>
      <trkpt lat="46.00571" lon="6.92415">
        <ele>1450</ele>
      </trkpt>
      <trkpt lat="46.00566" lon="6.92432">
        <ele>1452</ele>
      </trkpt>
      <trkpt lat="46.00556" lon="6.92446">
        <ele>1456</ele>
      </trkpt>
      <trkpt lat="46.0055" lon="6.92458">
        <ele>1458</ele>
      </trkpt>
      <trkpt lat="46.00541" lon="6.92466">
        <ele>1461</ele>
      </trkpt>
      <trkpt lat="46.00534" lon="6.92466">
        <ele>1462</ele>
      </trkpt>
      <trkpt lat="46.00531" lon="6.92469">
        <ele>1463</ele>
      </trkpt>
      <trkpt lat="46.00506" lon="6.92452">
        <ele>1463</ele>
      </trkpt>
      <trkpt lat="46.00488" lon="6.92441">
        <ele>1464</ele>
      </trkpt>
      <trkpt lat="46.00477" lon="6.92436">
        <ele>1466</ele>
      </trkpt>
      <trkpt lat="46.0047" lon="6.92431">
        <ele>1466</ele>
      </trkpt>
      <trkpt lat="46.00459" lon="6.92428">
        <ele>1467</ele>
      </trkpt>
      <trkpt lat="46.0045" lon="6.92423">
        <ele>1468</ele>
      </trkpt>
      <trkpt lat="46.00443" lon="6.9242">
        <ele>1468</ele>
      </trkpt>
      <trkpt lat="46.00433" lon="6.92413">
        <ele>1469</ele>
      </trkpt>
      <trkpt lat="46.00423" lon="6.92401">
        <ele>1470</ele>
      </trkpt>
      <trkpt lat="46.00408" lon="6.92384">
        <ele>1469</ele>
      </trkpt>
      <trkpt lat="46.00404" lon="6.92364">
        <ele>1466</ele>
      </trkpt>
      <trkpt lat="46.00404" lon="6.92364">
        <ele>1466</ele>
      </trkpt>
      <trkpt lat="46.00386" lon="6.92371">
        <ele>1467</ele>
      </trkpt>
      <trkpt lat="46.00278" lon="6.92369">
        <ele>1462</ele>
      </trkpt>
      <trkpt lat="46.0022" lon="6.92361">
        <ele>1456</ele>
      </trkpt>
      <trkpt lat="46.00086" lon="6.92391">
        <ele>1443</ele>
      </trkpt>
      <trkpt lat="46.00024" lon="6.92412">
        <ele>1439</ele>
      </trkpt>
      <trkpt lat="45.99939" lon="6.92402">
        <ele>1433</ele>
      </trkpt>
      <trkpt lat="45.99886" lon="6.92436">
        <ele>1430</ele>
      </trkpt>
      <trkpt lat="45.99842" lon="6.92449">
        <ele>1425</ele>
      </trkpt>
      <trkpt lat="45.99814" lon="6.92495">
        <ele>1422</ele>
      </trkpt>
      <trkpt lat="45.99742" lon="6.92599">
        <ele>1418</ele>
      </trkpt>
      <trkpt lat="45.99723" lon="6.92597">
        <ele>1415.679688</ele>
      </trkpt>
      <trkpt lat="45.99657" lon="6.92614">
        <ele>1417.873047</ele>
      </trkpt>
      <trkpt lat="45.99606" lon="6.9259">
        <ele>1428.477051</ele>
      </trkpt>
      <trkpt lat="45.99555" lon="6.9256">
        <ele>1442.678955</ele>
      </trkpt>
      <trkpt lat="45.9951" lon="6.92495">
        <ele>1453.369751</ele>
      </trkpt>
      <trkpt lat="45.99484" lon="6.92477">
        <ele>1456.119263</ele>
      </trkpt>
      <trkpt lat="45.99481" lon="6.92457">
        <ele>1459.785278</ele>
      </trkpt>
      <trkpt lat="45.99467" lon="6.92446">
        <ele>1461.865845</ele>
      </trkpt>
      <trkpt lat="45.99462" lon="6.9242">
        <ele>1467.48584</ele>
      </trkpt>
      <trkpt lat="45.99431" lon="6.92411">
        <ele>1469.791138</ele>
      </trkpt>
      <trkpt lat="45.99412" lon="6.92374">
        <ele>1479.443237</ele>
      </trkpt>
      <trkpt lat="45.99406" lon="6.9236">
        <ele>1482.543213</ele>
      </trkpt>
      <trkpt lat="45.99367" lon="6.92305">
        <ele>1495.716553</ele>
      </trkpt>
      <trkpt lat="45.99318" lon="6.92253">
        <ele>1512.156616</ele>
      </trkpt>
      <trkpt lat="45.99251" lon="6.92225">
        <ele>1523.074707</ele>
      </trkpt>
      <trkpt lat="45.99229" lon="6.92203">
        <ele>1530.880737</ele>
      </trkpt>
      <trkpt lat="45.99213" lon="6.92163">
        <ele>1545.819336</ele>
      </trkpt>
      <trkpt lat="45.99188" lon="6.92119">
        <ele>1564.664063</ele>
      </trkpt>
      <trkpt lat="45.99141" lon="6.92118">
        <ele>1570.425049</ele>
      </trkpt>
      <trkpt lat="45.99116" lon="6.9211">
        <ele>1574.416992</ele>
      </trkpt>
      <trkpt lat="45.99099" lon="6.92079">
        <ele>1589.645874</ele>
      </trkpt>
      <trkpt lat="45.99083" lon="6.92049">
        <ele>1604.70874</ele>
      </trkpt>
      <trkpt lat="45.99044" lon="6.92055">
        <ele>1608.257324</ele>
      </trkpt>
      <trkpt lat="45.98987" lon="6.92028">
        <ele>1625.889893</ele>
      </trkpt>
      <trkpt lat="45.98934" lon="6.91981">
        <ele>1645.911255</ele>
      </trkpt>
      <trkpt lat="45.98915" lon="6.91967">
        <ele>1652.132935</ele>
      </trkpt>
      <trkpt lat="45.98878" lon="6.91935">
        <ele>1663.651001</ele>
      </trkpt>
      <trkpt lat="45.98834" lon="6.91889">
        <ele>1675.717896</ele>
      </trkpt>
      <trkpt lat="45.98807" lon="6.91848">
        <ele>1687.489258</ele>
      </trkpt>
      <trkpt lat="45.98787" lon="6.91846">
        <ele>1688.723755</ele>
      </trkpt>
      <trkpt lat="45.98772" lon="6.91822">
        <ele>1695.038696</ele>
      </trkpt>
      <trkpt lat="45.98751" lon="6.91775">
        <ele>1703.527832</ele>
      </trkpt>
      <trkpt lat="45.98761" lon="6.91766">
        <ele>1706.636841</ele>
      </trkpt>
      <trkpt lat="45.98756" lon="6.91721">
        <ele>1716.978882</ele>
      </trkpt>
      <trkpt lat="45.98723" lon="6.91754">
        <ele>1704.918823</ele>
      </trkpt>
      <trkpt lat="45.98689" lon="6.91748">
        <ele>1703.672119</ele>
      </trkpt>
      <trkpt lat="45.98662" lon="6.91758">
        <ele>1701.014038</ele>
      </trkpt>
      <trkpt lat="45.98633" lon="6.9174">
        <ele>1701.675415</ele>
      </trkpt>
      <trkpt lat="45.98578" lon="6.91725">
        <ele>1700.858154</ele>
      </trkpt>
      <trkpt lat="45.9855" lon="6.91736">
        <ele>1698.303467</ele>
      </trkpt>
      <trkpt lat="45.98495" lon="6.91709">
        <ele>1688.02002</ele>
      </trkpt>
      <trkpt lat="45.98466" lon="6.917">
        <ele>1674.820068</ele>
      </trkpt>
      <trkpt lat="45.98442" lon="6.91688">
        <ele>1663.006226</ele>
      </trkpt>
      <trkpt lat="45.9841" lon="6.91695">
        <ele>1646.32959</ele>
      </trkpt>
      <trkpt lat="45.98405" lon="6.91708">
        <ele>1642.466431</ele>
      </trkpt>
      <trkpt lat="45.98389" lon="6.917">
        <ele>1636.589844</ele>
      </trkpt>
      <trkpt lat="45.98388" lon="6.91722">
        <ele>1633.262451</ele>
      </trkpt>
      <trkpt lat="45.98324" lon="6.91704">
        <ele>1608.82666</ele>
      </trkpt>
      <trkpt lat="45.9828" lon="6.91684">
        <ele>1594.82666</ele>
      </trkpt>
      <trkpt lat="45.98215" lon="6.91653">
        <ele>1576.681519</ele>
      </trkpt>
      <trkpt lat="45.98195" lon="6.91651">
        <ele>1570.731079</ele>
      </trkpt>
      <trkpt lat="45.98159" lon="6.91664">
        <ele>1557.800903</ele>
      </trkpt>
      <trkpt lat="45.98129" lon="6.91662">
        <ele>1547.591919</ele>
      </trkpt>
      <trkpt lat="45.98076" lon="6.91638">
        <ele>1530.364502</ele>
      </trkpt>
      <trkpt lat="45.98049" lon="6.91636">
        <ele>1522.396606</ele>
      </trkpt>
      <trkpt lat="45.98038" lon="6.91641">
        <ele>1521.151733</ele>
      </trkpt>
      <trkpt lat="45.98005" lon="6.91616">
        <ele>1510.898926</ele>
      </trkpt>
      <trkpt lat="45.97975" lon="6.91594">
        <ele>1488.282349</ele>
      </trkpt>
      <trkpt lat="45.97948" lon="6.91582">
        <ele>1474.547485</ele>
      </trkpt>
      <trkpt lat="45.97939" lon="6.91582">
        <ele>1480</ele>
        <time>2011-06-11T14:46:41Z</time>
      </trkpt>
      <trkpt lat="45.97923" lon="6.91576">
        <ele>1476</ele>
        <time>2011-06-11T14:46:50Z</time>
      </trkpt>
      <trkpt lat="45.97911" lon="6.91577">
        <ele>1475</ele>
        <time>2011-06-11T14:46:56Z</time>
      </trkpt>
      <trkpt lat="45.979" lon="6.9158">
        <ele>1473</ele>
        <time>2011-06-11T14:47:03Z</time>
      </trkpt>
      <trkpt lat="45.97881" lon="6.91581">
        <ele>1472</ele>
        <time>2011-06-11T14:47:11Z</time>
      </trkpt>
      <trkpt lat="45.9787" lon="6.91574">
        <ele>1469</ele>
        <time>2011-06-11T14:47:23Z</time>
      </trkpt>
      <trkpt lat="45.97859" lon="6.91572">
        <ele>1466</ele>
        <time>2011-06-11T14:47:32Z</time>
      </trkpt>
      <trkpt lat="45.97841" lon="6.91571">
        <ele>1462</ele>
        <time>2011-06-11T14:47:44Z</time>
      </trkpt>
      <trkpt lat="45.97847" lon="6.91552">
        <ele>1462</ele>
        <time>2011-06-11T14:47:50Z</time>
      </trkpt>
      <trkpt lat="45.97844" lon="6.91536">
        <ele>1461</ele>
        <time>2011-06-11T14:47:59Z</time>
      </trkpt>
      <trkpt lat="45.97834" lon="6.91516">
        <ele>1458</ele>
        <time>2011-06-11T14:48:09Z</time>
      </trkpt>
      <trkpt lat="45.97812" lon="6.91502">
        <ele>1456</ele>
        <time>2011-06-11T14:48:16Z</time>
      </trkpt>
      <trkpt lat="45.97803" lon="6.9149">
        <ele>1458</ele>
        <time>2011-06-11T14:48:22Z</time>
      </trkpt>
      <trkpt lat="45.97793" lon="6.91477">
        <ele>1460</ele>
        <time>2011-06-11T14:48:31Z</time>
      </trkpt>
      <trkpt lat="45.9779" lon="6.91465">
        <ele>1461</ele>
        <time>2011-06-11T14:48:38Z</time>
      </trkpt>
      <trkpt lat="45.97796" lon="6.91455">
        <ele>1464</ele>
        <time>2011-06-11T14:48:47Z</time>
      </trkpt>
      <trkpt lat="45.97794" lon="6.91444">
        <ele>1465</ele>
        <time>2011-06-11T14:48:54Z</time>
      </trkpt>
      <trkpt lat="45.9779" lon="6.9143">
        <ele>1467</ele>
        <time>2011-06-11T14:49:01Z</time>
      </trkpt>
      <trkpt lat="45.97788" lon="6.91418">
        <ele>1467</ele>
        <time>2011-06-11T14:49:07Z</time>
      </trkpt>
      <trkpt lat="45.97783" lon="6.91405">
        <ele>1470</ele>
        <time>2011-06-11T14:49:14Z</time>
      </trkpt>
      <trkpt lat="45.97779" lon="6.91395">
        <ele>1470</ele>
        <time>2011-06-11T14:49:20Z</time>
      </trkpt>
      <trkpt lat="45.97772" lon="6.91384">
        <ele>1471</ele>
        <time>2011-06-11T14:49:27Z</time>
      </trkpt>
      <trkpt lat="45.97767" lon="6.91372">
        <ele>1472</ele>
        <time>2011-06-11T14:49:34Z</time>
      </trkpt>
      <trkpt lat="45.97761" lon="6.9136">
        <ele>1473</ele>
        <time>2011-06-11T14:49:41Z</time>
      </trkpt>
      <trkpt lat="45.97754" lon="6.9135">
        <ele>1474</ele>
        <time>2011-06-11T14:49:51Z</time>
      </trkpt>
      <trkpt lat="45.97748" lon="6.91332">
        <ele>1476</ele>
        <time>2011-06-11T14:50:08Z</time>
      </trkpt>
      <trkpt lat="45.97742" lon="6.91319">
        <ele>1477</ele>
        <time>2011-06-11T14:50:15Z</time>
      </trkpt>
      <trkpt lat="45.97735" lon="6.91304">
        <ele>1478</ele>
        <time>2011-06-11T14:50:22Z</time>
      </trkpt>
      <trkpt lat="45.97729" lon="6.91296">
        <ele>1480</ele>
        <time>2011-06-11T14:50:28Z</time>
      </trkpt>
      <trkpt lat="45.97723" lon="6.91285">
        <ele>1481</ele>
        <time>2011-06-11T14:50:35Z</time>
      </trkpt>
      <trkpt lat="45.97717" lon="6.91272">
        <ele>1482</ele>
        <time>2011-06-11T14:50:43Z</time>
      </trkpt>
      <trkpt lat="45.97713" lon="6.9126">
        <ele>1484</ele>
        <time>2011-06-11T14:50:50Z</time>
      </trkpt>
      <trkpt lat="45.97708" lon="6.91251">
        <ele>1485</ele>
        <time>2011-06-11T14:50:58Z</time>
      </trkpt>
      <trkpt lat="45.977" lon="6.91244">
        <ele>1488</ele>
        <time>2011-06-11T14:51:06Z</time>
      </trkpt>
      <trkpt lat="45.97693" lon="6.91235">
        <ele>1489</ele>
        <time>2011-06-11T14:51:14Z</time>
      </trkpt>
      <trkpt lat="45.97689" lon="6.9122">
        <ele>1491</ele>
        <time>2011-06-11T14:51:21Z</time>
      </trkpt>
      <trkpt lat="45.97686" lon="6.91208">
        <ele>1493</ele>
        <time>2011-06-11T14:51:28Z</time>
      </trkpt>
      <trkpt lat="45.97684" lon="6.91193">
        <ele>1495</ele>
        <time>2011-06-11T14:51:36Z</time>
      </trkpt>
      <trkpt lat="45.97672" lon="6.91183">
        <ele>1496</ele>
        <time>2011-06-11T14:51:46Z</time>
      </trkpt>
      <trkpt lat="45.97666" lon="6.91175">
        <ele>1497</ele>
        <time>2011-06-11T14:51:53Z</time>
      </trkpt>
      <trkpt lat="45.97662" lon="6.91154">
        <ele>1500</ele>
        <time>2011-06-11T14:52:02Z</time>
      </trkpt>
      <trkpt lat="45.97657" lon="6.91143">
        <ele>1501</ele>
        <time>2011-06-11T14:52:10Z</time>
      </trkpt>
      <trkpt lat="45.9765" lon="6.91134">
        <ele>1507</ele>
        <time>2011-06-11T14:52:22Z</time>
      </trkpt>
      <trkpt lat="45.97638" lon="6.91142">
        <ele>1509</ele>
        <time>2011-06-11T14:52:34Z</time>
      </trkpt>
      <trkpt lat="45.97628" lon="6.91134">
        <ele>1512</ele>
        <time>2011-06-11T14:52:45Z</time>
      </trkpt>
      <trkpt lat="45.97616" lon="6.91134">
        <ele>1516</ele>
        <time>2011-06-11T14:53:01Z</time>
      </trkpt>
      <trkpt lat="45.97613" lon="6.91117">
        <ele>1515</ele>
        <time>2011-06-11T14:53:11Z</time>
      </trkpt>
      <trkpt lat="45.9761" lon="6.91095">
        <ele>1516</ele>
        <time>2011-06-11T14:53:19Z</time>
      </trkpt>
      <trkpt lat="45.97608" lon="6.91079">
        <ele>1520</ele>
        <time>2011-06-11T14:53:28Z</time>
      </trkpt>
      <trkpt lat="45.97603" lon="6.91065">
        <ele>1522</ele>
        <time>2011-06-11T14:53:39Z</time>
      </trkpt>
      <trkpt lat="45.97594" lon="6.91056">
        <ele>1521</ele>
        <time>2011-06-11T14:53:47Z</time>
      </trkpt>
      <trkpt lat="45.97585" lon="6.91047">
        <ele>1524</ele>
        <time>2011-06-11T14:53:56Z</time>
      </trkpt>
      <trkpt lat="45.97578" lon="6.91036">
        <ele>1523</ele>
        <time>2011-06-11T14:54:02Z</time>
      </trkpt>
      <trkpt lat="45.97568" lon="6.91025">
        <ele>1522</ele>
        <time>2011-06-11T14:54:08Z</time>
      </trkpt>
      <trkpt lat="45.9756" lon="6.91016">
        <ele>1523</ele>
        <time>2011-06-11T14:54:14Z</time>
      </trkpt>
      <trkpt lat="45.9755" lon="6.91008">
        <ele>1522</ele>
        <time>2011-06-11T14:54:21Z</time>
      </trkpt>
      <trkpt lat="45.97538" lon="6.91005">
        <ele>1522</ele>
        <time>2011-06-11T14:54:29Z</time>
      </trkpt>
      <trkpt lat="45.97524" lon="6.90993">
        <ele>1521</ele>
        <time>2011-06-11T14:54:36Z</time>
      </trkpt>
      <trkpt lat="45.97516" lon="6.90981">
        <ele>1521</ele>
        <time>2011-06-11T14:54:43Z</time>
      </trkpt>
      <trkpt lat="45.97509" lon="6.90966">
        <ele>1521</ele>
        <time>2011-06-11T14:54:49Z</time>
      </trkpt>
      <trkpt lat="45.97501" lon="6.90959">
        <ele>1522</ele>
        <time>2011-06-11T14:54:56Z</time>
      </trkpt>
      <trkpt lat="45.97492" lon="6.90954">
        <ele>1521</ele>
        <time>2011-06-11T14:55:04Z</time>
      </trkpt>
      <trkpt lat="45.97478" lon="6.90952">
        <ele>1519</ele>
        <time>2011-06-11T14:55:15Z</time>
      </trkpt>
      <trkpt lat="45.97466" lon="6.9095">
        <ele>1518</ele>
        <time>2011-06-11T14:55:21Z</time>
      </trkpt>
      <trkpt lat="45.97447" lon="6.90941">
        <ele>1519</ele>
        <time>2011-06-11T14:55:30Z</time>
      </trkpt>
      <trkpt lat="45.97438" lon="6.90927">
        <ele>1519</ele>
        <time>2011-06-11T14:55:35Z</time>
      </trkpt>
      <trkpt lat="45.9743" lon="6.90912">
        <ele>1518</ele>
        <time>2011-06-11T14:55:40Z</time>
      </trkpt>
      <trkpt lat="45.97424" lon="6.909">
        <ele>1518</ele>
        <time>2011-06-11T14:55:46Z</time>
      </trkpt>
      <trkpt lat="45.97408" lon="6.90903">
        <ele>1519</ele>
        <time>2011-06-11T14:55:53Z</time>
      </trkpt>
      <trkpt lat="45.97399" lon="6.90891">
        <ele>1519</ele>
        <time>2011-06-11T14:55:59Z</time>
      </trkpt>
      <trkpt lat="45.97394" lon="6.90877">
        <ele>1519</ele>
        <time>2011-06-11T14:56:04Z</time>
      </trkpt>
      <trkpt lat="45.97386" lon="6.9087">
        <ele>1520</ele>
        <time>2011-06-11T14:56:10Z</time>
      </trkpt>
      <trkpt lat="45.97375" lon="6.90862">
        <ele>1522</ele>
        <time>2011-06-11T14:56:20Z</time>
      </trkpt>
      <trkpt lat="45.97371" lon="6.90846">
        <ele>1524</ele>
        <time>2011-06-11T14:56:28Z</time>
      </trkpt>
      <trkpt lat="45.97368" lon="6.90825">
        <ele>1523</ele>
        <time>2011-06-11T14:56:36Z</time>
      </trkpt>
      <trkpt lat="45.97353" lon="6.90816">
        <ele>1522</ele>
        <time>2011-06-11T14:56:44Z</time>
      </trkpt>
      <trkpt lat="45.97347" lon="6.90799">
        <ele>1520</ele>
        <time>2011-06-11T14:56:51Z</time>
      </trkpt>
      <trkpt lat="45.97333" lon="6.90781">
        <ele>1520</ele>
        <time>2011-06-11T14:56:57Z</time>
      </trkpt>
      <trkpt lat="45.97324" lon="6.9077">
        <ele>1520</ele>
        <time>2011-06-11T14:57:04Z</time>
      </trkpt>
      <trkpt lat="45.97306" lon="6.90762">
        <ele>1520</ele>
        <time>2011-06-11T14:57:12Z</time>
      </trkpt>
      <trkpt lat="45.97298" lon="6.90752">
        <ele>1522</ele>
        <time>2011-06-11T14:57:19Z</time>
      </trkpt>
      <trkpt lat="45.97286" lon="6.90744">
        <ele>1525</ele>
        <time>2011-06-11T14:57:29Z</time>
      </trkpt>
      <trkpt lat="45.97277" lon="6.90738">
        <ele>1524</ele>
        <time>2011-06-11T14:57:37Z</time>
      </trkpt>
      <trkpt lat="45.97267" lon="6.90733">
        <ele>1524</ele>
        <time>2011-06-11T14:57:45Z</time>
      </trkpt>
      <trkpt lat="45.97257" lon="6.90715">
        <ele>1524</ele>
        <time>2011-06-11T14:57:53Z</time>
      </trkpt>
      <trkpt lat="45.97244" lon="6.90709">
        <ele>1524</ele>
        <time>2011-06-11T14:58:00Z</time>
      </trkpt>
      <trkpt lat="45.97235" lon="6.90705">
        <ele>1525</ele>
        <time>2011-06-11T14:58:06Z</time>
      </trkpt>
      <trkpt lat="45.97226" lon="6.90691">
        <ele>1525</ele>
        <time>2011-06-11T14:58:12Z</time>
      </trkpt>
      <trkpt lat="45.9722" lon="6.90678">
        <ele>1528</ele>
        <time>2011-06-11T14:58:22Z</time>
      </trkpt>
      <trkpt lat="45.97209" lon="6.9066">
        <ele>1527</ele>
        <time>2011-06-11T14:58:31Z</time>
      </trkpt>
      <trkpt lat="45.97208" lon="6.90636">
        <ele>1525</ele>
        <time>2011-06-11T14:58:36Z</time>
      </trkpt>
      <trkpt lat="45.97201" lon="6.90621">
        <ele>1524</ele>
        <time>2011-06-11T14:58:40Z</time>
      </trkpt>
      <trkpt lat="45.97195" lon="6.90611">
        <ele>1526</ele>
        <time>2011-06-11T14:58:50Z</time>
      </trkpt>
      <trkpt lat="45.97182" lon="6.90617">
        <ele>1533</ele>
        <time>2011-06-11T14:59:12Z</time>
      </trkpt>
      <trkpt lat="45.97172" lon="6.90621">
        <ele>1532</ele>
        <time>2011-06-11T14:59:20Z</time>
      </trkpt>
      <trkpt lat="45.97162" lon="6.90626">
        <ele>1532</ele>
        <time>2011-06-11T14:59:26Z</time>
      </trkpt>
      <trkpt lat="45.97153" lon="6.9062">
        <ele>1535</ele>
        <time>2011-06-11T14:59:35Z</time>
      </trkpt>
      <trkpt lat="45.97146" lon="6.90612">
        <ele>1538</ele>
        <time>2011-06-11T14:59:44Z</time>
      </trkpt>
      <trkpt lat="45.97138" lon="6.90596">
        <ele>1540</ele>
        <time>2011-06-11T14:59:54Z</time>
      </trkpt>
      <trkpt lat="45.97129" lon="6.90588">
        <ele>1541</ele>
        <time>2011-06-11T15:00:01Z</time>
      </trkpt>
      <trkpt lat="45.97126" lon="6.90569">
        <ele>1543</ele>
        <time>2011-06-11T15:00:10Z</time>
      </trkpt>
      <trkpt lat="45.97121" lon="6.90553">
        <ele>1543</ele>
        <time>2011-06-11T15:00:17Z</time>
      </trkpt>
      <trkpt lat="45.97109" lon="6.90546">
        <ele>1545</ele>
        <time>2011-06-11T15:00:27Z</time>
      </trkpt>
      <trkpt lat="45.97106" lon="6.90537">
        <ele>1548</ele>
        <time>2011-06-11T15:00:50Z</time>
      </trkpt>
      <trkpt lat="45.97055" lon="6.90474">
        <ele>1558</ele>
        <time>2011-06-11T15:05:59Z</time>
      </trkpt>
      <trkpt lat="45.97046" lon="6.90457">
        <ele>1560</ele>
        <time>2011-06-11T15:06:11Z</time>
      </trkpt>
      <trkpt lat="45.97034" lon="6.90445">
        <ele>1560</ele>
        <time>2011-06-11T15:06:21Z</time>
      </trkpt>
      <trkpt lat="45.97025" lon="6.90431">
        <ele>1561</ele>
        <time>2011-06-11T15:06:28Z</time>
      </trkpt>
      <trkpt lat="45.97018" lon="6.9042">
        <ele>1562</ele>
        <time>2011-06-11T15:06:34Z</time>
      </trkpt>
      <trkpt lat="45.97003" lon="6.9041">
        <ele>1564</ele>
        <time>2011-06-11T15:06:42Z</time>
      </trkpt>
      <trkpt lat="45.96998" lon="6.90391">
        <ele>1564</ele>
        <time>2011-06-11T15:06:49Z</time>
      </trkpt>
      <trkpt lat="45.96995" lon="6.90378">
        <ele>1566</ele>
        <time>2011-06-11T15:06:56Z</time>
      </trkpt>
      <trkpt lat="45.96984" lon="6.90372">
        <ele>1567</ele>
        <time>2011-06-11T15:07:06Z</time>
      </trkpt>
      <trkpt lat="45.9697" lon="6.90355">
        <ele>1571</ele>
        <time>2011-06-11T15:07:17Z</time>
      </trkpt>
      <trkpt lat="45.96962" lon="6.90343">
        <ele>1574</ele>
        <time>2011-06-11T15:07:25Z</time>
      </trkpt>
      <trkpt lat="45.9695" lon="6.90331">
        <ele>1577</ele>
        <time>2011-06-11T15:07:34Z</time>
      </trkpt>
      <trkpt lat="45.96942" lon="6.90323">
        <ele>1578</ele>
        <time>2011-06-11T15:07:41Z</time>
      </trkpt>
      <trkpt lat="45.96934" lon="6.90313">
        <ele>1579</ele>
        <time>2011-06-11T15:07:48Z</time>
      </trkpt>
      <trkpt lat="45.96925" lon="6.90304">
        <ele>1580</ele>
        <time>2011-06-11T15:07:55Z</time>
      </trkpt>
      <trkpt lat="45.96918" lon="6.90293">
        <ele>1582</ele>
        <time>2011-06-11T15:08:03Z</time>
      </trkpt>
      <trkpt lat="45.96908" lon="6.90288">
        <ele>1583</ele>
        <time>2011-06-11T15:08:11Z</time>
      </trkpt>
      <trkpt lat="45.96898" lon="6.90281">
        <ele>1584</ele>
        <time>2011-06-11T15:08:21Z</time>
      </trkpt>
      <trkpt lat="45.96889" lon="6.90269">
        <ele>1586</ele>
        <time>2011-06-11T15:08:29Z</time>
      </trkpt>
      <trkpt lat="45.96881" lon="6.90263">
        <ele>1587</ele>
        <time>2011-06-11T15:08:36Z</time>
      </trkpt>
      <trkpt lat="45.96873" lon="6.90251">
        <ele>1587</ele>
        <time>2011-06-11T15:08:43Z</time>
      </trkpt>
      <trkpt lat="45.96865" lon="6.90238">
        <ele>1587</ele>
        <time>2011-06-11T15:08:49Z</time>
      </trkpt>
      <trkpt lat="45.96857" lon="6.90232">
        <ele>1588</ele>
        <time>2011-06-11T15:08:55Z</time>
      </trkpt>
      <trkpt lat="45.96846" lon="6.90223">
        <ele>1588</ele>
        <time>2011-06-11T15:09:05Z</time>
      </trkpt>
      <trkpt lat="45.96836" lon="6.9021">
        <ele>1591</ele>
        <time>2011-06-11T15:09:14Z</time>
      </trkpt>
      <trkpt lat="45.96827" lon="6.90197">
        <ele>1591</ele>
        <time>2011-06-11T15:09:22Z</time>
      </trkpt>
      <trkpt lat="45.96811" lon="6.90189">
        <ele>1591</ele>
        <time>2011-06-11T15:09:30Z</time>
      </trkpt>
      <trkpt lat="45.968" lon="6.90177">
        <ele>1589</ele>
        <time>2011-06-11T15:09:38Z</time>
      </trkpt>
      <trkpt lat="45.96786" lon="6.90167">
        <ele>1589</ele>
        <time>2011-06-11T15:09:45Z</time>
      </trkpt>
      <trkpt lat="45.9677" lon="6.90155">
        <ele>1588</ele>
        <time>2011-06-11T15:09:53Z</time>
      </trkpt>
      <trkpt lat="45.96757" lon="6.90151">
        <ele>1585</ele>
        <time>2011-06-11T15:10:01Z</time>
      </trkpt>
      <trkpt lat="45.96742" lon="6.90137">
        <ele>1585</ele>
        <time>2011-06-11T15:10:10Z</time>
      </trkpt>
      <trkpt lat="45.96717" lon="6.90117">
        <ele>1589</ele>
        <time>2011-06-11T15:10:33Z</time>
      </trkpt>
      <trkpt lat="45.96707" lon="6.90111">
        <ele>1590</ele>
        <time>2011-06-11T15:10:43Z</time>
      </trkpt>
      <trkpt lat="45.96696" lon="6.90106">
        <ele>1590</ele>
        <time>2011-06-11T15:10:51Z</time>
      </trkpt>
      <trkpt lat="45.96684" lon="6.90095">
        <ele>1589</ele>
        <time>2011-06-11T15:11:02Z</time>
      </trkpt>
      <trkpt lat="45.9667" lon="6.90082">
        <ele>1590</ele>
        <time>2011-06-11T15:11:11Z</time>
      </trkpt>
      <trkpt lat="45.9665" lon="6.90062">
        <ele>1594</ele>
        <time>2011-06-11T15:11:23Z</time>
      </trkpt>
      <trkpt lat="45.96638" lon="6.90052">
        <ele>1597</ele>
        <time>2011-06-11T15:11:36Z</time>
      </trkpt>
      <trkpt lat="45.96633" lon="6.90038">
        <ele>1600</ele>
        <time>2011-06-11T15:11:47Z</time>
      </trkpt>
      <trkpt lat="45.96639" lon="6.90036">
        <ele>1604</ele>
        <time>2011-06-11T15:12:02Z</time>
      </trkpt>
      <trkpt lat="45.96638" lon="6.90021">
        <ele>1607</ele>
        <time>2011-06-11T15:12:18Z</time>
      </trkpt>
      <trkpt lat="45.96638" lon="6.89998">
        <ele>1613</ele>
        <time>2011-06-11T15:12:40Z</time>
      </trkpt>
      <trkpt lat="45.96633" lon="6.89983">
        <ele>1617</ele>
        <time>2011-06-11T15:12:52Z</time>
      </trkpt>
      <trkpt lat="45.96629" lon="6.89962">
        <ele>1619</ele>
        <time>2011-06-11T15:13:05Z</time>
      </trkpt>
      <trkpt lat="45.96623" lon="6.8995">
        <ele>1622</ele>
        <time>2011-06-11T15:13:15Z</time>
      </trkpt>
      <trkpt lat="45.96613" lon="6.8993">
        <ele>1625</ele>
        <time>2011-06-11T15:13:30Z</time>
      </trkpt>
      <trkpt lat="45.96607" lon="6.89914">
        <ele>1627</ele>
        <time>2011-06-11T15:13:39Z</time>
      </trkpt>
      <trkpt lat="45.96601" lon="6.899">
        <ele>1630</ele>
        <time>2011-06-11T15:13:51Z</time>
      </trkpt>
      <trkpt lat="45.96592" lon="6.89885">
        <ele>1632</ele>
        <time>2011-06-11T15:14:01Z</time>
      </trkpt>
      <trkpt lat="45.96587" lon="6.89872">
        <ele>1636</ele>
        <time>2011-06-11T15:14:12Z</time>
      </trkpt>
      <trkpt lat="45.96581" lon="6.89853">
        <ele>1640</ele>
        <time>2011-06-11T15:14:31Z</time>
      </trkpt>
      <trkpt lat="45.96576" lon="6.8984">
        <ele>1644</ele>
        <time>2011-06-11T15:14:51Z</time>
      </trkpt>
      <trkpt lat="45.96579" lon="6.89826">
        <ele>1646</ele>
        <time>2011-06-11T15:15:01Z</time>
      </trkpt>
      <trkpt lat="45.96585" lon="6.89832">
        <ele>1651</ele>
        <time>2011-06-11T15:15:16Z</time>
      </trkpt>
      <trkpt lat="45.96587" lon="6.89816">
        <ele>1655</ele>
        <time>2011-06-11T15:15:29Z</time>
      </trkpt>
      <trkpt lat="45.96587" lon="6.89804">
        <ele>1656</ele>
        <time>2011-06-11T15:15:40Z</time>
      </trkpt>
      <trkpt lat="45.96573" lon="6.89788">
        <ele>1660</ele>
        <time>2011-06-11T15:15:57Z</time>
      </trkpt>
      <trkpt lat="45.9656" lon="6.89778">
        <ele>1663</ele>
        <time>2011-06-11T15:16:08Z</time>
      </trkpt>
      <trkpt lat="45.96552" lon="6.89765">
        <ele>1666</ele>
        <time>2011-06-11T15:16:19Z</time>
      </trkpt>
      <trkpt lat="45.96558" lon="6.8976">
        <ele>1669</ele>
        <time>2011-06-11T15:16:28Z</time>
      </trkpt>
      <trkpt lat="45.96557" lon="6.89751">
        <ele>1671</ele>
        <time>2011-06-11T15:16:41Z</time>
      </trkpt>
      <trkpt lat="45.96556" lon="6.89736">
        <ele>1674</ele>
        <time>2011-06-11T15:16:52Z</time>
      </trkpt>
      <trkpt lat="45.96564" lon="6.89736">
        <ele>1678</ele>
        <time>2011-06-11T15:17:06Z</time>
      </trkpt>
      <trkpt lat="45.96573" lon="6.89736">
        <ele>1679</ele>
        <time>2011-06-11T15:17:15Z</time>
      </trkpt>
      <trkpt lat="45.96583" lon="6.8973">
        <ele>1683</ele>
        <time>2011-06-11T15:17:28Z</time>
      </trkpt>
      <trkpt lat="45.96593" lon="6.89731">
        <ele>1686</ele>
        <time>2011-06-11T15:17:39Z</time>
      </trkpt>
      <trkpt lat="45.96602" lon="6.89729">
        <ele>1691</ele>
        <time>2011-06-11T15:17:52Z</time>
      </trkpt>
      <trkpt lat="45.96608" lon="6.89721">
        <ele>1695</ele>
        <time>2011-06-11T15:18:12Z</time>
      </trkpt>
      <trkpt lat="45.96616" lon="6.89729">
        <ele>1699</ele>
        <time>2011-06-11T15:18:28Z</time>
      </trkpt>
      <trkpt lat="45.96618" lon="6.89723">
        <ele>1702</ele>
        <time>2011-06-11T15:18:40Z</time>
      </trkpt>
      <trkpt lat="45.96618" lon="6.89706">
        <ele>1706</ele>
        <time>2011-06-11T15:18:57Z</time>
      </trkpt>
      <trkpt lat="45.96621" lon="6.8968">
        <ele>1716</ele>
        <time>2011-06-11T15:19:39Z</time>
      </trkpt>
      <trkpt lat="45.96607" lon="6.8966">
        <ele>1716</ele>
        <time>2011-06-11T15:19:49Z</time>
      </trkpt>
      <trkpt lat="45.96597" lon="6.89642">
        <ele>1717</ele>
        <time>2011-06-11T15:19:56Z</time>
      </trkpt>
      <trkpt lat="45.96592" lon="6.89627">
        <ele>1717</ele>
        <time>2011-06-11T15:20:06Z</time>
      </trkpt>
      <trkpt lat="45.96586" lon="6.89611">
        <ele>1717</ele>
        <time>2011-06-11T15:20:14Z</time>
      </trkpt>
      <trkpt lat="45.96575" lon="6.89595">
        <ele>1718</ele>
        <time>2011-06-11T15:20:23Z</time>
      </trkpt>
      <trkpt lat="45.9657" lon="6.8958">
        <ele>1720</ele>
        <time>2011-06-11T15:20:30Z</time>
      </trkpt>
      <trkpt lat="45.96559" lon="6.89574">
        <ele>1722</ele>
        <time>2011-06-11T15:20:40Z</time>
      </trkpt>
      <trkpt lat="45.9655" lon="6.89569">
        <ele>1724</ele>
        <time>2011-06-11T15:20:48Z</time>
      </trkpt>
      <trkpt lat="45.96554" lon="6.89569">
        <ele>1725</ele>
        <time>2011-06-11T15:20:55Z</time>
      </trkpt>
      <trkpt lat="45.96549" lon="6.89561">
        <ele>1727</ele>
        <time>2011-06-11T15:21:04Z</time>
      </trkpt>
      <trkpt lat="45.96544" lon="6.89548">
        <ele>1730</ele>
        <time>2011-06-11T15:21:12Z</time>
      </trkpt>
      <trkpt lat="45.96542" lon="6.89536">
        <ele>1731</ele>
        <time>2011-06-11T15:21:21Z</time>
      </trkpt>
      <trkpt lat="45.96542" lon="6.89522">
        <ele>1734</ele>
        <time>2011-06-11T15:21:31Z</time>
      </trkpt>
      <trkpt lat="45.96538" lon="6.8951">
        <ele>1735</ele>
        <time>2011-06-11T15:21:40Z</time>
      </trkpt>
      <trkpt lat="45.96535" lon="6.89496">
        <ele>1739</ele>
        <time>2011-06-11T15:21:51Z</time>
      </trkpt>
      <trkpt lat="45.96522" lon="6.89489">
        <ele>1742</ele>
        <time>2011-06-11T15:22:04Z</time>
      </trkpt>
      <trkpt lat="45.96514" lon="6.89478">
        <ele>1745</ele>
        <time>2011-06-11T15:22:16Z</time>
      </trkpt>
      <trkpt lat="45.96509" lon="6.89465">
        <ele>1748</ele>
        <time>2011-06-11T15:22:26Z</time>
      </trkpt>
      <trkpt lat="45.96506" lon="6.89457">
        <ele>1751</ele>
        <time>2011-06-11T15:22:37Z</time>
      </trkpt>
      <trkpt lat="45.965" lon="6.89448">
        <ele>1753</ele>
        <time>2011-06-11T15:22:47Z</time>
      </trkpt>
      <trkpt lat="45.96496" lon="6.89436">
        <ele>1756</ele>
        <time>2011-06-11T15:22:59Z</time>
      </trkpt>
      <trkpt lat="45.96489" lon="6.89423">
        <ele>1758</ele>
        <time>2011-06-11T15:23:10Z</time>
      </trkpt>
      <trkpt lat="45.96484" lon="6.89407">
        <ele>1761</ele>
        <time>2011-06-11T15:23:20Z</time>
      </trkpt>
      <trkpt lat="45.96477" lon="6.89391">
        <ele>1762</ele>
        <time>2011-06-11T15:23:29Z</time>
      </trkpt>
      <trkpt lat="45.96471" lon="6.89381">
        <ele>1763</ele>
        <time>2011-06-11T15:23:36Z</time>
      </trkpt>
      <trkpt lat="45.96462" lon="6.89368">
        <ele>1764</ele>
        <time>2011-06-11T15:23:44Z</time>
      </trkpt>
      <trkpt lat="45.96458" lon="6.89355">
        <ele>1765</ele>
        <time>2011-06-11T15:23:52Z</time>
      </trkpt>
      <trkpt lat="45.96453" lon="6.89342">
        <ele>1767</ele>
        <time>2011-06-11T15:23:59Z</time>
      </trkpt>
      <trkpt lat="45.96449" lon="6.89329">
        <ele>1768</ele>
        <time>2011-06-11T15:24:06Z</time>
      </trkpt>
      <trkpt lat="45.96448" lon="6.89315">
        <ele>1769</ele>
        <time>2011-06-11T15:24:14Z</time>
      </trkpt>
      <trkpt lat="45.96449" lon="6.89302">
        <ele>1772</ele>
        <time>2011-06-11T15:24:21Z</time>
      </trkpt>
      <trkpt lat="45.96449" lon="6.89287">
        <ele>1774</ele>
        <time>2011-06-11T15:24:30Z</time>
      </trkpt>
      <trkpt lat="45.96447" lon="6.89274">
        <ele>1776</ele>
        <time>2011-06-11T15:24:38Z</time>
      </trkpt>
      <trkpt lat="45.96444" lon="6.89258">
        <ele>1778</ele>
        <time>2011-06-11T15:24:46Z</time>
      </trkpt>
      <trkpt lat="45.96443" lon="6.89245">
        <ele>1780</ele>
        <time>2011-06-11T15:24:54Z</time>
      </trkpt>
      <trkpt lat="45.96441" lon="6.89231">
        <ele>1782</ele>
        <time>2011-06-11T15:25:02Z</time>
      </trkpt>
      <trkpt lat="45.96439" lon="6.89217">
        <ele>1784</ele>
        <time>2011-06-11T15:25:10Z</time>
      </trkpt>
      <trkpt lat="45.96435" lon="6.89208">
        <ele>1785</ele>
        <time>2011-06-11T15:25:18Z</time>
      </trkpt>
      <trkpt lat="45.9643" lon="6.89195">
        <ele>1788</ele>
        <time>2011-06-11T15:25:26Z</time>
      </trkpt>
      <trkpt lat="45.96428" lon="6.89182">
        <ele>1789</ele>
        <time>2011-06-11T15:25:33Z</time>
      </trkpt>
      <trkpt lat="45.96425" lon="6.8917">
        <ele>1790</ele>
        <time>2011-06-11T15:25:40Z</time>
      </trkpt>
      <trkpt lat="45.96421" lon="6.89158">
        <ele>1793</ele>
        <time>2011-06-11T15:25:48Z</time>
      </trkpt>
      <trkpt lat="45.9642" lon="6.89145">
        <ele>1794</ele>
        <time>2011-06-11T15:25:57Z</time>
      </trkpt>
      <trkpt lat="45.96418" lon="6.8913">
        <ele>1796</ele>
        <time>2011-06-11T15:26:05Z</time>
      </trkpt>
      <trkpt lat="45.96414" lon="6.89118">
        <ele>1798</ele>
        <time>2011-06-11T15:26:13Z</time>
      </trkpt>
      <trkpt lat="45.96411" lon="6.89106">
        <ele>1800</ele>
        <time>2011-06-11T15:26:20Z</time>
      </trkpt>
      <trkpt lat="45.96408" lon="6.89092">
        <ele>1802</ele>
        <time>2011-06-11T15:26:28Z</time>
      </trkpt>
      <trkpt lat="45.96408" lon="6.89077">
        <ele>1804</ele>
        <time>2011-06-11T15:26:37Z</time>
      </trkpt>
      <trkpt lat="45.96412" lon="6.89065">
        <ele>1806</ele>
        <time>2011-06-11T15:26:46Z</time>
      </trkpt>
      <trkpt lat="45.96408" lon="6.89053">
        <ele>1807</ele>
        <time>2011-06-11T15:26:54Z</time>
      </trkpt>
      <trkpt lat="45.96402" lon="6.89042">
        <ele>1808</ele>
        <time>2011-06-11T15:27:01Z</time>
      </trkpt>
      <trkpt lat="45.96396" lon="6.89031">
        <ele>1810</ele>
        <time>2011-06-11T15:27:08Z</time>
      </trkpt>
      <trkpt lat="45.96388" lon="6.8902">
        <ele>1813</ele>
        <time>2011-06-11T15:27:17Z</time>
      </trkpt>
      <trkpt lat="45.96383" lon="6.89009">
        <ele>1815</ele>
        <time>2011-06-11T15:27:28Z</time>
      </trkpt>
      <trkpt lat="45.96384" lon="6.88942">
        <ele>1816</ele>
        <time>2011-06-11T15:28:14Z</time>
      </trkpt>
      <trkpt lat="45.96386" lon="6.88926">
        <ele>1819</ele>
        <time>2011-06-11T15:28:25Z</time>
      </trkpt>
      <trkpt lat="45.96394" lon="6.88907">
        <ele>1825</ele>
        <time>2011-06-11T15:28:34Z</time>
      </trkpt>
      <trkpt lat="45.96398" lon="6.88888">
        <ele>1832</ele>
        <time>2011-06-11T15:28:46Z</time>
      </trkpt>
      <trkpt lat="45.96402" lon="6.88854">
        <ele>1842</ele>
        <time>2011-06-11T15:28:56Z</time>
      </trkpt>
      <trkpt lat="45.96408" lon="6.88826">
        <ele>1850</ele>
        <time>2011-06-11T15:29:05Z</time>
      </trkpt>
      <trkpt lat="45.96415" lon="6.88804">
        <ele>1858</ele>
        <time>2011-06-11T15:29:16Z</time>
      </trkpt>
      <trkpt lat="45.96416" lon="6.88807">
        <ele>1860</ele>
      </trkpt>
      <trkpt lat="45.96407" lon="6.88791">
        <ele>1862</ele>
      </trkpt>
      <trkpt lat="45.96398" lon="6.8878">
        <ele>1862</ele>
      </trkpt>
      <trkpt lat="45.96396" lon="6.88772">
        <ele>1863</ele>
      </trkpt>
      <trkpt lat="45.96393" lon="6.88763">
        <ele>1864</ele>
      </trkpt>
      <trkpt lat="45.96387" lon="6.88754">
        <ele>1864</ele>
      </trkpt>
      <trkpt lat="45.96381" lon="6.88749">
        <ele>1863</ele>
      </trkpt>
      <trkpt lat="45.96375" lon="6.88744">
        <ele>1863</ele>
      </trkpt>
      <trkpt lat="45.9637" lon="6.88742">
        <ele>1862</ele>
      </trkpt>
      <trkpt lat="45.96357" lon="6.88734">
        <ele>1860</ele>
      </trkpt>
      <trkpt lat="45.96352" lon="6.88728">
        <ele>1859</ele>
      </trkpt>
      <trkpt lat="45.96344" lon="6.88719">
        <ele>1858</ele>
      </trkpt>
      <trkpt lat="45.96337" lon="6.88713">
        <ele>1857</ele>
      </trkpt>
      <trkpt lat="45.96319" lon="6.88703">
        <ele>1856</ele>
      </trkpt>
      <trkpt lat="45.96313" lon="6.887">
        <ele>1856</ele>
      </trkpt>
      <trkpt lat="45.96303" lon="6.88692">
        <ele>1855</ele>
      </trkpt>
      <trkpt lat="45.96292" lon="6.88689">
        <ele>1854</ele>
      </trkpt>
      <trkpt lat="45.96281" lon="6.88688">
        <ele>1853</ele>
      </trkpt>
      <trkpt lat="45.96265" lon="6.88692">
        <ele>1852</ele>
      </trkpt>
      <trkpt lat="45.96247" lon="6.88698">
        <ele>1851</ele>
      </trkpt>
      <trkpt lat="45.96237" lon="6.88702">
        <ele>1853</ele>
      </trkpt>
      <trkpt lat="45.9623" lon="6.88707">
        <ele>1853</ele>
      </trkpt>
      <trkpt lat="45.96221" lon="6.88712">
        <ele>1855</ele>
      </trkpt>
      <trkpt lat="45.96214" lon="6.88719">
        <ele>1855</ele>
      </trkpt>
      <trkpt lat="45.96209" lon="6.88726">
        <ele>1855</ele>
      </trkpt>
      <trkpt lat="45.96205" lon="6.88734">
        <ele>1854</ele>
      </trkpt>
      <trkpt lat="45.962" lon="6.88737">
        <ele>1854</ele>
      </trkpt>
      <trkpt lat="45.96194" lon="6.88723">
        <ele>1858</ele>
      </trkpt>
      <trkpt lat="45.96193" lon="6.88715">
        <ele>1859</ele>
      </trkpt>
      <trkpt lat="45.96192" lon="6.88704">
        <ele>1861</ele>
      </trkpt>
      <trkpt lat="45.96187" lon="6.88691">
        <ele>1865</ele>
      </trkpt>
      <trkpt lat="45.96184" lon="6.88679">
        <ele>1868</ele>
      </trkpt>
      <trkpt lat="45.96184" lon="6.88666">
        <ele>1871</ele>
      </trkpt>
      <trkpt lat="45.96189" lon="6.8865">
        <ele>1876</ele>
      </trkpt>
      <trkpt lat="45.96192" lon="6.88641">
        <ele>1879</ele>
      </trkpt>
      <trkpt lat="45.96192" lon="6.88631">
        <ele>1882</ele>
      </trkpt>
      <trkpt lat="45.96196" lon="6.88622">
        <ele>1885</ele>
      </trkpt>
      <trkpt lat="45.96193" lon="6.88614">
        <ele>1889</ele>
      </trkpt>
      <trkpt lat="45.96186" lon="6.88624">
        <ele>1888</ele>
      </trkpt>
      <trkpt lat="45.96181" lon="6.88633">
        <ele>1885</ele>
      </trkpt>
      <trkpt lat="45.96165" lon="6.88647">
        <ele>1885</ele>
      </trkpt>
      <trkpt lat="45.9616" lon="6.88653">
        <ele>1883</ele>
      </trkpt>
      <trkpt lat="45.96157" lon="6.88659">
        <ele>1881</ele>
      </trkpt>
      <trkpt lat="45.96151" lon="6.88665">
        <ele>1880</ele>
      </trkpt>
      <trkpt lat="45.96142" lon="6.88677">
        <ele>1878</ele>
      </trkpt>
      <trkpt lat="45.96136" lon="6.88679">
        <ele>1879</ele>
      </trkpt>
      <trkpt lat="45.96125" lon="6.88682">
        <ele>1881</ele>
      </trkpt>
      <trkpt lat="45.96117" lon="6.88686">
        <ele>1881</ele>
      </trkpt>
      <trkpt lat="45.96105" lon="6.88689">
        <ele>1883</ele>
      </trkpt>
      <trkpt lat="45.961" lon="6.88687">
        <ele>1884</ele>
      </trkpt>
      <trkpt lat="45.96081" lon="6.88689">
        <ele>1887</ele>
      </trkpt>
      <trkpt lat="45.96069" lon="6.88689">
        <ele>1885</ele>
      </trkpt>
      <trkpt lat="45.96063" lon="6.88691">
        <ele>1883</ele>
      </trkpt>
      <trkpt lat="45.96057" lon="6.88696">
        <ele>1881</ele>
      </trkpt>
      <trkpt lat="45.9604" lon="6.88708">
        <ele>1876</ele>
      </trkpt>
      <trkpt lat="45.9602" lon="6.88708">
        <ele>1873</ele>
      </trkpt>
      <trkpt lat="45.96014" lon="6.88709">
        <ele>1872</ele>
      </trkpt>
      <trkpt lat="45.96009" lon="6.88715">
        <ele>1870</ele>
      </trkpt>
      <trkpt lat="45.96003" lon="6.88712">
        <ele>1870</ele>
      </trkpt>
      <trkpt lat="45.95997" lon="6.88715">
        <ele>1868</ele>
      </trkpt>
      <trkpt lat="45.95988" lon="6.88722">
        <ele>1863</ele>
      </trkpt>
      <trkpt lat="45.95984" lon="6.8873">
        <ele>1860</ele>
      </trkpt>
      <trkpt lat="45.95975" lon="6.88725">
        <ele>1856</ele>
      </trkpt>
      <trkpt lat="45.95972" lon="6.88715">
        <ele>1856</ele>
      </trkpt>
      <trkpt lat="45.95975" lon="6.88708">
        <ele>1859</ele>
      </trkpt>
      <trkpt lat="45.95973" lon="6.88699">
        <ele>1859</ele>
      </trkpt>
      <trkpt lat="45.95972" lon="6.88678">
        <ele>1862</ele>
      </trkpt>
      <trkpt lat="45.95971" lon="6.88668">
        <ele>1863</ele>
      </trkpt>
      <trkpt lat="45.95963" lon="6.88651">
        <ele>1861</ele>
      </trkpt>
      <trkpt lat="45.95957" lon="6.88635">
        <ele>1860</ele>
      </trkpt>
      <trkpt lat="45.95949" lon="6.88631">
        <ele>1856</ele>
      </trkpt>
      <trkpt lat="45.9594" lon="6.88628">
        <ele>1852</ele>
      </trkpt>
      <trkpt lat="45.95934" lon="6.88625">
        <ele>1850</ele>
      </trkpt>
      <trkpt lat="45.9593" lon="6.88617">
        <ele>1849</ele>
      </trkpt>
      <trkpt lat="45.95926" lon="6.88611">
        <ele>1848</ele>
      </trkpt>
      <trkpt lat="45.95913" lon="6.88592">
        <ele>1844</ele>
      </trkpt>
      <trkpt lat="45.95908" lon="6.88586">
        <ele>1843</ele>
      </trkpt>
      <trkpt lat="45.95901" lon="6.88578">
        <ele>1842</ele>
      </trkpt>
      <trkpt lat="45.959" lon="6.88571">
        <ele>1842</ele>
      </trkpt>
      <trkpt lat="45.95892" lon="6.88563">
        <ele>1841</ele>
      </trkpt>
      <trkpt lat="45.95887" lon="6.88561">
        <ele>1839</ele>
      </trkpt>
      <trkpt lat="45.95883" lon="6.88551">
        <ele>1839</ele>
      </trkpt>
      <trkpt lat="45.95873" lon="6.88546">
        <ele>1836</ele>
      </trkpt>
      <trkpt lat="45.95855" lon="6.88539">
        <ele>1829</ele>
      </trkpt>
      <trkpt lat="45.95848" lon="6.88538">
        <ele>1827</ele>
      </trkpt>
      <trkpt lat="45.95837" lon="6.88532">
        <ele>1823</ele>
      </trkpt>
      <trkpt lat="45.95828" lon="6.88525">
        <ele>1820</ele>
      </trkpt>
      <trkpt lat="45.95822" lon="6.88515">
        <ele>1819</ele>
      </trkpt>
      <trkpt lat="45.95816" lon="6.88511">
        <ele>1818</ele>
      </trkpt>
      <trkpt lat="45.95808" lon="6.88499">
        <ele>1816</ele>
      </trkpt>
      <trkpt lat="45.95799" lon="6.88488">
        <ele>1814</ele>
      </trkpt>
      <trkpt lat="45.95794" lon="6.88484">
        <ele>1813</ele>
      </trkpt>
      <trkpt lat="45.95788" lon="6.88481">
        <ele>1811</ele>
      </trkpt>
      <trkpt lat="45.95781" lon="6.88469">
        <ele>1810</ele>
      </trkpt>
      <trkpt lat="45.95772" lon="6.88453">
        <ele>1808</ele>
      </trkpt>
      <trkpt lat="45.95767" lon="6.88437">
        <ele>1808</ele>
      </trkpt>
      <trkpt lat="45.95761" lon="6.88421">
        <ele>1807</ele>
      </trkpt>
      <trkpt lat="45.95757" lon="6.88414">
        <ele>1806</ele>
      </trkpt>
      <trkpt lat="45.95754" lon="6.88404">
        <ele>1805</ele>
      </trkpt>
      <trkpt lat="45.95749" lon="6.88388">
        <ele>1804</ele>
      </trkpt>
      <trkpt lat="45.9574" lon="6.88365">
        <ele>1800</ele>
      </trkpt>
      <trkpt lat="45.95733" lon="6.88357">
        <ele>1797</ele>
      </trkpt>
      <trkpt lat="45.95728" lon="6.88344">
        <ele>1796</ele>
      </trkpt>
      <trkpt lat="45.95721" lon="6.88331">
        <ele>1793</ele>
      </trkpt>
      <trkpt lat="45.95717" lon="6.8832">
        <ele>1791</ele>
      </trkpt>
      <trkpt lat="45.95713" lon="6.88311">
        <ele>1789</ele>
      </trkpt>
      <trkpt lat="45.95689" lon="6.88279">
        <ele>1778</ele>
      </trkpt>
      <trkpt lat="45.95684" lon="6.88276">
        <ele>1775</ele>
      </trkpt>
      <trkpt lat="45.95665" lon="6.88249">
        <ele>1765</ele>
      </trkpt>
      <trkpt lat="45.95656" lon="6.88235">
        <ele>1759</ele>
      </trkpt>
      <trkpt lat="45.95656" lon="6.88221">
        <ele>1759</ele>
      </trkpt>
      <trkpt lat="45.95661" lon="6.8821">
        <ele>1760</ele>
      </trkpt>
      <trkpt lat="45.95663" lon="6.88204">
        <ele>1761</ele>
      </trkpt>
      <trkpt lat="45.9567" lon="6.88194">
        <ele>1764</ele>
      </trkpt>
      <trkpt lat="45.95677" lon="6.88169">
        <ele>1767</ele>
      </trkpt>
      <trkpt lat="45.9568" lon="6.88149">
        <ele>1766</ele>
      </trkpt>
      <trkpt lat="45.9568" lon="6.88141">
        <ele>1764</ele>
      </trkpt>
      <trkpt lat="45.95686" lon="6.88133">
        <ele>1766</ele>
      </trkpt>
      <trkpt lat="45.95687" lon="6.88126">
        <ele>1765</ele>
      </trkpt>
      <trkpt lat="45.9569" lon="6.88096">
        <ele>1761</ele>
      </trkpt>
      <trkpt lat="45.95688" lon="6.88086">
        <ele>1758</ele>
      </trkpt>
      <trkpt lat="45.95681" lon="6.88091">
        <ele>1755</ele>
      </trkpt>
      <trkpt lat="45.95679" lon="6.88094">
        <ele>1755</ele>
      </trkpt>
      <trkpt lat="45.95678" lon="6.88103">
        <ele>1755</ele>
      </trkpt>
      <trkpt lat="45.95677" lon="6.8811">
        <ele>1757</ele>
      </trkpt>
      <trkpt lat="45.95675" lon="6.8812">
        <ele>1757</ele>
      </trkpt>
      <trkpt lat="45.95671" lon="6.88132">
        <ele>1757</ele>
      </trkpt>
      <trkpt lat="45.95667" lon="6.88138">
        <ele>1755</ele>
      </trkpt>
      <trkpt lat="45.95664" lon="6.88146">
        <ele>1756</ele>
      </trkpt>
      <trkpt lat="45.95662" lon="6.88152">
        <ele>1756</ele>
      </trkpt>
      <trkpt lat="45.95653" lon="6.8817">
        <ele>1754</ele>
      </trkpt>
      <trkpt lat="45.9565" lon="6.8818">
        <ele>1754</ele>
      </trkpt>
      <trkpt lat="45.95642" lon="6.88185">
        <ele>1750</ele>
      </trkpt>
      <trkpt lat="45.95637" lon="6.88196">
        <ele>1749</ele>
      </trkpt>
      <trkpt lat="45.95628" lon="6.88202">
        <ele>1745</ele>
      </trkpt>
      <trkpt lat="45.95624" lon="6.88208">
        <ele>1743</ele>
      </trkpt>
      <trkpt lat="45.95621" lon="6.88217">
        <ele>1742</ele>
      </trkpt>
      <trkpt lat="45.95619" lon="6.88228">
        <ele>1742</ele>
      </trkpt>
      <trkpt lat="45.95613" lon="6.88241">
        <ele>1740</ele>
      </trkpt>
      <trkpt lat="45.95609" lon="6.88251">
        <ele>1738</ele>
      </trkpt>
      <trkpt lat="45.95598" lon="6.8826">
        <ele>1733</ele>
      </trkpt>
      <trkpt lat="45.95593" lon="6.88261">
        <ele>1730</ele>
      </trkpt>
      <trkpt lat="45.95589" lon="6.88267">
        <ele>1728</ele>
      </trkpt>
      <trkpt lat="45.95594" lon="6.88282">
        <ele>1730</ele>
      </trkpt>
      <trkpt lat="45.95596" lon="6.88294">
        <ele>1730</ele>
      </trkpt>
      <trkpt lat="45.956" lon="6.88313">
        <ele>1731</ele>
      </trkpt>
      <trkpt lat="45.956" lon="6.88321">
        <ele>1731</ele>
      </trkpt>
      <trkpt lat="45.95598" lon="6.88332">
        <ele>1729</ele>
      </trkpt>
      <trkpt lat="45.95597" lon="6.88345">
        <ele>1727</ele>
      </trkpt>
      <trkpt lat="45.95601" lon="6.88354">
        <ele>1727</ele>
      </trkpt>
      <trkpt lat="45.95601" lon="6.88363">
        <ele>1725</ele>
      </trkpt>
      <trkpt lat="45.95604" lon="6.88373">
        <ele>1725</ele>
      </trkpt>
      <trkpt lat="45.95606" lon="6.8839">
        <ele>1724</ele>
      </trkpt>
      <trkpt lat="45.95606" lon="6.884">
        <ele>1722</ele>
      </trkpt>
      <trkpt lat="45.95609" lon="6.88417">
        <ele>1721</ele>
      </trkpt>
      <trkpt lat="45.9561" lon="6.88427">
        <ele>1719</ele>
      </trkpt>
      <trkpt lat="45.95613" lon="6.88436">
        <ele>1719</ele>
      </trkpt>
      <trkpt lat="45.95616" lon="6.88445">
        <ele>1718</ele>
      </trkpt>
      <trkpt lat="45.95617" lon="6.88452">
        <ele>1717</ele>
      </trkpt>
      <trkpt lat="45.9562" lon="6.88459">
        <ele>1718</ele>
      </trkpt>
      <trkpt lat="45.95625" lon="6.88469">
        <ele>1719</ele>
      </trkpt>
      <trkpt lat="45.95631" lon="6.88476">
        <ele>1721</ele>
      </trkpt>
      <trkpt lat="45.95635" lon="6.88486">
        <ele>1721</ele>
      </trkpt>
      <trkpt lat="45.95638" lon="6.88498">
        <ele>1720</ele>
      </trkpt>
      <trkpt lat="45.95638" lon="6.88507">
        <ele>1718</ele>
      </trkpt>
      <trkpt lat="45.95634" lon="6.88519">
        <ele>1712</ele>
      </trkpt>
      <trkpt lat="45.95633" lon="6.88526">
        <ele>1709</ele>
      </trkpt>
      <trkpt lat="45.95636" lon="6.88532">
        <ele>1710</ele>
      </trkpt>
      <trkpt lat="45.95637" lon="6.88545">
        <ele>1707</ele>
      </trkpt>
      <trkpt lat="45.95642" lon="6.88562">
        <ele>1706</ele>
      </trkpt>
      <trkpt lat="45.95646" lon="6.88572">
        <ele>1707</ele>
      </trkpt>
      <trkpt lat="45.95643" lon="6.88599">
        <ele>1697</ele>
      </trkpt>
      <trkpt lat="45.95638" lon="6.886">
        <ele>1694</ele>
      </trkpt>
      <trkpt lat="45.95632" lon="6.8858">
        <ele>1695</ele>
      </trkpt>
      <trkpt lat="45.95628" lon="6.88575">
        <ele>1694</ele>
      </trkpt>
      <trkpt lat="45.95624" lon="6.8857">
        <ele>1691</ele>
      </trkpt>
      <trkpt lat="45.95618" lon="6.88564">
        <ele>1689</ele>
      </trkpt>
      <trkpt lat="45.95614" lon="6.88556">
        <ele>1688</ele>
      </trkpt>
      <trkpt lat="45.95609" lon="6.88549">
        <ele>1686</ele>
      </trkpt>
      <trkpt lat="45.95605" lon="6.88544">
        <ele>1685</ele>
      </trkpt>
      <trkpt lat="45.956" lon="6.88539">
        <ele>1683</ele>
      </trkpt>
      <trkpt lat="45.95593" lon="6.88525">
        <ele>1682</ele>
      </trkpt>
      <trkpt lat="45.95593" lon="6.88517">
        <ele>1683</ele>
      </trkpt>
      <trkpt lat="45.95585" lon="6.88507">
        <ele>1681</ele>
      </trkpt>
      <trkpt lat="45.95577" lon="6.885">
        <ele>1677</ele>
      </trkpt>
      <trkpt lat="45.95576" lon="6.88498">
        <ele>1677</ele>
      </trkpt>
      <trkpt lat="45.95577" lon="6.8852">
        <ele>1671</ele>
      </trkpt>
      <trkpt lat="45.9558" lon="6.88531">
        <ele>1671</ele>
      </trkpt>
      <trkpt lat="45.95581" lon="6.88539">
        <ele>1669</ele>
      </trkpt>
      <trkpt lat="45.95582" lon="6.88547">
        <ele>1668</ele>
      </trkpt>
      <trkpt lat="45.95585" lon="6.88554">
        <ele>1668</ele>
      </trkpt>
      <trkpt lat="45.95586" lon="6.88562">
        <ele>1667</ele>
      </trkpt>
      <trkpt lat="45.95582" lon="6.88559">
        <ele>1664</ele>
      </trkpt>
      <trkpt lat="45.95575" lon="6.88554">
        <ele>1661</ele>
      </trkpt>
      <trkpt lat="45.95569" lon="6.88555">
        <ele>1656</ele>
      </trkpt>
      <trkpt lat="45.95564" lon="6.88554">
        <ele>1653</ele>
      </trkpt>
      <trkpt lat="45.95559" lon="6.88548">
        <ele>1650</ele>
      </trkpt>
      <trkpt lat="45.95557" lon="6.88536">
        <ele>1652</ele>
      </trkpt>
      <trkpt lat="45.95557" lon="6.88521">
        <ele>1656</ele>
      </trkpt>
      <trkpt lat="45.95555" lon="6.88506">
        <ele>1659</ele>
      </trkpt>
      <trkpt lat="45.95552" lon="6.88495">
        <ele>1658</ele>
      </trkpt>
      <trkpt lat="45.95544" lon="6.88471">
        <ele>1658</ele>
      </trkpt>
      <trkpt lat="45.95538" lon="6.88463">
        <ele>1655</ele>
      </trkpt>
      <trkpt lat="45.95533" lon="6.88468">
        <ele>1650</ele>
      </trkpt>
      <trkpt lat="45.9553" lon="6.88477">
        <ele>1646</ele>
      </trkpt>
      <trkpt lat="45.95531" lon="6.88489">
        <ele>1644</ele>
      </trkpt>
      <trkpt lat="45.9553" lon="6.88503">
        <ele>1640</ele>
      </trkpt>
      <trkpt lat="45.95528" lon="6.88512">
        <ele>1636</ele>
      </trkpt>
      <trkpt lat="45.95521" lon="6.88491">
        <ele>1636</ele>
      </trkpt>
      <trkpt lat="45.95516" lon="6.88488">
        <ele>1632</ele>
      </trkpt>
      <trkpt lat="45.95507" lon="6.8848">
        <ele>1627</ele>
      </trkpt>
      <trkpt lat="45.95503" lon="6.88476">
        <ele>1624</ele>
      </trkpt>
      <trkpt lat="45.95496" lon="6.88463">
        <ele>1622</ele>
      </trkpt>
      <trkpt lat="45.95491" lon="6.8845">
        <ele>1621</ele>
      </trkpt>
      <trkpt lat="45.95489" lon="6.88437">
        <ele>1622</ele>
      </trkpt>
      <trkpt lat="45.95487" lon="6.88419">
        <ele>1623</ele>
      </trkpt>
      <trkpt lat="45.9548" lon="6.8841">
        <ele>1621</ele>
      </trkpt>
      <trkpt lat="45.95478" lon="6.88404">
        <ele>1621</ele>
      </trkpt>
      <trkpt lat="45.95472" lon="6.88405">
        <ele>1617</ele>
      </trkpt>
      <trkpt lat="45.9547" lon="6.88413">
        <ele>1612</ele>
      </trkpt>
      <trkpt lat="45.95471" lon="6.88424">
        <ele>1611</ele>
      </trkpt>
      <trkpt lat="45.9547" lon="6.88432">
        <ele>1609</ele>
      </trkpt>
      <trkpt lat="45.95471" lon="6.88441">
        <ele>1608</ele>
      </trkpt>
      <trkpt lat="45.95477" lon="6.88458">
        <ele>1609</ele>
      </trkpt>
      <trkpt lat="45.95482" lon="6.88463">
        <ele>1612</ele>
      </trkpt>
      <trkpt lat="45.95491" lon="6.88475">
        <ele>1615</ele>
      </trkpt>
      <trkpt lat="45.95496" lon="6.88482">
        <ele>1618</ele>
      </trkpt>
      <trkpt lat="45.95498" lon="6.88491">
        <ele>1618</ele>
      </trkpt>
      <trkpt lat="45.95497" lon="6.88502">
        <ele>1615</ele>
      </trkpt>
      <trkpt lat="45.95492" lon="6.88515">
        <ele>1609</ele>
      </trkpt>
      <trkpt lat="45.95489" lon="6.8853">
        <ele>1603</ele>
      </trkpt>
      <trkpt lat="45.95492" lon="6.88537">
        <ele>1604</ele>
      </trkpt>
      <trkpt lat="45.95493" lon="6.88543">
        <ele>1604</ele>
      </trkpt>
      <trkpt lat="45.95494" lon="6.88552">
        <ele>1603</ele>
      </trkpt>
      <trkpt lat="45.95494" lon="6.88564">
        <ele>1600</ele>
      </trkpt>
      <trkpt lat="45.95495" lon="6.8859">
        <ele>1594</ele>
      </trkpt>
      <trkpt lat="45.95494" lon="6.88605">
        <ele>1590</ele>
      </trkpt>
      <trkpt lat="45.95492" lon="6.88619">
        <ele>1584</ele>
      </trkpt>
      <trkpt lat="45.95488" lon="6.88615">
        <ele>1582</ele>
      </trkpt>
      <trkpt lat="45.95487" lon="6.88603">
        <ele>1585</ele>
      </trkpt>
      <trkpt lat="45.95485" lon="6.88596">
        <ele>1585</ele>
      </trkpt>
      <trkpt lat="45.95479" lon="6.88588">
        <ele>1583</ele>
      </trkpt>
      <trkpt lat="45.95472" lon="6.8858">
        <ele>1579</ele>
      </trkpt>
      <trkpt lat="45.95469" lon="6.88576">
        <ele>1578</ele>
      </trkpt>
      <trkpt lat="45.95467" lon="6.88569">
        <ele>1578</ele>
      </trkpt>
      <trkpt lat="45.95463" lon="6.88559">
        <ele>1577</ele>
      </trkpt>
      <trkpt lat="45.95459" lon="6.88554">
        <ele>1575</ele>
      </trkpt>
      <trkpt lat="45.95451" lon="6.88535">
        <ele>1573</ele>
      </trkpt>
      <trkpt lat="45.95442" lon="6.88526">
        <ele>1568</ele>
      </trkpt>
      <trkpt lat="45.95439" lon="6.88516">
        <ele>1569</ele>
      </trkpt>
      <trkpt lat="45.95435" lon="6.88517">
        <ele>1566</ele>
      </trkpt>
      <trkpt lat="45.95433" lon="6.88511">
        <ele>1565</ele>
      </trkpt>
      <trkpt lat="45.95428" lon="6.88505">
        <ele>1563</ele>
      </trkpt>
      <trkpt lat="45.95426" lon="6.88494">
        <ele>1564</ele>
      </trkpt>
      <trkpt lat="45.95424" lon="6.88484">
        <ele>1564</ele>
      </trkpt>
      <trkpt lat="45.95419" lon="6.88477">
        <ele>1562</ele>
      </trkpt>
      <trkpt lat="45.95412" lon="6.88465">
        <ele>1559</ele>
      </trkpt>
      <trkpt lat="45.95413" lon="6.88454">
        <ele>1563</ele>
      </trkpt>
      <trkpt lat="45.95409" lon="6.88449">
        <ele>1561</ele>
      </trkpt>
      <trkpt lat="45.95403" lon="6.88438">
        <ele>1559</ele>
      </trkpt>
      <trkpt lat="45.95398" lon="6.88434">
        <ele>1557</ele>
      </trkpt>
      <trkpt lat="45.95391" lon="6.88428">
        <ele>1553</ele>
      </trkpt>
      <trkpt lat="45.95385" lon="6.88423">
        <ele>1550</ele>
      </trkpt>
      <trkpt lat="45.95381" lon="6.88419">
        <ele>1548</ele>
      </trkpt>
      <trkpt lat="45.95377" lon="6.88416">
        <ele>1546</ele>
      </trkpt>
      <trkpt lat="45.95375" lon="6.8841">
        <ele>1546</ele>
      </trkpt>
      <trkpt lat="45.95371" lon="6.88405">
        <ele>1544</ele>
      </trkpt>
      <trkpt lat="45.95369" lon="6.88401">
        <ele>1544</ele>
      </trkpt>
      <trkpt lat="45.95364" lon="6.88403">
        <ele>1540</ele>
      </trkpt>
      <trkpt lat="45.95366" lon="6.88413">
        <ele>1539</ele>
      </trkpt>
      <trkpt lat="45.95364" lon="6.88419">
        <ele>1537</ele>
      </trkpt>
      <trkpt lat="45.95358" lon="6.88411">
        <ele>1534</ele>
      </trkpt>
      <trkpt lat="45.95351" lon="6.88408">
        <ele>1531</ele>
      </trkpt>
      <trkpt lat="45.95346" lon="6.88397">
        <ele>1529</ele>
      </trkpt>
      <trkpt lat="45.95345" lon="6.88403">
        <ele>1527</ele>
      </trkpt>
      <trkpt lat="45.95341" lon="6.8841">
        <ele>1523</ele>
      </trkpt>
      <trkpt lat="45.95335" lon="6.88408">
        <ele>1520</ele>
      </trkpt>
      <trkpt lat="45.95334" lon="6.88402">
        <ele>1520</ele>
      </trkpt>
      <trkpt lat="45.95325" lon="6.88414">
        <ele>1511</ele>
      </trkpt>
      <trkpt lat="45.95327" lon="6.88424">
        <ele>1511</ele>
      </trkpt>
      <trkpt lat="45.9533" lon="6.88434">
        <ele>1511</ele>
      </trkpt>
      <trkpt lat="45.95326" lon="6.88432">
        <ele>1509</ele>
      </trkpt>
      <trkpt lat="45.95321" lon="6.88443">
        <ele>1504</ele>
      </trkpt>
      <trkpt lat="45.9532" lon="6.8845">
        <ele>1502</ele>
      </trkpt>
      <trkpt lat="45.95314" lon="6.88448">
        <ele>1498</ele>
      </trkpt>
      <trkpt lat="45.95312" lon="6.88453">
        <ele>1496</ele>
      </trkpt>
      <trkpt lat="45.95311" lon="6.88463">
        <ele>1494</ele>
      </trkpt>
      <trkpt lat="45.9531" lon="6.88469">
        <ele>1492</ele>
      </trkpt>
      <trkpt lat="45.95303" lon="6.88476">
        <ele>1486</ele>
      </trkpt>
      <trkpt lat="45.95302" lon="6.88484">
        <ele>1484</ele>
      </trkpt>
      <trkpt lat="45.95297" lon="6.88493">
        <ele>1479</ele>
      </trkpt>
      <trkpt lat="45.95293" lon="6.88487">
        <ele>1478</ele>
      </trkpt>
      <trkpt lat="45.95292" lon="6.8848">
        <ele>1478</ele>
      </trkpt>
      <trkpt lat="45.95291" lon="6.8847">
        <ele>1479</ele>
      </trkpt>
      <trkpt lat="45.95289" lon="6.88461">
        <ele>1480</ele>
      </trkpt>
      <trkpt lat="45.95286" lon="6.88455">
        <ele>1479</ele>
      </trkpt>
      <trkpt lat="45.95281" lon="6.88465">
        <ele>1474</ele>
      </trkpt>
      <trkpt lat="45.95276" lon="6.88469">
        <ele>1470</ele>
      </trkpt>
      <trkpt lat="45.95269" lon="6.88463">
        <ele>1467</ele>
      </trkpt>
      <trkpt lat="45.95265" lon="6.88454">
        <ele>1466</ele>
      </trkpt>
      <trkpt lat="45.95264" lon="6.88448">
        <ele>1466</ele>
      </trkpt>
      <trkpt lat="45.9526" lon="6.88457">
        <ele>1462</ele>
      </trkpt>
      <trkpt lat="45.9526" lon="6.88463">
        <ele>1461</ele>
      </trkpt>
      <trkpt lat="45.95257" lon="6.88473">
        <ele>1457</ele>
      </trkpt>
      <trkpt lat="45.95253" lon="6.88476">
        <ele>1454</ele>
      </trkpt>
      <trkpt lat="45.95245" lon="6.88476">
        <ele>1449</ele>
      </trkpt>
      <trkpt lat="45.95241" lon="6.88473">
        <ele>1448</ele>
      </trkpt>
      <trkpt lat="45.95235" lon="6.88469">
        <ele>1445</ele>
      </trkpt>
      <trkpt lat="45.95229" lon="6.88475">
        <ele>1441</ele>
      </trkpt>
      <trkpt lat="45.95231" lon="6.88483">
        <ele>1440</ele>
      </trkpt>
      <trkpt lat="45.95228" lon="6.88488">
        <ele>1437</ele>
      </trkpt>
      <trkpt lat="45.9522" lon="6.88488">
        <ele>1433</ele>
      </trkpt>
      <trkpt lat="45.95213" lon="6.8848">
        <ele>1430</ele>
      </trkpt>
      <trkpt lat="45.95213" lon="6.88473">
        <ele>1431</ele>
      </trkpt>
      <trkpt lat="45.9522" lon="6.88452">
        <ele>1438</ele>
      </trkpt>
      <trkpt lat="45.95219" lon="6.88437">
        <ele>1440</ele>
      </trkpt>
      <trkpt lat="45.95214" lon="6.88424">
        <ele>1439</ele>
      </trkpt>
      <trkpt lat="45.95212" lon="6.88419">
        <ele>1438</ele>
      </trkpt>
      <trkpt lat="45.95209" lon="6.88415">
        <ele>1437</ele>
      </trkpt>
      <trkpt lat="45.95202" lon="6.88407">
        <ele>1433</ele>
      </trkpt>
      <trkpt lat="45.95194" lon="6.88403">
        <ele>1429</ele>
      </trkpt>
      <trkpt lat="45.9518" lon="6.88388">
        <ele>1421</ele>
      </trkpt>
      <trkpt lat="45.95175" lon="6.88373">
        <ele>1419</ele>
      </trkpt>
      <trkpt lat="45.95174" lon="6.88361">
        <ele>1420</ele>
      </trkpt>
      <trkpt lat="45.95173" lon="6.88352">
        <ele>1420</ele>
      </trkpt>
      <trkpt lat="45.95172" lon="6.88335">
        <ele>1422</ele>
      </trkpt>
      <trkpt lat="45.95175" lon="6.88323">
        <ele>1426</ele>
      </trkpt>
      <trkpt lat="45.95173" lon="6.8831">
        <ele>1427</ele>
      </trkpt>
      <trkpt lat="45.95171" lon="6.88302">
        <ele>1427</ele>
      </trkpt>
      <trkpt lat="45.95168" lon="6.88295">
        <ele>1426</ele>
      </trkpt>
      <trkpt lat="45.95167" lon="6.88281">
        <ele>1428</ele>
      </trkpt>
      <trkpt lat="45.95162" lon="6.88272">
        <ele>1426</ele>
      </trkpt>
      <trkpt lat="45.95164" lon="6.88266">
        <ele>1428</ele>
      </trkpt>
      <trkpt lat="45.95166" lon="6.88258">
        <ele>1432</ele>
      </trkpt>
      <trkpt lat="45.9517" lon="6.88251">
        <ele>1436</ele>
      </trkpt>
      <trkpt lat="45.95168" lon="6.8824">
        <ele>1435</ele>
      </trkpt>
      <trkpt lat="45.95166" lon="6.88232">
        <ele>1434</ele>
      </trkpt>
      <trkpt lat="45.95164" lon="6.88213">
        <ele>1434</ele>
      </trkpt>
      <trkpt lat="45.95163" lon="6.88206">
        <ele>1434</ele>
      </trkpt>
      <trkpt lat="45.95159" lon="6.882">
        <ele>1432</ele>
      </trkpt>
      <trkpt lat="45.95158" lon="6.88192">
        <ele>1432</ele>
      </trkpt>
      <trkpt lat="45.95157" lon="6.88182">
        <ele>1432</ele>
      </trkpt>
      <trkpt lat="45.95153" lon="6.88171">
        <ele>1430</ele>
      </trkpt>
      <trkpt lat="45.95147" lon="6.88163">
        <ele>1425</ele>
      </trkpt>
      <trkpt lat="45.95147" lon="6.88151">
        <ele>1425</ele>
      </trkpt>
      <trkpt lat="45.95145" lon="6.88141">
        <ele>1424</ele>
      </trkpt>
      <trkpt lat="45.95141" lon="6.88135">
        <ele>1422</ele>
      </trkpt>
      <trkpt lat="45.95136" lon="6.8812">
        <ele>1419</ele>
      </trkpt>
      <trkpt lat="45.95136" lon="6.88106">
        <ele>1420</ele>
      </trkpt>
      <trkpt lat="45.95133" lon="6.88094">
        <ele>1418</ele>
      </trkpt>
      <trkpt lat="45.95135" lon="6.88083">
        <ele>1419</ele>
      </trkpt>
      <trkpt lat="45.95122" lon="6.88077">
        <ele>1413</ele>
      </trkpt>
      <trkpt lat="45.95098" lon="6.88054">
        <ele>1404</ele>
      </trkpt>
      <trkpt lat="45.95078" lon="6.88037">
        <ele>1400</ele>
      </trkpt>
      <trkpt lat="45.95072" lon="6.88032">
        <ele>1401</ele>
      </trkpt>
      <trkpt lat="45.95063" lon="6.88028">
        <ele>1403</ele>
      </trkpt>
      <trkpt lat="45.95045" lon="6.88022">
        <ele>1407</ele>
      </trkpt>
      <trkpt lat="45.95033" lon="6.88027">
        <ele>1405</ele>
      </trkpt>
      <trkpt lat="45.9502" lon="6.88043">
        <ele>1396</ele>
      </trkpt>
      <trkpt lat="45.95012" lon="6.8805">
        <ele>1391</ele>
      </trkpt>
      <trkpt lat="45.95009" lon="6.88056">
        <ele>1387</ele>
      </trkpt>
      <trkpt lat="45.94985" lon="6.88072">
        <ele>1376</ele>
      </trkpt>
      <trkpt lat="45.94978" lon="6.88076">
        <ele>1375</ele>
      </trkpt>
      <trkpt lat="45.94964" lon="6.88094">
        <ele>1367</ele>
      </trkpt>
      <trkpt lat="45.94954" lon="6.88103">
        <ele>1364</ele>
      </trkpt>
      <trkpt lat="45.94946" lon="6.88108">
        <ele>1362</ele>
      </trkpt>
      <trkpt lat="45.94932" lon="6.88118">
        <ele>1357</ele>
      </trkpt>
      <trkpt lat="45.94916" lon="6.88114">
        <ele>1361</ele>
      </trkpt>
      <trkpt lat="45.9491" lon="6.88111">
        <ele>1361</ele>
      </trkpt>
      <trkpt lat="45.94902" lon="6.88104">
        <ele>1362</ele>
      </trkpt>
      <trkpt lat="45.94892" lon="6.88101">
        <ele>1360</ele>
      </trkpt>
      <trkpt lat="45.94884" lon="6.88096">
        <ele>1359</ele>
      </trkpt>
      <trkpt lat="45.94879" lon="6.88092">
        <ele>1360</ele>
      </trkpt>
      <trkpt lat="45.94869" lon="6.88075">
        <ele>1364</ele>
      </trkpt>
      <trkpt lat="45.94864" lon="6.88068">
        <ele>1365</ele>
      </trkpt>
      <trkpt lat="45.94861" lon="6.88062">
        <ele>1367</ele>
      </trkpt>
      <trkpt lat="45.9486" lon="6.88054">
        <ele>1370</ele>
      </trkpt>
      <trkpt lat="45.94858" lon="6.88045">
        <ele>1374</ele>
      </trkpt>
      <trkpt lat="45.94847" lon="6.88034">
        <ele>1375</ele>
      </trkpt>
      <trkpt lat="45.9484" lon="6.88028">
        <ele>1374</ele>
      </trkpt>
      <trkpt lat="45.94836" lon="6.88027">
        <ele>1373</ele>
      </trkpt>
      <trkpt lat="45.94821" lon="6.88022">
        <ele>1365</ele>
      </trkpt>
      <trkpt lat="45.94816" lon="6.88021">
        <ele>1363</ele>
      </trkpt>
      <trkpt lat="45.94803" lon="6.88012">
        <ele>1358</ele>
      </trkpt>
      <trkpt lat="45.94797" lon="6.88006">
        <ele>1356</ele>
      </trkpt>
      <trkpt lat="45.94793" lon="6.87997">
        <ele>1357</ele>
      </trkpt>
      <trkpt lat="45.94791" lon="6.87992">
        <ele>1358</ele>
      </trkpt>
      <trkpt lat="45.94781" lon="6.87981">
        <ele>1356</ele>
      </trkpt>
      <trkpt lat="45.94778" lon="6.87974">
        <ele>1356</ele>
      </trkpt>
      <trkpt lat="45.94779" lon="6.87946">
        <ele>1370</ele>
      </trkpt>
      <trkpt lat="45.94783" lon="6.87928">
        <ele>1380</ele>
      </trkpt>
      <trkpt lat="45.9478" lon="6.87918">
        <ele>1382</ele>
      </trkpt>
      <trkpt lat="45.94773" lon="6.87915">
        <ele>1379</ele>
      </trkpt>
      <trkpt lat="45.94763" lon="6.87914">
        <ele>1374</ele>
      </trkpt>
      <trkpt lat="45.9475" lon="6.87904">
        <ele>1370</ele>
      </trkpt>
      <trkpt lat="45.94746" lon="6.87898">
        <ele>1371</ele>
      </trkpt>
      <trkpt lat="45.94739" lon="6.87891">
        <ele>1370</ele>
      </trkpt>
      <trkpt lat="45.94725" lon="6.87882">
        <ele>1365</ele>
      </trkpt>
      <trkpt lat="45.94714" lon="6.87877">
        <ele>1361</ele>
      </trkpt>
      <trkpt lat="45.94706" lon="6.8786">
        <ele>1364</ele>
      </trkpt>
      <trkpt lat="45.94698" lon="6.87858">
        <ele>1361</ele>
      </trkpt>
      <trkpt lat="45.94681" lon="6.8786">
        <ele>1349</ele>
      </trkpt>
      <trkpt lat="45.94672" lon="6.87857">
        <ele>1346</ele>
      </trkpt>
      <trkpt lat="45.94667" lon="6.87845">
        <ele>1348</ele>
      </trkpt>
      <trkpt lat="45.94661" lon="6.87831">
        <ele>1351</ele>
      </trkpt>
      <trkpt lat="45.94654" lon="6.87826">
        <ele>1348</ele>
      </trkpt>
      <trkpt lat="45.94642" lon="6.8782">
        <ele>1343</ele>
      </trkpt>
      <trkpt lat="45.94626" lon="6.87809">
        <ele>1338</ele>
      </trkpt>
      <trkpt lat="45.94606" lon="6.87791">
        <ele>1334</ele>
      </trkpt>
      <trkpt lat="45.94604" lon="6.87785">
        <ele>1335</ele>
      </trkpt>
      <trkpt lat="45.94602" lon="6.87782">
        <ele>1335</ele>
      </trkpt>
      <trkpt lat="45.94597" lon="6.87778">
        <ele>1334</ele>
      </trkpt>
      <trkpt lat="45.94598" lon="6.87772">
        <ele>1338</ele>
      </trkpt>
      <trkpt lat="45.946" lon="6.87763">
        <ele>1344</ele>
      </trkpt>
      <trkpt lat="45.94599" lon="6.87745">
        <ele>1352</ele>
      </trkpt>
      <trkpt lat="45.94591" lon="6.87724">
        <ele>1355</ele>
      </trkpt>
      <trkpt lat="45.94584" lon="6.87714">
        <ele>1354</ele>
      </trkpt>
      <trkpt lat="45.94575" lon="6.8772">
        <ele>1347</ele>
      </trkpt>
      <trkpt lat="45.94568" lon="6.87728">
        <ele>1340</ele>
      </trkpt>
      <trkpt lat="45.94556" lon="6.87725">
        <ele>1335</ele>
      </trkpt>
      <trkpt lat="45.94547" lon="6.87721">
        <ele>1332</ele>
      </trkpt>
      <trkpt lat="45.94525" lon="6.877">
        <ele>1330</ele>
      </trkpt>
      <trkpt lat="45.94515" lon="6.87704">
        <ele>1324</ele>
      </trkpt>
      <trkpt lat="45.94505" lon="6.87696">
        <ele>1323</ele>
      </trkpt>
      <trkpt lat="45.94492" lon="6.87687">
        <ele>1322</ele>
      </trkpt>
      <trkpt lat="45.94481" lon="6.87678">
        <ele>1322</ele>
      </trkpt>
      <trkpt lat="45.94478" lon="6.87675">
        <ele>1322</ele>
      </trkpt>
      <trkpt lat="45.94474" lon="6.87675">
        <ele>1321</ele>
      </trkpt>
      <trkpt lat="45.94466" lon="6.87673">
        <ele>1319</ele>
      </trkpt>
      <trkpt lat="45.94462" lon="6.87671">
        <ele>1318</ele>
      </trkpt>
      <trkpt lat="45.94453" lon="6.87668">
        <ele>1315</ele>
      </trkpt>
      <trkpt lat="45.94444" lon="6.87667">
        <ele>1312</ele>
      </trkpt>
      <trkpt lat="45.94439" lon="6.87665">
        <ele>1311</ele>
      </trkpt>
      <trkpt lat="45.94423" lon="6.87656">
        <ele>1309</ele>
      </trkpt>
      <trkpt lat="45.94412" lon="6.8765">
        <ele>1306</ele>
      </trkpt>
      <trkpt lat="45.94403" lon="6.87651">
        <ele>1300</ele>
      </trkpt>
      <trkpt lat="45.9439" lon="6.87642">
        <ele>1297</ele>
      </trkpt>
      <trkpt lat="45.94379" lon="6.87635">
        <ele>1294</ele>
      </trkpt>
      <trkpt lat="45.9436" lon="6.87616">
        <ele>1292</ele>
      </trkpt>
      <trkpt lat="45.94357" lon="6.87613">
        <ele>1291</ele>
      </trkpt>
      <trkpt lat="45.94351" lon="6.87611">
        <ele>1288</ele>
      </trkpt>
      <trkpt lat="45.94341" lon="6.87605">
        <ele>1286</ele>
      </trkpt>
      <trkpt lat="45.94326" lon="6.87601">
        <ele>1278</ele>
      </trkpt>
      <trkpt lat="45.94308" lon="6.87592">
        <ele>1273</ele>
      </trkpt>
      <trkpt lat="45.94302" lon="6.8759">
        <ele>1270</ele>
      </trkpt>
      <trkpt lat="45.94294" lon="6.87585">
        <ele>1267</ele>
      </trkpt>
      <trkpt lat="45.94279" lon="6.87581">
        <ele>1261</ele>
      </trkpt>
      <trkpt lat="45.94271" lon="6.87579">
        <ele>1257</ele>
      </trkpt>
      <trkpt lat="45.94267" lon="6.87574">
        <ele>1256</ele>
      </trkpt>
      <trkpt lat="45.94263" lon="6.87564">
        <ele>1257</ele>
      </trkpt>
      <trkpt lat="45.94263" lon="6.87554">
        <ele>1261</ele>
      </trkpt>
      <trkpt lat="45.94265" lon="6.87549">
        <ele>1264</ele>
      </trkpt>
      <trkpt lat="45.94269" lon="6.87529">
        <ele>1272</ele>
      </trkpt>
      <trkpt lat="45.94269" lon="6.87524">
        <ele>1274</ele>
      </trkpt>
      <trkpt lat="45.94267" lon="6.87511">
        <ele>1277</ele>
      </trkpt>
      <trkpt lat="45.94258" lon="6.87501">
        <ele>1276</ele>
      </trkpt>
      <trkpt lat="45.94249" lon="6.875">
        <ele>1272</ele>
      </trkpt>
      <trkpt lat="45.94244" lon="6.87501">
        <ele>1269</ele>
      </trkpt>
      <trkpt lat="45.9424" lon="6.87503">
        <ele>1266</ele>
      </trkpt>
      <trkpt lat="45.94225" lon="6.87516">
        <ele>1254</ele>
      </trkpt>
      <trkpt lat="45.9422" lon="6.87517">
        <ele>1252</ele>
      </trkpt>
      <trkpt lat="45.94212" lon="6.87518">
        <ele>1248</ele>
      </trkpt>
      <trkpt lat="45.94204" lon="6.87522">
        <ele>1242</ele>
      </trkpt>
      <trkpt lat="45.94198" lon="6.87523">
        <ele>1239</ele>
      </trkpt>
      <trkpt lat="45.94194" lon="6.87523">
        <ele>1237</ele>
      </trkpt>
      <trkpt lat="45.94188" lon="6.87523">
        <ele>1234</ele>
      </trkpt>
      <trkpt lat="45.94178" lon="6.87529">
        <ele>1227</ele>
      </trkpt>
      <trkpt lat="45.94171" lon="6.87532">
        <ele>1222</ele>
      </trkpt>
      <trkpt lat="45.94167" lon="6.8753">
        <ele>1221</ele>
      </trkpt>
      <trkpt lat="45.94154" lon="6.87523">
        <ele>1218</ele>
      </trkpt>
      <trkpt lat="45.94135" lon="6.87502">
        <ele>1218</ele>
      </trkpt>
      <trkpt lat="45.94132" lon="6.87498">
        <ele>1219</ele>
      </trkpt>
      <trkpt lat="45.94119" lon="6.87488">
        <ele>1219</ele>
      </trkpt>
      <trkpt lat="45.94117" lon="6.87485">
        <ele>1219</ele>
      </trkpt>
      <trkpt lat="45.9411" lon="6.8748">
        <ele>1218</ele>
      </trkpt>
      <trkpt lat="45.94102" lon="6.87471">
        <ele>1219</ele>
      </trkpt>
      <trkpt lat="45.94086" lon="6.87456">
        <ele>1218</ele>
      </trkpt>
      <trkpt lat="45.94077" lon="6.87449">
        <ele>1218</ele>
      </trkpt>
      <trkpt lat="45.94065" lon="6.8744">
        <ele>1218</ele>
      </trkpt>
      <trkpt lat="45.94054" lon="6.87428">
        <ele>1218</ele>
      </trkpt>
      <trkpt lat="45.94035" lon="6.87417">
        <ele>1215</ele>
      </trkpt>
      <trkpt lat="45.94017" lon="6.87409">
        <ele>1212</ele>
      </trkpt>
      <trkpt lat="45.94013" lon="6.87405">
        <ele>1211</ele>
      </trkpt>
      <trkpt lat="45.93997" lon="6.8739">
        <ele>1211</ele>
      </trkpt>
      <trkpt lat="45.93986" lon="6.87378">
        <ele>1212</ele>
      </trkpt>
      <trkpt lat="45.93979" lon="6.87371">
        <ele>1212</ele>
      </trkpt>
      <trkpt lat="45.93975" lon="6.87368">
        <ele>1211</ele>
      </trkpt>
      <trkpt lat="45.93972" lon="6.87363">
        <ele>1212</ele>
      </trkpt>
      <trkpt lat="45.93966" lon="6.87353">
        <ele>1213</ele>
      </trkpt>
      <trkpt lat="45.93963" lon="6.87349">
        <ele>1213</ele>
      </trkpt>
      <trkpt lat="45.9396" lon="6.87346">
        <ele>1214</ele>
      </trkpt>
      <trkpt lat="45.93954" lon="6.87343">
        <ele>1212</ele>
      </trkpt>
      <trkpt lat="45.93949" lon="6.87342">
        <ele>1211</ele>
      </trkpt>
      <trkpt lat="45.93948" lon="6.87337">
        <ele>1212</ele>
      </trkpt>
      <trkpt lat="45.93939" lon="6.87327">
        <ele>1212</ele>
      </trkpt>
      <trkpt lat="45.93933" lon="6.8732">
        <ele>1212</ele>
      </trkpt>
      <trkpt lat="45.93924" lon="6.87309">
        <ele>1212</ele>
      </trkpt>
      <trkpt lat="45.93921" lon="6.87301">
        <ele>1213</ele>
      </trkpt>
      <trkpt lat="45.93909" lon="6.87287">
        <ele>1213</ele>
      </trkpt>
      <trkpt lat="45.93904" lon="6.87275">
        <ele>1215</ele>
      </trkpt>
      <trkpt lat="45.9389" lon="6.8726">
        <ele>1214</ele>
      </trkpt>
      <trkpt lat="45.93882" lon="6.87249">
        <ele>1214</ele>
      </trkpt>
      <trkpt lat="45.93879" lon="6.87243">
        <ele>1215</ele>
      </trkpt>
      <trkpt lat="45.93871" lon="6.87226">
        <ele>1218</ele>
      </trkpt>
      <trkpt lat="45.9386" lon="6.87219">
        <ele>1216</ele>
      </trkpt>
      <trkpt lat="45.93853" lon="6.87215">
        <ele>1214</ele>
      </trkpt>
      <trkpt lat="45.93847" lon="6.87209">
        <ele>1213</ele>
      </trkpt>
      <trkpt lat="45.93835" lon="6.87206">
        <ele>1210</ele>
      </trkpt>
      <trkpt lat="45.9383" lon="6.87205">
        <ele>1208</ele>
      </trkpt>
      <trkpt lat="45.93822" lon="6.87199">
        <ele>1208</ele>
      </trkpt>
      <trkpt lat="45.93811" lon="6.87194">
        <ele>1206</ele>
      </trkpt>
      <trkpt lat="45.93798" lon="6.87193">
        <ele>1202</ele>
      </trkpt>
      <trkpt lat="45.93791" lon="6.87194">
        <ele>1199</ele>
      </trkpt>
      <trkpt lat="45.93779" lon="6.872">
        <ele>1193</ele>
      </trkpt>
      <trkpt lat="45.93771" lon="6.87208">
        <ele>1189</ele>
      </trkpt>
      <trkpt lat="45.93761" lon="6.87214">
        <ele>1184</ele>
      </trkpt>
      <trkpt lat="45.93757" lon="6.87216">
        <ele>1183</ele>
      </trkpt>
      <trkpt lat="45.93748" lon="6.87216">
        <ele>1180</ele>
      </trkpt>
      <trkpt lat="45.93742" lon="6.87215">
        <ele>1179</ele>
      </trkpt>
      <trkpt lat="45.93732" lon="6.87214">
        <ele>1177</ele>
      </trkpt>
      <trkpt lat="45.93729" lon="6.87214">
        <ele>1176</ele>
      </trkpt>
      <trkpt lat="45.93728" lon="6.87217">
        <ele>1175</ele>
      </trkpt>
      <trkpt lat="45.93727" lon="6.87219">
        <ele>1175</ele>
      </trkpt>
      <trkpt lat="45.93731" lon="6.87224">
        <ele>1174</ele>
      </trkpt>
      <trkpt lat="45.93736" lon="6.87234">
        <ele>1173</ele>
      </trkpt>
      <trkpt lat="45.93739" lon="6.87238">
        <ele>1173</ele>
      </trkpt>
      <trkpt lat="45.9375" lon="6.87246">
        <ele>1174</ele>
      </trkpt>
      <trkpt lat="45.93753" lon="6.87254">
        <ele>1173</ele>
      </trkpt>
      <trkpt lat="45.93752" lon="6.87256">
        <ele>1172</ele>
      </trkpt>
      <trkpt lat="45.93745" lon="6.87263">
        <ele>1170</ele>
      </trkpt>
      <trkpt lat="45.93736" lon="6.87267">
        <ele>1167</ele>
      </trkpt>
      <trkpt lat="45.93718" lon="6.87271">
        <ele>1162</ele>
      </trkpt>
      <trkpt lat="45.93715" lon="6.8727">
        <ele>1162</ele>
      </trkpt>
      <trkpt lat="45.93704" lon="6.87268">
        <ele>1159</ele>
      </trkpt>
      <trkpt lat="45.93675" lon="6.87254">
        <ele>1156</ele>
      </trkpt>
      <trkpt lat="45.93658" lon="6.87248">
        <ele>1153</ele>
      </trkpt>
      <trkpt lat="45.93641" lon="6.87236">
        <ele>1150</ele>
      </trkpt>
      <trkpt lat="45.93631" lon="6.87227">
        <ele>1150</ele>
      </trkpt>
      <trkpt lat="45.93624" lon="6.87218">
        <ele>1149</ele>
      </trkpt>
      <trkpt lat="45.93619" lon="6.87214">
        <ele>1149</ele>
      </trkpt>
      <trkpt lat="45.93609" lon="6.87202">
        <ele>1148</ele>
      </trkpt>
      <trkpt lat="45.93597" lon="6.87185">
        <ele>1147</ele>
      </trkpt>
      <trkpt lat="45.93595" lon="6.87182">
        <ele>1147</ele>
      </trkpt>
      <trkpt lat="45.93584" lon="6.87168">
        <ele>1146</ele>
      </trkpt>
      <trkpt lat="45.93581" lon="6.87166">
        <ele>1146</ele>
      </trkpt>
      <trkpt lat="45.9357" lon="6.87158">
        <ele>1147</ele>
      </trkpt>
      <trkpt lat="45.93564" lon="6.87155">
        <ele>1146</ele>
      </trkpt>
      <trkpt lat="45.93553" lon="6.87151">
        <ele>1144</ele>
      </trkpt>
      <trkpt lat="45.93547" lon="6.87148">
        <ele>1144</ele>
      </trkpt>
      <trkpt lat="45.93537" lon="6.87141">
        <ele>1143</ele>
      </trkpt>
      <trkpt lat="45.93526" lon="6.87132">
        <ele>1143</ele>
      </trkpt>
      <trkpt lat="45.93501" lon="6.87116">
        <ele>1138</ele>
      </trkpt>
      <trkpt lat="45.93489" lon="6.87107">
        <ele>1139</ele>
      </trkpt>
      <trkpt lat="45.93466" lon="6.87095">
        <ele>1139</ele>
      </trkpt>
      <trkpt lat="45.93448" lon="6.87079">
        <ele>1141</ele>
      </trkpt>
      <trkpt lat="45.9344" lon="6.87078">
        <ele>1140</ele>
      </trkpt>
      <trkpt lat="45.93433" lon="6.87079">
        <ele>1138</ele>
      </trkpt>
      <trkpt lat="45.93428" lon="6.8708">
        <ele>1137</ele>
      </trkpt>
      <trkpt lat="45.93423" lon="6.87079">
        <ele>1136</ele>
      </trkpt>
      <trkpt lat="45.93416" lon="6.87075">
        <ele>1136</ele>
      </trkpt>
      <trkpt lat="45.93404" lon="6.87076">
        <ele>1133</ele>
      </trkpt>
      <trkpt lat="45.93393" lon="6.87075">
        <ele>1131</ele>
      </trkpt>
      <trkpt lat="45.93385" lon="6.87076">
        <ele>1129</ele>
      </trkpt>
      <trkpt lat="45.93375" lon="6.8708">
        <ele>1125</ele>
      </trkpt>
      <trkpt lat="45.93372" lon="6.87082">
        <ele>1124</ele>
      </trkpt>
      <trkpt lat="45.93362" lon="6.87084">
        <ele>1122</ele>
      </trkpt>
      <trkpt lat="45.93354" lon="6.8708">
        <ele>1121</ele>
      </trkpt>
      <trkpt lat="45.93349" lon="6.87078">
        <ele>1121</ele>
      </trkpt>
      <trkpt lat="45.93336" lon="6.87079">
        <ele>1117</ele>
      </trkpt>
      <trkpt lat="45.93323" lon="6.87081">
        <ele>1116</ele>
      </trkpt>
      <trkpt lat="45.93309" lon="6.87081">
        <ele>1114</ele>
      </trkpt>
      <trkpt lat="45.93292" lon="6.87076">
        <ele>1115</ele>
      </trkpt>
      <trkpt lat="45.93285" lon="6.87076">
        <ele>1114</ele>
      </trkpt>
      <trkpt lat="45.93272" lon="6.87079">
        <ele>1112</ele>
      </trkpt>
      <trkpt lat="45.93267" lon="6.87079">
        <ele>1112</ele>
      </trkpt>
      <trkpt lat="45.93254" lon="6.87083">
        <ele>1110</ele>
      </trkpt>
      <trkpt lat="45.93246" lon="6.87082">
        <ele>1109</ele>
      </trkpt>
      <trkpt lat="45.93236" lon="6.87083">
        <ele>1107</ele>
      </trkpt>
      <trkpt lat="45.9323" lon="6.87081">
        <ele>1106</ele>
      </trkpt>
      <trkpt lat="45.93226" lon="6.87082">
        <ele>1105</ele>
      </trkpt>
      <trkpt lat="45.9322" lon="6.87082">
        <ele>1104</ele>
      </trkpt>
      <trkpt lat="45.93212" lon="6.87085">
        <ele>1102</ele>
      </trkpt>
      <trkpt lat="45.93206" lon="6.87084">
        <ele>1101</ele>
      </trkpt>
      <trkpt lat="45.93202" lon="6.87085">
        <ele>1100</ele>
      </trkpt>
      <trkpt lat="45.93199" lon="6.87084">
        <ele>1100</ele>
      </trkpt>
      <trkpt lat="45.93191" lon="6.87087">
        <ele>1098</ele>
      </trkpt>
      <trkpt lat="45.93186" lon="6.87086">
        <ele>1097</ele>
      </trkpt>
      <trkpt lat="45.93179" lon="6.8709">
        <ele>1095</ele>
      </trkpt>
      <trkpt lat="45.93178" lon="6.8709">
        <ele>1094</ele>
      </trkpt>
      <trkpt lat="45.93178" lon="6.87091">
        <ele>1094</ele>
      </trkpt>
      <trkpt lat="45.9316" lon="6.87098">
        <ele>1089</ele>
      </trkpt>
      <trkpt lat="45.93154" lon="6.87098">
        <ele>1088</ele>
      </trkpt>
      <trkpt lat="45.93139" lon="6.87096">
        <ele>1085</ele>
      </trkpt>
      <trkpt lat="45.93132" lon="6.87099">
        <ele>1083</ele>
      </trkpt>
      <trkpt lat="45.93124" lon="6.87097">
        <ele>1082</ele>
      </trkpt>
      <trkpt lat="45.93109" lon="6.87089">
        <ele>1080</ele>
      </trkpt>
      <trkpt lat="45.93103" lon="6.8709">
        <ele>1078</ele>
      </trkpt>
      <trkpt lat="45.93094" lon="6.87061">
        <ele>1068</ele>
      </trkpt>
      <trkpt lat="45.9305" lon="6.87045">
        <ele>1061</ele>
      </trkpt>
      <trkpt lat="45.92996" lon="6.86998">
        <ele>1057</ele>
      </trkpt>
      <trkpt lat="45.92949" lon="6.86936">
        <ele>1058</ele>
      </trkpt>
      <trkpt lat="45.92905" lon="6.86894">
        <ele>1054</ele>
      </trkpt>
      <trkpt lat="45.9287" lon="6.8682">
        <ele>1054</ele>
      </trkpt>
      <trkpt lat="45.92842" lon="6.86831">
        <ele>1050</ele>
      </trkpt>
      <trkpt lat="45.92793" lon="6.86933">
        <ele>1044</ele>
      </trkpt>
      <trkpt lat="45.92765" lon="6.87018">
        <ele>1039</ele>
      </trkpt>
      <trkpt lat="45.92782" lon="6.87032">
        <ele>1039</ele>
      </trkpt>
      <trkpt lat="45.92816" lon="6.87045">
        <ele>1040</ele>
      </trkpt>
      <trkpt lat="45.9281" lon="6.87073">
        <ele>1039</ele>
      </trkpt>
      <trkpt lat="45.92775" lon="6.87206">
        <ele>1037</ele>
      </trkpt>
      <trkpt lat="45.92675" lon="6.87175">
        <ele>1034</ele>
      </trkpt>
      <trkpt lat="45.92531" lon="6.87131">
        <ele>1034</ele>
      </trkpt>
      <trkpt lat="45.92502" lon="6.87119">
        <ele>1033</ele>
      </trkpt>
      <trkpt lat="45.9253" lon="6.86986">
        <ele>1034</ele>
      </trkpt>
      <trkpt lat="45.92483" lon="6.86978">
        <ele>1034</ele>
      </trkpt>
      <trkpt lat="45.92424" lon="6.86983">
        <ele>1033</ele>
      </trkpt>
      <trkpt lat="45.92406" lon="6.86988">
        <ele>1032</ele>
      </trkpt>
      <trkpt lat="45.92372" lon="6.86989">
        <ele>1033</ele>
      </trkpt>
      <trkpt lat="45.92346" lon="6.87077">
        <ele>1031</ele>
      </trkpt>
      <trkpt lat="45.92307" lon="6.87038">
        <ele>1032</ele>
      </trkpt>
      <trkpt lat="45.9231" lon="6.87016">
        <ele>1032</ele>
      </trkpt>
      <trkpt lat="45.9233" lon="6.86979">
        <ele>1033</ele>
      </trkpt>
      <trkpt lat="45.92344" lon="6.8696">
        <ele>1033</ele>
      </trkpt>
      <trkpt lat="45.92362" lon="6.86897">
        <ele>1036</ele>
      </trkpt>
    </trkseg>
  </trk>
</gpx>